<?xml version="1.0" encoding="UTF-8" standalone="no" ?>
<gpx xmlns="http://www.topografix.com/GPX/1/1" xmlns:xsi="http://www.w3.org/2001/XMLSchema-instance" xsi:schemaLocation="http://www.topografix.com/GPX/1/1 http://www.topografix.com/GPX/1/1/gpx.xsd" version="1.1" creator="VisuGPX - https://www.visugpx.com">
  <metadata>
    <name>31.10.2014. Dextre Ducambanderie</name>
    <desc><![CDATA[Un bon pas, plus sur le retour bien évidemment... Une Dipti en pleine forme qui s%u2019est fait rappeler à l\'ordre par sa mère, quand elle a voulu prendre le galop et dépasser !]]></desc>
  </metadata>
  <trk>
    <name><![CDATA[Untitled]]></name>
    <trkseg>
      <trkpt lat="48.70984" lon="1.748">
        <ele>178.60000610352</ele>
        <time>2014-10-31T11:47:40.000Z</time>
      </trkpt>
      <trkpt lat="48.70977" lon="1.74787">
        <ele>178.39999389648</ele>
        <time>2014-10-31T11:47:46.000Z</time>
      </trkpt>
      <trkpt lat="48.70976" lon="1.74786">
        <ele>178.39999389648</ele>
        <time>2014-10-31T11:47:47.000Z</time>
      </trkpt>
      <trkpt lat="48.7097" lon="1.74774">
        <ele>178.39999389648</ele>
        <time>2014-10-31T11:47:56.000Z</time>
      </trkpt>
      <trkpt lat="48.70957" lon="1.74763">
        <ele>178.19999694824</ele>
        <time>2014-10-31T11:48:05.000Z</time>
      </trkpt>
      <trkpt lat="48.70941" lon="1.74743">
        <ele>178</ele>
        <time>2014-10-31T11:48:17.000Z</time>
      </trkpt>
      <trkpt lat="48.70929" lon="1.74726">
        <ele>177.80000305176</ele>
        <time>2014-10-31T11:48:28.000Z</time>
      </trkpt>
      <trkpt lat="48.70919" lon="1.74713">
        <ele>177.39999389648</ele>
        <time>2014-10-31T11:48:37.000Z</time>
      </trkpt>
      <trkpt lat="48.7091" lon="1.747">
        <ele>177.19999694824</ele>
        <time>2014-10-31T11:48:46.000Z</time>
      </trkpt>
      <trkpt lat="48.70904" lon="1.74693">
        <ele>177</ele>
        <time>2014-10-31T11:48:52.000Z</time>
      </trkpt>
      <trkpt lat="48.70894" lon="1.74679">
        <ele>176.60000610352</ele>
        <time>2014-10-31T11:49:02.000Z</time>
      </trkpt>
      <trkpt lat="48.70885" lon="1.74664">
        <ele>176.19999694824</ele>
        <time>2014-10-31T11:49:12.000Z</time>
      </trkpt>
      <trkpt lat="48.70875" lon="1.74652">
        <ele>176</ele>
        <time>2014-10-31T11:49:22.000Z</time>
      </trkpt>
      <trkpt lat="48.70868" lon="1.74641">
        <ele>176</ele>
        <time>2014-10-31T11:49:30.000Z</time>
      </trkpt>
      <trkpt lat="48.70857" lon="1.74627">
        <ele>176</ele>
        <time>2014-10-31T11:49:40.000Z</time>
      </trkpt>
      <trkpt lat="48.70845" lon="1.74613">
        <ele>176</ele>
        <time>2014-10-31T11:49:51.000Z</time>
      </trkpt>
      <trkpt lat="48.70836" lon="1.74601">
        <ele>176.19999694824</ele>
        <time>2014-10-31T11:50:00.000Z</time>
      </trkpt>
      <trkpt lat="48.70828" lon="1.74593">
        <ele>176.39999389648</ele>
        <time>2014-10-31T11:50:08.000Z</time>
      </trkpt>
      <trkpt lat="48.7082" lon="1.74583">
        <ele>176.39999389648</ele>
        <time>2014-10-31T11:50:16.000Z</time>
      </trkpt>
      <trkpt lat="48.70812" lon="1.74573">
        <ele>176.60000610352</ele>
        <time>2014-10-31T11:50:24.000Z</time>
      </trkpt>
      <trkpt lat="48.70803" lon="1.74566">
        <ele>176.60000610352</ele>
        <time>2014-10-31T11:50:32.000Z</time>
      </trkpt>
      <trkpt lat="48.70792" lon="1.74555">
        <ele>176.80000305176</ele>
        <time>2014-10-31T11:50:42.000Z</time>
      </trkpt>
      <trkpt lat="48.70787" lon="1.74543">
        <ele>176.80000305176</ele>
        <time>2014-10-31T11:50:49.000Z</time>
      </trkpt>
      <trkpt lat="48.70781" lon="1.74534">
        <ele>176.80000305176</ele>
        <time>2014-10-31T11:50:55.000Z</time>
      </trkpt>
      <trkpt lat="48.70775" lon="1.74524">
        <ele>177</ele>
        <time>2014-10-31T11:51:02.000Z</time>
      </trkpt>
      <trkpt lat="48.70764" lon="1.74512">
        <ele>177.19999694824</ele>
        <time>2014-10-31T11:51:13.000Z</time>
      </trkpt>
      <trkpt lat="48.70755" lon="1.745">
        <ele>177.60000610352</ele>
        <time>2014-10-31T11:51:22.000Z</time>
      </trkpt>
      <trkpt lat="48.70749" lon="1.74493">
        <ele>177.80000305176</ele>
        <time>2014-10-31T11:51:28.000Z</time>
      </trkpt>
      <trkpt lat="48.70743" lon="1.74488">
        <ele>178</ele>
        <time>2014-10-31T11:51:34.000Z</time>
      </trkpt>
      <trkpt lat="48.70736" lon="1.74476">
        <ele>178.39999389648</ele>
        <time>2014-10-31T11:51:42.000Z</time>
      </trkpt>
      <trkpt lat="48.70733" lon="1.7447">
        <ele>178.60000610352</ele>
        <time>2014-10-31T11:51:46.000Z</time>
      </trkpt>
      <trkpt lat="48.70732" lon="1.74458">
        <ele>178.80000305176</ele>
        <time>2014-10-31T11:51:53.000Z</time>
      </trkpt>
      <trkpt lat="48.70734" lon="1.74455">
        <ele>178.60000610352</ele>
        <time>2014-10-31T11:51:55.000Z</time>
      </trkpt>
      <trkpt lat="48.70745" lon="1.74446">
        <ele>178.39999389648</ele>
        <time>2014-10-31T11:52:04.000Z</time>
      </trkpt>
      <trkpt lat="48.70757" lon="1.74438">
        <ele>178</ele>
        <time>2014-10-31T11:52:14.000Z</time>
      </trkpt>
      <trkpt lat="48.70768" lon="1.74432">
        <ele>177.80000305176</ele>
        <time>2014-10-31T11:52:22.000Z</time>
      </trkpt>
      <trkpt lat="48.70776" lon="1.74427">
        <ele>177.60000610352</ele>
        <time>2014-10-31T11:52:29.000Z</time>
      </trkpt>
      <trkpt lat="48.70788" lon="1.74419">
        <ele>177.60000610352</ele>
        <time>2014-10-31T11:52:39.000Z</time>
      </trkpt>
      <trkpt lat="48.70801" lon="1.74412">
        <ele>177.19999694824</ele>
        <time>2014-10-31T11:52:49.000Z</time>
      </trkpt>
      <trkpt lat="48.70811" lon="1.74402">
        <ele>177</ele>
        <time>2014-10-31T11:53:00.000Z</time>
      </trkpt>
      <trkpt lat="48.70817" lon="1.74395">
        <ele>177</ele>
        <time>2014-10-31T11:53:06.000Z</time>
      </trkpt>
      <trkpt lat="48.70819" lon="1.74395">
        <ele>177</ele>
        <time>2014-10-31T11:53:12.000Z</time>
      </trkpt>
      <trkpt lat="48.70826" lon="1.74392">
        <ele>176.80000305176</ele>
        <time>2014-10-31T11:53:44.000Z</time>
      </trkpt>
      <trkpt lat="48.70835" lon="1.74381">
        <ele>176.80000305176</ele>
        <time>2014-10-31T11:53:52.000Z</time>
      </trkpt>
      <trkpt lat="48.70841" lon="1.74373">
        <ele>176.60000610352</ele>
        <time>2014-10-31T11:53:58.000Z</time>
      </trkpt>
      <trkpt lat="48.7085" lon="1.74361">
        <ele>176.60000610352</ele>
        <time>2014-10-31T11:54:07.000Z</time>
      </trkpt>
      <trkpt lat="48.70857" lon="1.7435">
        <ele>176.60000610352</ele>
        <time>2014-10-31T11:54:15.000Z</time>
      </trkpt>
      <trkpt lat="48.7086" lon="1.74341">
        <ele>176.60000610352</ele>
        <time>2014-10-31T11:54:21.000Z</time>
      </trkpt>
      <trkpt lat="48.70866" lon="1.74329">
        <ele>176.80000305176</ele>
        <time>2014-10-31T11:54:29.000Z</time>
      </trkpt>
      <trkpt lat="48.70873" lon="1.74316">
        <ele>177</ele>
        <time>2014-10-31T11:54:38.000Z</time>
      </trkpt>
      <trkpt lat="48.70878" lon="1.74306">
        <ele>177.19999694824</ele>
        <time>2014-10-31T11:54:45.000Z</time>
      </trkpt>
      <trkpt lat="48.70883" lon="1.74297">
        <ele>177.39999389648</ele>
        <time>2014-10-31T11:54:51.000Z</time>
      </trkpt>
      <trkpt lat="48.70886" lon="1.74289">
        <ele>177.80000305176</ele>
        <time>2014-10-31T11:54:56.000Z</time>
      </trkpt>
      <trkpt lat="48.70892" lon="1.74278">
        <ele>178</ele>
        <time>2014-10-31T11:55:04.000Z</time>
      </trkpt>
      <trkpt lat="48.70893" lon="1.74277">
        <ele>178.19999694824</ele>
        <time>2014-10-31T11:55:05.000Z</time>
      </trkpt>
      <trkpt lat="48.70897" lon="1.74268">
        <ele>178.60000610352</ele>
        <time>2014-10-31T11:55:11.000Z</time>
      </trkpt>
      <trkpt lat="48.70902" lon="1.74252">
        <ele>179.60000610352</ele>
        <time>2014-10-31T11:55:19.000Z</time>
      </trkpt>
      <trkpt lat="48.70904" lon="1.74242">
        <ele>180.39999389648</ele>
        <time>2014-10-31T11:55:26.000Z</time>
      </trkpt>
      <trkpt lat="48.70905" lon="1.74241">
        <ele>180.39999389648</ele>
        <time>2014-10-31T11:55:33.000Z</time>
      </trkpt>
      <trkpt lat="48.70905" lon="1.74241">
        <ele>180.39999389648</ele>
        <time>2014-10-31T11:55:36.000Z</time>
      </trkpt>
      <trkpt lat="48.7091" lon="1.74222">
        <ele>181.19999694824</ele>
        <time>2014-10-31T11:56:18.000Z</time>
      </trkpt>
      <trkpt lat="48.7091" lon="1.7422">
        <ele>181.39999389648</ele>
        <time>2014-10-31T11:56:19.000Z</time>
      </trkpt>
      <trkpt lat="48.70913" lon="1.74211">
        <ele>181.60000610352</ele>
        <time>2014-10-31T11:56:24.000Z</time>
      </trkpt>
      <trkpt lat="48.70913" lon="1.74209">
        <ele>181.80000305176</ele>
        <time>2014-10-31T11:56:25.000Z</time>
      </trkpt>
      <trkpt lat="48.70914" lon="1.74198">
        <ele>182.19999694824</ele>
        <time>2014-10-31T11:56:31.000Z</time>
      </trkpt>
      <trkpt lat="48.70919" lon="1.74186">
        <ele>182.60000610352</ele>
        <time>2014-10-31T11:56:38.000Z</time>
      </trkpt>
      <trkpt lat="48.70922" lon="1.74175">
        <ele>183</ele>
        <time>2014-10-31T11:56:44.000Z</time>
      </trkpt>
      <trkpt lat="48.70923" lon="1.74173">
        <ele>183.19999694824</ele>
        <time>2014-10-31T11:56:45.000Z</time>
      </trkpt>
      <trkpt lat="48.70928" lon="1.7416">
        <ele>183.60000610352</ele>
        <time>2014-10-31T11:56:53.000Z</time>
      </trkpt>
      <trkpt lat="48.70932" lon="1.74152">
        <ele>184</ele>
        <time>2014-10-31T11:56:58.000Z</time>
      </trkpt>
      <trkpt lat="48.70936" lon="1.74145">
        <ele>184</ele>
        <time>2014-10-31T11:57:03.000Z</time>
      </trkpt>
      <trkpt lat="48.70939" lon="1.74135">
        <ele>183.60000610352</ele>
        <time>2014-10-31T11:57:09.000Z</time>
      </trkpt>
      <trkpt lat="48.70943" lon="1.74123">
        <ele>183.39999389648</ele>
        <time>2014-10-31T11:57:15.000Z</time>
      </trkpt>
      <trkpt lat="48.70946" lon="1.7411">
        <ele>183</ele>
        <time>2014-10-31T11:57:22.000Z</time>
      </trkpt>
      <trkpt lat="48.70948" lon="1.74096">
        <ele>182.80000305176</ele>
        <time>2014-10-31T11:57:29.000Z</time>
      </trkpt>
      <trkpt lat="48.7095" lon="1.74083">
        <ele>182.60000610352</ele>
        <time>2014-10-31T11:57:36.000Z</time>
      </trkpt>
      <trkpt lat="48.70952" lon="1.7408">
        <ele>182.60000610352</ele>
        <time>2014-10-31T11:57:38.000Z</time>
      </trkpt>
      <trkpt lat="48.70951" lon="1.74063">
        <ele>182.80000305176</ele>
        <time>2014-10-31T11:57:45.000Z</time>
      </trkpt>
      <trkpt lat="48.70952" lon="1.74048">
        <ele>183</ele>
        <time>2014-10-31T11:57:52.000Z</time>
      </trkpt>
      <trkpt lat="48.70956" lon="1.74034">
        <ele>183</ele>
        <time>2014-10-31T11:58:00.000Z</time>
      </trkpt>
      <trkpt lat="48.70959" lon="1.74023">
        <ele>183</ele>
        <time>2014-10-31T11:58:06.000Z</time>
      </trkpt>
      <trkpt lat="48.70963" lon="1.74011">
        <ele>183</ele>
        <time>2014-10-31T11:58:13.000Z</time>
      </trkpt>
      <trkpt lat="48.70964" lon="1.74005">
        <ele>183.19999694824</ele>
        <time>2014-10-31T11:58:15.000Z</time>
      </trkpt>
      <trkpt lat="48.70965" lon="1.73999">
        <ele>183.19999694824</ele>
        <time>2014-10-31T11:58:18.000Z</time>
      </trkpt>
      <trkpt lat="48.70968" lon="1.73986">
        <ele>183.19999694824</ele>
        <time>2014-10-31T11:58:25.000Z</time>
      </trkpt>
      <trkpt lat="48.7097" lon="1.73969">
        <ele>183</ele>
        <time>2014-10-31T11:58:33.000Z</time>
      </trkpt>
      <trkpt lat="48.70973" lon="1.73956">
        <ele>182.80000305176</ele>
        <time>2014-10-31T11:58:40.000Z</time>
      </trkpt>
      <trkpt lat="48.70974" lon="1.73945">
        <ele>182.60000610352</ele>
        <time>2014-10-31T11:58:46.000Z</time>
      </trkpt>
      <trkpt lat="48.70978" lon="1.73931">
        <ele>183</ele>
        <time>2014-10-31T11:58:54.000Z</time>
      </trkpt>
      <trkpt lat="48.70984" lon="1.7391">
        <ele>183.80000305176</ele>
        <time>2014-10-31T11:59:05.000Z</time>
      </trkpt>
      <trkpt lat="48.70987" lon="1.73895">
        <ele>183.80000305176</ele>
        <time>2014-10-31T11:59:13.000Z</time>
      </trkpt>
      <trkpt lat="48.70989" lon="1.73879">
        <ele>183.39999389648</ele>
        <time>2014-10-31T11:59:20.000Z</time>
      </trkpt>
      <trkpt lat="48.70993" lon="1.73864">
        <ele>183</ele>
        <time>2014-10-31T11:59:28.000Z</time>
      </trkpt>
      <trkpt lat="48.70997" lon="1.73851">
        <ele>182.80000305176</ele>
        <time>2014-10-31T11:59:35.000Z</time>
      </trkpt>
      <trkpt lat="48.71001" lon="1.73837">
        <ele>182.60000610352</ele>
        <time>2014-10-31T11:59:43.000Z</time>
      </trkpt>
      <trkpt lat="48.71004" lon="1.73818">
        <ele>182.39999389648</ele>
        <time>2014-10-31T11:59:53.000Z</time>
      </trkpt>
      <trkpt lat="48.71011" lon="1.73805">
        <ele>182.19999694824</ele>
        <time>2014-10-31T12:00:02.000Z</time>
      </trkpt>
      <trkpt lat="48.71013" lon="1.738">
        <ele>182.19999694824</ele>
        <time>2014-10-31T12:00:08.000Z</time>
      </trkpt>
      <trkpt lat="48.71021" lon="1.73786">
        <ele>182.19999694824</ele>
        <time>2014-10-31T12:02:04.000Z</time>
      </trkpt>
      <trkpt lat="48.71022" lon="1.73785">
        <ele>182.19999694824</ele>
        <time>2014-10-31T12:02:05.000Z</time>
      </trkpt>
      <trkpt lat="48.71027" lon="1.7378">
        <ele>182</ele>
        <time>2014-10-31T12:02:08.000Z</time>
      </trkpt>
      <trkpt lat="48.71037" lon="1.73772">
        <ele>181.60000610352</ele>
        <time>2014-10-31T12:02:17.000Z</time>
      </trkpt>
      <trkpt lat="48.71043" lon="1.73761">
        <ele>181.19999694824</ele>
        <time>2014-10-31T12:02:25.000Z</time>
      </trkpt>
      <trkpt lat="48.71052" lon="1.73754">
        <ele>181.60000610352</ele>
        <time>2014-10-31T12:02:33.000Z</time>
      </trkpt>
      <trkpt lat="48.71056" lon="1.7375">
        <ele>181.80000305176</ele>
        <time>2014-10-31T12:02:37.000Z</time>
      </trkpt>
      <trkpt lat="48.71059" lon="1.73747">
        <ele>181.80000305176</ele>
        <time>2014-10-31T12:02:40.000Z</time>
      </trkpt>
      <trkpt lat="48.71068" lon="1.73739">
        <ele>182.19999694824</ele>
        <time>2014-10-31T12:02:48.000Z</time>
      </trkpt>
      <trkpt lat="48.71072" lon="1.73737">
        <ele>182.19999694824</ele>
        <time>2014-10-31T12:02:51.000Z</time>
      </trkpt>
      <trkpt lat="48.7108" lon="1.7373">
        <ele>182.19999694824</ele>
        <time>2014-10-31T12:02:58.000Z</time>
      </trkpt>
      <trkpt lat="48.71087" lon="1.73723">
        <ele>182</ele>
        <time>2014-10-31T12:03:05.000Z</time>
      </trkpt>
      <trkpt lat="48.71095" lon="1.73716">
        <ele>181.80000305176</ele>
        <time>2014-10-31T12:03:11.000Z</time>
      </trkpt>
      <trkpt lat="48.711" lon="1.73707">
        <ele>181.39999389648</ele>
        <time>2014-10-31T12:03:18.000Z</time>
      </trkpt>
      <trkpt lat="48.71103" lon="1.73705">
        <ele>181.39999389648</ele>
        <time>2014-10-31T12:03:20.000Z</time>
      </trkpt>
      <trkpt lat="48.71112" lon="1.73697">
        <ele>181.19999694824</ele>
        <time>2014-10-31T12:03:29.000Z</time>
      </trkpt>
      <trkpt lat="48.7112" lon="1.73689">
        <ele>180.80000305176</ele>
        <time>2014-10-31T12:03:37.000Z</time>
      </trkpt>
      <trkpt lat="48.71129" lon="1.7368">
        <ele>180.60000610352</ele>
        <time>2014-10-31T12:03:46.000Z</time>
      </trkpt>
      <trkpt lat="48.71136" lon="1.73675">
        <ele>180.80000305176</ele>
        <time>2014-10-31T12:03:52.000Z</time>
      </trkpt>
      <trkpt lat="48.71144" lon="1.73668">
        <ele>181</ele>
        <time>2014-10-31T12:03:59.000Z</time>
      </trkpt>
      <trkpt lat="48.71151" lon="1.73658">
        <ele>181.39999389648</ele>
        <time>2014-10-31T12:04:07.000Z</time>
      </trkpt>
      <trkpt lat="48.71159" lon="1.73651">
        <ele>181.60000610352</ele>
        <time>2014-10-31T12:04:14.000Z</time>
      </trkpt>
      <trkpt lat="48.71166" lon="1.73644">
        <ele>181.80000305176</ele>
        <time>2014-10-31T12:04:21.000Z</time>
      </trkpt>
      <trkpt lat="48.7117" lon="1.73639">
        <ele>182</ele>
        <time>2014-10-31T12:04:25.000Z</time>
      </trkpt>
      <trkpt lat="48.71178" lon="1.73628">
        <ele>181.80000305176</ele>
        <time>2014-10-31T12:04:33.000Z</time>
      </trkpt>
      <trkpt lat="48.71183" lon="1.73625">
        <ele>181.80000305176</ele>
        <time>2014-10-31T12:04:37.000Z</time>
      </trkpt>
      <trkpt lat="48.71188" lon="1.73618">
        <ele>181.80000305176</ele>
        <time>2014-10-31T12:04:43.000Z</time>
      </trkpt>
      <trkpt lat="48.71196" lon="1.73608">
        <ele>181.39999389648</ele>
        <time>2014-10-31T12:04:52.000Z</time>
      </trkpt>
      <trkpt lat="48.71199" lon="1.73606">
        <ele>181.19999694824</ele>
        <time>2014-10-31T12:04:55.000Z</time>
      </trkpt>
      <trkpt lat="48.71211" lon="1.73612">
        <ele>181.39999389648</ele>
        <time>2014-10-31T12:05:04.000Z</time>
      </trkpt>
      <trkpt lat="48.71212" lon="1.73612">
        <ele>181.60000610352</ele>
        <time>2014-10-31T12:05:05.000Z</time>
      </trkpt>
      <trkpt lat="48.71221" lon="1.73613">
        <ele>181.60000610352</ele>
        <time>2014-10-31T12:05:12.000Z</time>
      </trkpt>
      <trkpt lat="48.71231" lon="1.73614">
        <ele>181.60000610352</ele>
        <time>2014-10-31T12:05:20.000Z</time>
      </trkpt>
      <trkpt lat="48.71235" lon="1.73615">
        <ele>181.80000305176</ele>
        <time>2014-10-31T12:05:25.000Z</time>
      </trkpt>
      <trkpt lat="48.71247" lon="1.73614">
        <ele>182.60000610352</ele>
        <time>2014-10-31T12:05:34.000Z</time>
      </trkpt>
      <trkpt lat="48.71255" lon="1.73614">
        <ele>183</ele>
        <time>2014-10-31T12:05:41.000Z</time>
      </trkpt>
      <trkpt lat="48.71263" lon="1.73611">
        <ele>183.60000610352</ele>
        <time>2014-10-31T12:05:48.000Z</time>
      </trkpt>
      <trkpt lat="48.71268" lon="1.73609">
        <ele>184</ele>
        <time>2014-10-31T12:05:52.000Z</time>
      </trkpt>
      <trkpt lat="48.71275" lon="1.73605">
        <ele>183.19999694824</ele>
        <time>2014-10-31T12:05:58.000Z</time>
      </trkpt>
      <trkpt lat="48.71281" lon="1.73596">
        <ele>182.60000610352</ele>
        <time>2014-10-31T12:06:06.000Z</time>
      </trkpt>
      <trkpt lat="48.71289" lon="1.73586">
        <ele>181.39999389648</ele>
        <time>2014-10-31T12:06:14.000Z</time>
      </trkpt>
      <trkpt lat="48.71294" lon="1.73575">
        <ele>181.19999694824</ele>
        <time>2014-10-31T12:06:22.000Z</time>
      </trkpt>
      <trkpt lat="48.71297" lon="1.73567">
        <ele>180.80000305176</ele>
        <time>2014-10-31T12:06:26.000Z</time>
      </trkpt>
      <trkpt lat="48.713" lon="1.7356">
        <ele>179.80000305176</ele>
        <time>2014-10-31T12:06:31.000Z</time>
      </trkpt>
      <trkpt lat="48.71303" lon="1.73552">
        <ele>179.19999694824</ele>
        <time>2014-10-31T12:06:36.000Z</time>
      </trkpt>
      <trkpt lat="48.71305" lon="1.73544">
        <ele>178.60000610352</ele>
        <time>2014-10-31T12:06:43.000Z</time>
      </trkpt>
      <trkpt lat="48.7131" lon="1.7354">
        <ele>177.60000610352</ele>
        <time>2014-10-31T12:06:48.000Z</time>
      </trkpt>
      <trkpt lat="48.7132" lon="1.73534">
        <ele>176.19999694824</ele>
        <time>2014-10-31T12:06:56.000Z</time>
      </trkpt>
      <trkpt lat="48.71329" lon="1.73528">
        <ele>176</ele>
        <time>2014-10-31T12:07:03.000Z</time>
      </trkpt>
      <trkpt lat="48.71338" lon="1.73526">
        <ele>175.60000610352</ele>
        <time>2014-10-31T12:07:10.000Z</time>
      </trkpt>
      <trkpt lat="48.71344" lon="1.7353">
        <ele>175</ele>
        <time>2014-10-31T12:07:16.000Z</time>
      </trkpt>
      <trkpt lat="48.71349" lon="1.73538">
        <ele>174.19999694824</ele>
        <time>2014-10-31T12:07:23.000Z</time>
      </trkpt>
      <trkpt lat="48.71353" lon="1.73541">
        <ele>173.80000305176</ele>
        <time>2014-10-31T12:07:30.000Z</time>
      </trkpt>
      <trkpt lat="48.71358" lon="1.73546">
        <ele>173</ele>
        <time>2014-10-31T12:07:36.000Z</time>
      </trkpt>
      <trkpt lat="48.71358" lon="1.73547">
        <ele>172.80000305176</ele>
        <time>2014-10-31T12:07:39.000Z</time>
      </trkpt>
      <trkpt lat="48.71375" lon="1.73563">
        <ele>169.80000305176</ele>
        <time>2014-10-31T12:07:58.000Z</time>
      </trkpt>
      <trkpt lat="48.71384" lon="1.73571">
        <ele>168.39999389648</ele>
        <time>2014-10-31T12:08:05.000Z</time>
      </trkpt>
      <trkpt lat="48.71391" lon="1.73578">
        <ele>167.19999694824</ele>
        <time>2014-10-31T12:08:13.000Z</time>
      </trkpt>
      <trkpt lat="48.71398" lon="1.73581">
        <ele>166.19999694824</ele>
        <time>2014-10-31T12:08:20.000Z</time>
      </trkpt>
      <trkpt lat="48.71404" lon="1.73578">
        <ele>165.60000610352</ele>
        <time>2014-10-31T12:08:28.000Z</time>
      </trkpt>
      <trkpt lat="48.71409" lon="1.73574">
        <ele>165.19999694824</ele>
        <time>2014-10-31T12:08:53.000Z</time>
      </trkpt>
      <trkpt lat="48.7142" lon="1.73572">
        <ele>164</ele>
        <time>2014-10-31T12:09:01.000Z</time>
      </trkpt>
      <trkpt lat="48.71426" lon="1.73571">
        <ele>163.19999694824</ele>
        <time>2014-10-31T12:09:07.000Z</time>
      </trkpt>
      <trkpt lat="48.71437" lon="1.73571">
        <ele>162</ele>
        <time>2014-10-31T12:09:16.000Z</time>
      </trkpt>
      <trkpt lat="48.71447" lon="1.73568">
        <ele>161.19999694824</ele>
        <time>2014-10-31T12:09:24.000Z</time>
      </trkpt>
      <trkpt lat="48.71453" lon="1.73565">
        <ele>160.80000305176</ele>
        <time>2014-10-31T12:09:30.000Z</time>
      </trkpt>
      <trkpt lat="48.7146" lon="1.73562">
        <ele>160.39999389648</ele>
        <time>2014-10-31T12:09:36.000Z</time>
      </trkpt>
      <trkpt lat="48.71471" lon="1.73559">
        <ele>159.80000305176</ele>
        <time>2014-10-31T12:09:45.000Z</time>
      </trkpt>
      <trkpt lat="48.71481" lon="1.73557">
        <ele>159</ele>
        <time>2014-10-31T12:09:53.000Z</time>
      </trkpt>
      <trkpt lat="48.71492" lon="1.73554">
        <ele>158.19999694824</ele>
        <time>2014-10-31T12:10:02.000Z</time>
      </trkpt>
      <trkpt lat="48.71502" lon="1.73551">
        <ele>157.39999389648</ele>
        <time>2014-10-31T12:10:10.000Z</time>
      </trkpt>
      <trkpt lat="48.71513" lon="1.7355">
        <ele>155.39999389648</ele>
        <time>2014-10-31T12:10:18.000Z</time>
      </trkpt>
      <trkpt lat="48.71525" lon="1.7355">
        <ele>153.80000305176</ele>
        <time>2014-10-31T12:10:26.000Z</time>
      </trkpt>
      <trkpt lat="48.71535" lon="1.73547">
        <ele>152.39999389648</ele>
        <time>2014-10-31T12:10:33.000Z</time>
      </trkpt>
      <trkpt lat="48.71545" lon="1.73545">
        <ele>151</ele>
        <time>2014-10-31T12:10:41.000Z</time>
      </trkpt>
      <trkpt lat="48.71555" lon="1.73542">
        <ele>149.80000305176</ele>
        <time>2014-10-31T12:10:48.000Z</time>
      </trkpt>
      <trkpt lat="48.71564" lon="1.7354">
        <ele>148.60000610352</ele>
        <time>2014-10-31T12:10:55.000Z</time>
      </trkpt>
      <trkpt lat="48.71573" lon="1.73537">
        <ele>147.60000610352</ele>
        <time>2014-10-31T12:11:03.000Z</time>
      </trkpt>
      <trkpt lat="48.71583" lon="1.73534">
        <ele>146.60000610352</ele>
        <time>2014-10-31T12:11:12.000Z</time>
      </trkpt>
      <trkpt lat="48.71593" lon="1.73533">
        <ele>145.60000610352</ele>
        <time>2014-10-31T12:11:18.000Z</time>
      </trkpt>
      <trkpt lat="48.71605" lon="1.73531">
        <ele>144.39999389648</ele>
        <time>2014-10-31T12:11:27.000Z</time>
      </trkpt>
      <trkpt lat="48.71615" lon="1.7353">
        <ele>143.80000305176</ele>
        <time>2014-10-31T12:11:34.000Z</time>
      </trkpt>
      <trkpt lat="48.71626" lon="1.73527">
        <ele>143.19999694824</ele>
        <time>2014-10-31T12:11:43.000Z</time>
      </trkpt>
      <trkpt lat="48.71635" lon="1.73522">
        <ele>142.60000610352</ele>
        <time>2014-10-31T12:11:50.000Z</time>
      </trkpt>
      <trkpt lat="48.71651" lon="1.73518">
        <ele>141.80000305176</ele>
        <time>2014-10-31T12:12:01.000Z</time>
      </trkpt>
      <trkpt lat="48.71659" lon="1.73516">
        <ele>141.39999389648</ele>
        <time>2014-10-31T12:12:08.000Z</time>
      </trkpt>
      <trkpt lat="48.71671" lon="1.73513">
        <ele>140.80000305176</ele>
        <time>2014-10-31T12:12:18.000Z</time>
      </trkpt>
      <trkpt lat="48.71681" lon="1.7351">
        <ele>140.19999694824</ele>
        <time>2014-10-31T12:12:26.000Z</time>
      </trkpt>
      <trkpt lat="48.71695" lon="1.73507">
        <ele>140</ele>
        <time>2014-10-31T12:12:37.000Z</time>
      </trkpt>
      <trkpt lat="48.71706" lon="1.73506">
        <ele>140</ele>
        <time>2014-10-31T12:12:45.000Z</time>
      </trkpt>
      <trkpt lat="48.71716" lon="1.73503">
        <ele>139.60000610352</ele>
        <time>2014-10-31T12:12:53.000Z</time>
      </trkpt>
      <trkpt lat="48.71726" lon="1.73501">
        <ele>139</ele>
        <time>2014-10-31T12:13:01.000Z</time>
      </trkpt>
      <trkpt lat="48.71738" lon="1.73498">
        <ele>138.60000610352</ele>
        <time>2014-10-31T12:13:10.000Z</time>
      </trkpt>
      <trkpt lat="48.71748" lon="1.7349">
        <ele>138</ele>
        <time>2014-10-31T12:13:18.000Z</time>
      </trkpt>
      <trkpt lat="48.71753" lon="1.73478">
        <ele>137.60000610352</ele>
        <time>2014-10-31T12:13:26.000Z</time>
      </trkpt>
      <trkpt lat="48.71751" lon="1.73465">
        <ele>137.60000610352</ele>
        <time>2014-10-31T12:13:34.000Z</time>
      </trkpt>
      <trkpt lat="48.71748" lon="1.73448">
        <ele>137.80000305176</ele>
        <time>2014-10-31T12:13:44.000Z</time>
      </trkpt>
      <trkpt lat="48.71745" lon="1.73436">
        <ele>137.80000305176</ele>
        <time>2014-10-31T12:13:51.000Z</time>
      </trkpt>
      <trkpt lat="48.71742" lon="1.73421">
        <ele>138</ele>
        <time>2014-10-31T12:13:59.000Z</time>
      </trkpt>
      <trkpt lat="48.7174" lon="1.73409">
        <ele>138</ele>
        <time>2014-10-31T12:14:06.000Z</time>
      </trkpt>
      <trkpt lat="48.71738" lon="1.73398">
        <ele>138</ele>
        <time>2014-10-31T12:14:13.000Z</time>
      </trkpt>
      <trkpt lat="48.71735" lon="1.73385">
        <ele>137.80000305176</ele>
        <time>2014-10-31T12:14:20.000Z</time>
      </trkpt>
      <trkpt lat="48.71732" lon="1.7337">
        <ele>137.60000610352</ele>
        <time>2014-10-31T12:14:28.000Z</time>
      </trkpt>
      <trkpt lat="48.71728" lon="1.73354">
        <ele>137.39999389648</ele>
        <time>2014-10-31T12:14:37.000Z</time>
      </trkpt>
      <trkpt lat="48.71726" lon="1.73344">
        <ele>137.19999694824</ele>
        <time>2014-10-31T12:14:43.000Z</time>
      </trkpt>
      <trkpt lat="48.7172" lon="1.73326">
        <ele>137</ele>
        <time>2014-10-31T12:14:52.000Z</time>
      </trkpt>
      <trkpt lat="48.71715" lon="1.73314">
        <ele>137</ele>
        <time>2014-10-31T12:14:59.000Z</time>
      </trkpt>
      <trkpt lat="48.71712" lon="1.73298">
        <ele>137.19999694824</ele>
        <time>2014-10-31T12:15:07.000Z</time>
      </trkpt>
      <trkpt lat="48.7171" lon="1.73283">
        <ele>137.19999694824</ele>
        <time>2014-10-31T12:15:14.000Z</time>
      </trkpt>
      <trkpt lat="48.71707" lon="1.73263">
        <ele>137.19999694824</ele>
        <time>2014-10-31T12:15:25.000Z</time>
      </trkpt>
      <trkpt lat="48.71705" lon="1.73249">
        <ele>137.19999694824</ele>
        <time>2014-10-31T12:15:33.000Z</time>
      </trkpt>
      <trkpt lat="48.71704" lon="1.73235">
        <ele>137.19999694824</ele>
        <time>2014-10-31T12:15:41.000Z</time>
      </trkpt>
      <trkpt lat="48.71703" lon="1.7323">
        <ele>137.19999694824</ele>
        <time>2014-10-31T12:15:44.000Z</time>
      </trkpt>
      <trkpt lat="48.71702" lon="1.73217">
        <ele>137</ele>
        <time>2014-10-31T12:15:51.000Z</time>
      </trkpt>
      <trkpt lat="48.717" lon="1.73209">
        <ele>137</ele>
        <time>2014-10-31T12:15:58.000Z</time>
      </trkpt>
      <trkpt lat="48.71696" lon="1.73156">
        <ele>136.60000610352</ele>
        <time>2014-10-31T12:16:41.000Z</time>
      </trkpt>
      <trkpt lat="48.71694" lon="1.73148">
        <ele>136.80000305176</ele>
        <time>2014-10-31T12:16:44.000Z</time>
      </trkpt>
      <trkpt lat="48.71691" lon="1.73129">
        <ele>137.39999389648</ele>
        <time>2014-10-31T12:16:52.000Z</time>
      </trkpt>
      <trkpt lat="48.71689" lon="1.73115">
        <ele>137.80000305176</ele>
        <time>2014-10-31T12:17:00.000Z</time>
      </trkpt>
      <trkpt lat="48.71684" lon="1.73098">
        <ele>138.39999389648</ele>
        <time>2014-10-31T12:17:08.000Z</time>
      </trkpt>
      <trkpt lat="48.71684" lon="1.7309">
        <ele>138.60000610352</ele>
        <time>2014-10-31T12:17:14.000Z</time>
      </trkpt>
      <trkpt lat="48.71683" lon="1.73073">
        <ele>139</ele>
        <time>2014-10-31T12:17:24.000Z</time>
      </trkpt>
      <trkpt lat="48.71681" lon="1.73056">
        <ele>139.19999694824</ele>
        <time>2014-10-31T12:17:35.000Z</time>
      </trkpt>
      <trkpt lat="48.7168" lon="1.73042">
        <ele>139</ele>
        <time>2014-10-31T12:17:43.000Z</time>
      </trkpt>
      <trkpt lat="48.7168" lon="1.73037">
        <ele>139</ele>
        <time>2014-10-31T12:17:45.000Z</time>
      </trkpt>
      <trkpt lat="48.71677" lon="1.7302">
        <ele>138.80000305176</ele>
        <time>2014-10-31T12:17:54.000Z</time>
      </trkpt>
      <trkpt lat="48.71674" lon="1.73006">
        <ele>138.80000305176</ele>
        <time>2014-10-31T12:18:01.000Z</time>
      </trkpt>
      <trkpt lat="48.71669" lon="1.72991">
        <ele>139</ele>
        <time>2014-10-31T12:18:09.000Z</time>
      </trkpt>
      <trkpt lat="48.71662" lon="1.72974">
        <ele>139</ele>
        <time>2014-10-31T12:18:17.000Z</time>
      </trkpt>
      <trkpt lat="48.71659" lon="1.7296">
        <ele>139</ele>
        <time>2014-10-31T12:18:24.000Z</time>
      </trkpt>
      <trkpt lat="48.71657" lon="1.72955">
        <ele>139</ele>
        <time>2014-10-31T12:18:27.000Z</time>
      </trkpt>
      <trkpt lat="48.7165" lon="1.72943">
        <ele>139.19999694824</ele>
        <time>2014-10-31T12:18:34.000Z</time>
      </trkpt>
      <trkpt lat="48.71642" lon="1.72929">
        <ele>139.39999389648</ele>
        <time>2014-10-31T12:18:39.000Z</time>
      </trkpt>
      <trkpt lat="48.71634" lon="1.72907">
        <ele>139.60000610352</ele>
        <time>2014-10-31T12:18:45.000Z</time>
      </trkpt>
      <trkpt lat="48.71624" lon="1.72888">
        <ele>139.80000305176</ele>
        <time>2014-10-31T12:18:51.000Z</time>
      </trkpt>
      <trkpt lat="48.71613" lon="1.72864">
        <ele>140</ele>
        <time>2014-10-31T12:18:58.000Z</time>
      </trkpt>
      <trkpt lat="48.71602" lon="1.72841">
        <ele>140.39999389648</ele>
        <time>2014-10-31T12:19:04.000Z</time>
      </trkpt>
      <trkpt lat="48.71588" lon="1.72815">
        <ele>141</ele>
        <time>2014-10-31T12:19:10.000Z</time>
      </trkpt>
      <trkpt lat="48.71577" lon="1.72794">
        <ele>142</ele>
        <time>2014-10-31T12:19:15.000Z</time>
      </trkpt>
      <trkpt lat="48.7157" lon="1.72777">
        <ele>142.60000610352</ele>
        <time>2014-10-31T12:19:20.000Z</time>
      </trkpt>
      <trkpt lat="48.71562" lon="1.72758">
        <ele>143.19999694824</ele>
        <time>2014-10-31T12:19:26.000Z</time>
      </trkpt>
      <trkpt lat="48.71549" lon="1.72732">
        <ele>144.19999694824</ele>
        <time>2014-10-31T12:19:33.000Z</time>
      </trkpt>
      <trkpt lat="48.71539" lon="1.7271">
        <ele>144.19999694824</ele>
        <time>2014-10-31T12:19:39.000Z</time>
      </trkpt>
      <trkpt lat="48.71531" lon="1.72686">
        <ele>144.19999694824</ele>
        <time>2014-10-31T12:19:45.000Z</time>
      </trkpt>
      <trkpt lat="48.7152" lon="1.72652">
        <ele>144</ele>
        <time>2014-10-31T12:19:53.000Z</time>
      </trkpt>
      <trkpt lat="48.71511" lon="1.72621">
        <ele>143.80000305176</ele>
        <time>2014-10-31T12:20:00.000Z</time>
      </trkpt>
      <trkpt lat="48.71506" lon="1.72583">
        <ele>143.19999694824</ele>
        <time>2014-10-31T12:20:08.000Z</time>
      </trkpt>
      <trkpt lat="48.71503" lon="1.72552">
        <ele>142.80000305176</ele>
        <time>2014-10-31T12:20:15.000Z</time>
      </trkpt>
      <trkpt lat="48.715" lon="1.72525">
        <ele>142.60000610352</ele>
        <time>2014-10-31T12:20:21.000Z</time>
      </trkpt>
      <trkpt lat="48.71497" lon="1.72492">
        <ele>142.39999389648</ele>
        <time>2014-10-31T12:20:28.000Z</time>
      </trkpt>
      <trkpt lat="48.71494" lon="1.72458">
        <ele>141.80000305176</ele>
        <time>2014-10-31T12:20:35.000Z</time>
      </trkpt>
      <trkpt lat="48.71492" lon="1.72427">
        <ele>141.19999694824</ele>
        <time>2014-10-31T12:20:41.000Z</time>
      </trkpt>
      <trkpt lat="48.7149" lon="1.72406">
        <ele>140.80000305176</ele>
        <time>2014-10-31T12:20:46.000Z</time>
      </trkpt>
      <trkpt lat="48.71489" lon="1.72386">
        <ele>140.39999389648</ele>
        <time>2014-10-31T12:20:51.000Z</time>
      </trkpt>
      <trkpt lat="48.71491" lon="1.72358">
        <ele>139.80000305176</ele>
        <time>2014-10-31T12:20:57.000Z</time>
      </trkpt>
      <trkpt lat="48.71492" lon="1.72334">
        <ele>139.60000610352</ele>
        <time>2014-10-31T12:21:02.000Z</time>
      </trkpt>
      <trkpt lat="48.71489" lon="1.72307">
        <ele>139.60000610352</ele>
        <time>2014-10-31T12:21:07.000Z</time>
      </trkpt>
      <trkpt lat="48.71486" lon="1.72282">
        <ele>140</ele>
        <time>2014-10-31T12:21:12.000Z</time>
      </trkpt>
      <trkpt lat="48.71482" lon="1.72261">
        <ele>140</ele>
        <time>2014-10-31T12:21:17.000Z</time>
      </trkpt>
      <trkpt lat="48.71477" lon="1.72242">
        <ele>140.19999694824</ele>
        <time>2014-10-31T12:21:22.000Z</time>
      </trkpt>
      <trkpt lat="48.71471" lon="1.72225">
        <ele>141.19999694824</ele>
        <time>2014-10-31T12:21:27.000Z</time>
      </trkpt>
      <trkpt lat="48.71463" lon="1.72207">
        <ele>142.60000610352</ele>
        <time>2014-10-31T12:21:31.000Z</time>
      </trkpt>
      <trkpt lat="48.71449" lon="1.72191">
        <ele>144.39999389648</ele>
        <time>2014-10-31T12:21:37.000Z</time>
      </trkpt>
      <trkpt lat="48.71436" lon="1.72172">
        <ele>146.19999694824</ele>
        <time>2014-10-31T12:21:44.000Z</time>
      </trkpt>
      <trkpt lat="48.71433" lon="1.72156">
        <ele>147.60000610352</ele>
        <time>2014-10-31T12:21:48.000Z</time>
      </trkpt>
      <trkpt lat="48.71433" lon="1.72136">
        <ele>146.80000305176</ele>
        <time>2014-10-31T12:21:53.000Z</time>
      </trkpt>
      <trkpt lat="48.71428" lon="1.72122">
        <ele>146.60000610352</ele>
        <time>2014-10-31T12:21:58.000Z</time>
      </trkpt>
      <trkpt lat="48.71425" lon="1.72111">
        <ele>146.60000610352</ele>
        <time>2014-10-31T12:22:04.000Z</time>
      </trkpt>
      <trkpt lat="48.71421" lon="1.721">
        <ele>146.60000610352</ele>
        <time>2014-10-31T12:22:10.000Z</time>
      </trkpt>
      <trkpt lat="48.71421" lon="1.72098">
        <ele>146.60000610352</ele>
        <time>2014-10-31T12:22:11.000Z</time>
      </trkpt>
      <trkpt lat="48.71419" lon="1.72095">
        <ele>146.60000610352</ele>
        <time>2014-10-31T12:22:13.000Z</time>
      </trkpt>
      <trkpt lat="48.71419" lon="1.72092">
        <ele>146.60000610352</ele>
        <time>2014-10-31T12:22:17.000Z</time>
      </trkpt>
      <trkpt lat="48.71418" lon="1.72083">
        <ele>146.39999389648</ele>
        <time>2014-10-31T12:22:25.000Z</time>
      </trkpt>
      <trkpt lat="48.71412" lon="1.72068">
        <ele>146.39999389648</ele>
        <time>2014-10-31T12:22:29.000Z</time>
      </trkpt>
      <trkpt lat="48.71402" lon="1.72051">
        <ele>146.39999389648</ele>
        <time>2014-10-31T12:22:34.000Z</time>
      </trkpt>
      <trkpt lat="48.71389" lon="1.72035">
        <ele>147</ele>
        <time>2014-10-31T12:22:40.000Z</time>
      </trkpt>
      <trkpt lat="48.71372" lon="1.72018">
        <ele>148</ele>
        <time>2014-10-31T12:22:46.000Z</time>
      </trkpt>
      <trkpt lat="48.71347" lon="1.71995">
        <ele>149.19999694824</ele>
        <time>2014-10-31T12:22:54.000Z</time>
      </trkpt>
      <trkpt lat="48.71328" lon="1.71972">
        <ele>150.80000305176</ele>
        <time>2014-10-31T12:23:01.000Z</time>
      </trkpt>
      <trkpt lat="48.71316" lon="1.71955">
        <ele>152.39999389648</ele>
        <time>2014-10-31T12:23:06.000Z</time>
      </trkpt>
      <trkpt lat="48.71315" lon="1.71932">
        <ele>152.60000610352</ele>
        <time>2014-10-31T12:23:11.000Z</time>
      </trkpt>
      <trkpt lat="48.71318" lon="1.71904">
        <ele>152.19999694824</ele>
        <time>2014-10-31T12:23:17.000Z</time>
      </trkpt>
      <trkpt lat="48.71319" lon="1.71879">
        <ele>153</ele>
        <time>2014-10-31T12:23:22.000Z</time>
      </trkpt>
      <trkpt lat="48.7132" lon="1.71874">
        <ele>153.19999694824</ele>
        <time>2014-10-31T12:23:23.000Z</time>
      </trkpt>
      <trkpt lat="48.71328" lon="1.7185">
        <ele>152.60000610352</ele>
        <time>2014-10-31T12:23:30.000Z</time>
      </trkpt>
      <trkpt lat="48.71328" lon="1.71829">
        <ele>153.19999694824</ele>
        <time>2014-10-31T12:23:35.000Z</time>
      </trkpt>
      <trkpt lat="48.71326" lon="1.71794">
        <ele>151.39999389648</ele>
        <time>2014-10-31T12:23:43.000Z</time>
      </trkpt>
      <trkpt lat="48.71321" lon="1.71758">
        <ele>150.39999389648</ele>
        <time>2014-10-31T12:23:51.000Z</time>
      </trkpt>
      <trkpt lat="48.7132" lon="1.71707">
        <ele>148.39999389648</ele>
        <time>2014-10-31T12:24:02.000Z</time>
      </trkpt>
      <trkpt lat="48.7132" lon="1.7167">
        <ele>147.80000305176</ele>
        <time>2014-10-31T12:24:10.000Z</time>
      </trkpt>
      <trkpt lat="48.71318" lon="1.71642">
        <ele>147.39999389648</ele>
        <time>2014-10-31T12:24:17.000Z</time>
      </trkpt>
      <trkpt lat="48.71314" lon="1.71619">
        <ele>147</ele>
        <time>2014-10-31T12:24:22.000Z</time>
      </trkpt>
      <trkpt lat="48.71316" lon="1.7159">
        <ele>146</ele>
        <time>2014-10-31T12:24:28.000Z</time>
      </trkpt>
      <trkpt lat="48.71315" lon="1.7155">
        <ele>144.80000305176</ele>
        <time>2014-10-31T12:24:36.000Z</time>
      </trkpt>
      <trkpt lat="48.71315" lon="1.71521">
        <ele>144.19999694824</ele>
        <time>2014-10-31T12:24:42.000Z</time>
      </trkpt>
      <trkpt lat="48.71314" lon="1.7149">
        <ele>144</ele>
        <time>2014-10-31T12:24:48.000Z</time>
      </trkpt>
      <trkpt lat="48.71306" lon="1.71458">
        <ele>144.19999694824</ele>
        <time>2014-10-31T12:24:55.000Z</time>
      </trkpt>
      <trkpt lat="48.71299" lon="1.71429">
        <ele>144.60000610352</ele>
        <time>2014-10-31T12:25:01.000Z</time>
      </trkpt>
      <trkpt lat="48.71297" lon="1.71395">
        <ele>144.19999694824</ele>
        <time>2014-10-31T12:25:08.000Z</time>
      </trkpt>
      <trkpt lat="48.71292" lon="1.71351">
        <ele>143.39999389648</ele>
        <time>2014-10-31T12:25:17.000Z</time>
      </trkpt>
      <trkpt lat="48.71288" lon="1.71327">
        <ele>143.19999694824</ele>
        <time>2014-10-31T12:25:22.000Z</time>
      </trkpt>
      <trkpt lat="48.71283" lon="1.71291">
        <ele>142.80000305176</ele>
        <time>2014-10-31T12:25:29.000Z</time>
      </trkpt>
      <trkpt lat="48.71276" lon="1.71256">
        <ele>142.19999694824</ele>
        <time>2014-10-31T12:25:36.000Z</time>
      </trkpt>
      <trkpt lat="48.71276" lon="1.71241">
        <ele>141.80000305176</ele>
        <time>2014-10-31T12:25:41.000Z</time>
      </trkpt>
      <trkpt lat="48.71276" lon="1.71232">
        <ele>141.80000305176</ele>
        <time>2014-10-31T12:25:45.000Z</time>
      </trkpt>
      <trkpt lat="48.71276" lon="1.71211">
        <ele>141.80000305176</ele>
        <time>2014-10-31T12:25:55.000Z</time>
      </trkpt>
      <trkpt lat="48.71273" lon="1.71191">
        <ele>142</ele>
        <time>2014-10-31T12:26:03.000Z</time>
      </trkpt>
      <trkpt lat="48.71273" lon="1.71178">
        <ele>142</ele>
        <time>2014-10-31T12:26:09.000Z</time>
      </trkpt>
      <trkpt lat="48.71271" lon="1.7116">
        <ele>142</ele>
        <time>2014-10-31T12:26:18.000Z</time>
      </trkpt>
      <trkpt lat="48.71268" lon="1.71145">
        <ele>142.19999694824</ele>
        <time>2014-10-31T12:26:26.000Z</time>
      </trkpt>
      <trkpt lat="48.71265" lon="1.71137">
        <ele>142.39999389648</ele>
        <time>2014-10-31T12:26:31.000Z</time>
      </trkpt>
      <trkpt lat="48.71262" lon="1.71124">
        <ele>142.60000610352</ele>
        <time>2014-10-31T12:26:39.000Z</time>
      </trkpt>
      <trkpt lat="48.71255" lon="1.71109">
        <ele>143</ele>
        <time>2014-10-31T12:26:47.000Z</time>
      </trkpt>
      <trkpt lat="48.71247" lon="1.71093">
        <ele>143.80000305176</ele>
        <time>2014-10-31T12:26:56.000Z</time>
      </trkpt>
      <trkpt lat="48.71242" lon="1.71079">
        <ele>144.19999694824</ele>
        <time>2014-10-31T12:27:04.000Z</time>
      </trkpt>
      <trkpt lat="48.71238" lon="1.7107">
        <ele>144.39999389648</ele>
        <time>2014-10-31T12:27:10.000Z</time>
      </trkpt>
      <trkpt lat="48.71232" lon="1.71059">
        <ele>145</ele>
        <time>2014-10-31T12:27:17.000Z</time>
      </trkpt>
      <trkpt lat="48.71225" lon="1.71044">
        <ele>145.60000610352</ele>
        <time>2014-10-31T12:27:25.000Z</time>
      </trkpt>
      <trkpt lat="48.71219" lon="1.7103">
        <ele>146</ele>
        <time>2014-10-31T12:27:32.000Z</time>
      </trkpt>
      <trkpt lat="48.71215" lon="1.71015">
        <ele>146.39999389648</ele>
        <time>2014-10-31T12:27:39.000Z</time>
      </trkpt>
      <trkpt lat="48.71214" lon="1.71012">
        <ele>146.39999389648</ele>
        <time>2014-10-31T12:27:40.000Z</time>
      </trkpt>
      <trkpt lat="48.71214" lon="1.71006">
        <ele>146.60000610352</ele>
        <time>2014-10-31T12:27:44.000Z</time>
      </trkpt>
      <trkpt lat="48.71215" lon="1.70998">
        <ele>146.80000305176</ele>
        <time>2014-10-31T12:27:48.000Z</time>
      </trkpt>
      <trkpt lat="48.71216" lon="1.7099">
        <ele>146.80000305176</ele>
        <time>2014-10-31T12:27:52.000Z</time>
      </trkpt>
      <trkpt lat="48.71214" lon="1.70974">
        <ele>147.39999389648</ele>
        <time>2014-10-31T12:28:00.000Z</time>
      </trkpt>
      <trkpt lat="48.71214" lon="1.70972">
        <ele>147.39999389648</ele>
        <time>2014-10-31T12:28:01.000Z</time>
      </trkpt>
      <trkpt lat="48.7121" lon="1.70954">
        <ele>148.19999694824</ele>
        <time>2014-10-31T12:28:08.000Z</time>
      </trkpt>
      <trkpt lat="48.71211" lon="1.70943">
        <ele>148.19999694824</ele>
        <time>2014-10-31T12:28:14.000Z</time>
      </trkpt>
      <trkpt lat="48.71213" lon="1.7093">
        <ele>148.39999389648</ele>
        <time>2014-10-31T12:28:20.000Z</time>
      </trkpt>
      <trkpt lat="48.71212" lon="1.70916">
        <ele>148.60000610352</ele>
        <time>2014-10-31T12:28:27.000Z</time>
      </trkpt>
      <trkpt lat="48.71214" lon="1.70899">
        <ele>148.60000610352</ele>
        <time>2014-10-31T12:28:35.000Z</time>
      </trkpt>
      <trkpt lat="48.71211" lon="1.70887">
        <ele>149.39999389648</ele>
        <time>2014-10-31T12:28:39.000Z</time>
      </trkpt>
      <trkpt lat="48.71212" lon="1.70874">
        <ele>150</ele>
        <time>2014-10-31T12:28:45.000Z</time>
      </trkpt>
      <trkpt lat="48.71213" lon="1.70863">
        <ele>150.39999389648</ele>
        <time>2014-10-31T12:28:50.000Z</time>
      </trkpt>
      <trkpt lat="48.71213" lon="1.70852">
        <ele>151</ele>
        <time>2014-10-31T12:28:55.000Z</time>
      </trkpt>
      <trkpt lat="48.71213" lon="1.7085">
        <ele>151</ele>
        <time>2014-10-31T12:28:56.000Z</time>
      </trkpt>
      <trkpt lat="48.71217" lon="1.70835">
        <ele>151.39999389648</ele>
        <time>2014-10-31T12:29:04.000Z</time>
      </trkpt>
      <trkpt lat="48.7122" lon="1.70822">
        <ele>151.60000610352</ele>
        <time>2014-10-31T12:29:11.000Z</time>
      </trkpt>
      <trkpt lat="48.71221" lon="1.7082">
        <ele>151.80000305176</ele>
        <time>2014-10-31T12:29:12.000Z</time>
      </trkpt>
      <trkpt lat="48.71222" lon="1.70805">
        <ele>151.19999694824</ele>
        <time>2014-10-31T12:29:21.000Z</time>
      </trkpt>
      <trkpt lat="48.71222" lon="1.70793">
        <ele>151</ele>
        <time>2014-10-31T12:29:29.000Z</time>
      </trkpt>
      <trkpt lat="48.71222" lon="1.70783">
        <ele>150.80000305176</ele>
        <time>2014-10-31T12:29:36.000Z</time>
      </trkpt>
      <trkpt lat="48.71224" lon="1.70774">
        <ele>150.39999389648</ele>
        <time>2014-10-31T12:29:42.000Z</time>
      </trkpt>
      <trkpt lat="48.71224" lon="1.70762">
        <ele>150.19999694824</ele>
        <time>2014-10-31T12:29:49.000Z</time>
      </trkpt>
      <trkpt lat="48.71223" lon="1.70742">
        <ele>150.39999389648</ele>
        <time>2014-10-31T12:29:57.000Z</time>
      </trkpt>
      <trkpt lat="48.71223" lon="1.70738">
        <ele>150.39999389648</ele>
        <time>2014-10-31T12:29:59.000Z</time>
      </trkpt>
      <trkpt lat="48.71223" lon="1.70722">
        <ele>150.39999389648</ele>
        <time>2014-10-31T12:30:07.000Z</time>
      </trkpt>
      <trkpt lat="48.71223" lon="1.70718">
        <ele>150.39999389648</ele>
        <time>2014-10-31T12:30:09.000Z</time>
      </trkpt>
      <trkpt lat="48.71225" lon="1.707">
        <ele>150.19999694824</ele>
        <time>2014-10-31T12:30:19.000Z</time>
      </trkpt>
      <trkpt lat="48.71226" lon="1.70689">
        <ele>150.19999694824</ele>
        <time>2014-10-31T12:30:24.000Z</time>
      </trkpt>
      <trkpt lat="48.71226" lon="1.70672">
        <ele>150.19999694824</ele>
        <time>2014-10-31T12:30:33.000Z</time>
      </trkpt>
      <trkpt lat="48.71225" lon="1.7066">
        <ele>150.19999694824</ele>
        <time>2014-10-31T12:30:40.000Z</time>
      </trkpt>
      <trkpt lat="48.71224" lon="1.70644">
        <ele>150.39999389648</ele>
        <time>2014-10-31T12:30:48.000Z</time>
      </trkpt>
      <trkpt lat="48.71221" lon="1.70627">
        <ele>150.60000610352</ele>
        <time>2014-10-31T12:30:57.000Z</time>
      </trkpt>
      <trkpt lat="48.71216" lon="1.70608">
        <ele>151</ele>
        <time>2014-10-31T12:31:05.000Z</time>
      </trkpt>
      <trkpt lat="48.71215" lon="1.70599">
        <ele>151</ele>
        <time>2014-10-31T12:31:11.000Z</time>
      </trkpt>
      <trkpt lat="48.71212" lon="1.70592">
        <ele>151.19999694824</ele>
        <time>2014-10-31T12:31:15.000Z</time>
      </trkpt>
      <trkpt lat="48.71207" lon="1.70575">
        <ele>151.39999389648</ele>
        <time>2014-10-31T12:31:24.000Z</time>
      </trkpt>
      <trkpt lat="48.71205" lon="1.70563">
        <ele>151.19999694824</ele>
        <time>2014-10-31T12:31:30.000Z</time>
      </trkpt>
      <trkpt lat="48.71202" lon="1.70555">
        <ele>151.19999694824</ele>
        <time>2014-10-31T12:31:35.000Z</time>
      </trkpt>
      <trkpt lat="48.71202" lon="1.70553">
        <ele>151.19999694824</ele>
        <time>2014-10-31T12:31:39.000Z</time>
      </trkpt>
      <trkpt lat="48.712" lon="1.7055">
        <ele>151.19999694824</ele>
        <time>2014-10-31T12:31:44.000Z</time>
      </trkpt>
      <trkpt lat="48.71198" lon="1.70531">
        <ele>150.60000610352</ele>
        <time>2014-10-31T12:31:51.000Z</time>
      </trkpt>
      <trkpt lat="48.71197" lon="1.70519">
        <ele>150.19999694824</ele>
        <time>2014-10-31T12:31:58.000Z</time>
      </trkpt>
      <trkpt lat="48.71197" lon="1.70509">
        <ele>150</ele>
        <time>2014-10-31T12:32:03.000Z</time>
      </trkpt>
      <trkpt lat="48.71195" lon="1.70498">
        <ele>149.60000610352</ele>
        <time>2014-10-31T12:32:10.000Z</time>
      </trkpt>
      <trkpt lat="48.7119" lon="1.70486">
        <ele>149.80000305176</ele>
        <time>2014-10-31T12:32:17.000Z</time>
      </trkpt>
      <trkpt lat="48.71183" lon="1.70475">
        <ele>149.19999694824</ele>
        <time>2014-10-31T12:32:24.000Z</time>
      </trkpt>
      <trkpt lat="48.7118" lon="1.70466">
        <ele>148.60000610352</ele>
        <time>2014-10-31T12:32:30.000Z</time>
      </trkpt>
      <trkpt lat="48.71178" lon="1.70456">
        <ele>148</ele>
        <time>2014-10-31T12:32:36.000Z</time>
      </trkpt>
      <trkpt lat="48.71174" lon="1.70443">
        <ele>147.19999694824</ele>
        <time>2014-10-31T12:32:43.000Z</time>
      </trkpt>
      <trkpt lat="48.71168" lon="1.7043">
        <ele>146.39999389648</ele>
        <time>2014-10-31T12:32:52.000Z</time>
      </trkpt>
      <trkpt lat="48.71164" lon="1.70412">
        <ele>145.19999694824</ele>
        <time>2014-10-31T12:33:01.000Z</time>
      </trkpt>
      <trkpt lat="48.71163" lon="1.704">
        <ele>145</ele>
        <time>2014-10-31T12:33:08.000Z</time>
      </trkpt>
      <trkpt lat="48.71163" lon="1.70398">
        <ele>145</ele>
        <time>2014-10-31T12:33:09.000Z</time>
      </trkpt>
      <trkpt lat="48.71164" lon="1.70386">
        <ele>145.80000305176</ele>
        <time>2014-10-31T12:33:16.000Z</time>
      </trkpt>
      <trkpt lat="48.71166" lon="1.7037">
        <ele>146</ele>
        <time>2014-10-31T12:33:24.000Z</time>
      </trkpt>
      <trkpt lat="48.71166" lon="1.70369">
        <ele>146</ele>
        <time>2014-10-31T12:33:25.000Z</time>
      </trkpt>
      <trkpt lat="48.71167" lon="1.70355">
        <ele>146</ele>
        <time>2014-10-31T12:33:32.000Z</time>
      </trkpt>
      <trkpt lat="48.71169" lon="1.70349">
        <ele>145.80000305176</ele>
        <time>2014-10-31T12:33:36.000Z</time>
      </trkpt>
      <trkpt lat="48.71171" lon="1.70342">
        <ele>145.80000305176</ele>
        <time>2014-10-31T12:33:40.000Z</time>
      </trkpt>
      <trkpt lat="48.7117" lon="1.70326">
        <ele>145.80000305176</ele>
        <time>2014-10-31T12:33:47.000Z</time>
      </trkpt>
      <trkpt lat="48.7117" lon="1.70316">
        <ele>146</ele>
        <time>2014-10-31T12:33:51.000Z</time>
      </trkpt>
      <trkpt lat="48.7117" lon="1.70314">
        <ele>146</ele>
        <time>2014-10-31T12:33:52.000Z</time>
      </trkpt>
      <trkpt lat="48.71171" lon="1.70306">
        <ele>146.19999694824</ele>
        <time>2014-10-31T12:33:56.000Z</time>
      </trkpt>
      <trkpt lat="48.7117" lon="1.70292">
        <ele>146.60000610352</ele>
        <time>2014-10-31T12:34:01.000Z</time>
      </trkpt>
      <trkpt lat="48.71173" lon="1.70283">
        <ele>146.80000305176</ele>
        <time>2014-10-31T12:34:06.000Z</time>
      </trkpt>
      <trkpt lat="48.71178" lon="1.70271">
        <ele>146.80000305176</ele>
        <time>2014-10-31T12:34:13.000Z</time>
      </trkpt>
      <trkpt lat="48.71181" lon="1.70255">
        <ele>146.80000305176</ele>
        <time>2014-10-31T12:34:22.000Z</time>
      </trkpt>
      <trkpt lat="48.71182" lon="1.70254">
        <ele>146.80000305176</ele>
        <time>2014-10-31T12:34:23.000Z</time>
      </trkpt>
      <trkpt lat="48.71183" lon="1.70247">
        <ele>147</ele>
        <time>2014-10-31T12:34:27.000Z</time>
      </trkpt>
      <trkpt lat="48.71187" lon="1.70238">
        <ele>147</ele>
        <time>2014-10-31T12:34:33.000Z</time>
      </trkpt>
      <trkpt lat="48.71188" lon="1.70224">
        <ele>147</ele>
        <time>2014-10-31T12:34:39.000Z</time>
      </trkpt>
      <trkpt lat="48.7119" lon="1.70219">
        <ele>146.80000305176</ele>
        <time>2014-10-31T12:34:42.000Z</time>
      </trkpt>
      <trkpt lat="48.71196" lon="1.70204">
        <ele>146.39999389648</ele>
        <time>2014-10-31T12:34:50.000Z</time>
      </trkpt>
      <trkpt lat="48.71201" lon="1.70184">
        <ele>146</ele>
        <time>2014-10-31T12:35:00.000Z</time>
      </trkpt>
      <trkpt lat="48.71204" lon="1.70173">
        <ele>146</ele>
        <time>2014-10-31T12:35:06.000Z</time>
      </trkpt>
      <trkpt lat="48.71205" lon="1.70157">
        <ele>146</ele>
        <time>2014-10-31T12:35:13.000Z</time>
      </trkpt>
      <trkpt lat="48.71205" lon="1.70135">
        <ele>146.19999694824</ele>
        <time>2014-10-31T12:35:21.000Z</time>
      </trkpt>
      <trkpt lat="48.71207" lon="1.70126">
        <ele>146.19999694824</ele>
        <time>2014-10-31T12:35:26.000Z</time>
      </trkpt>
      <trkpt lat="48.7121" lon="1.70108">
        <ele>146</ele>
        <time>2014-10-31T12:35:35.000Z</time>
      </trkpt>
      <trkpt lat="48.71213" lon="1.70093">
        <ele>146</ele>
        <time>2014-10-31T12:35:43.000Z</time>
      </trkpt>
      <trkpt lat="48.71213" lon="1.70091">
        <ele>146</ele>
        <time>2014-10-31T12:35:44.000Z</time>
      </trkpt>
      <trkpt lat="48.71216" lon="1.70076">
        <ele>146.39999389648</ele>
        <time>2014-10-31T12:35:51.000Z</time>
      </trkpt>
      <trkpt lat="48.71218" lon="1.70059">
        <ele>146.60000610352</ele>
        <time>2014-10-31T12:35:59.000Z</time>
      </trkpt>
      <trkpt lat="48.71222" lon="1.70046">
        <ele>146.39999389648</ele>
        <time>2014-10-31T12:36:06.000Z</time>
      </trkpt>
      <trkpt lat="48.71228" lon="1.70027">
        <ele>146</ele>
        <time>2014-10-31T12:36:17.000Z</time>
      </trkpt>
      <trkpt lat="48.7123" lon="1.70015">
        <ele>146.39999389648</ele>
        <time>2014-10-31T12:36:24.000Z</time>
      </trkpt>
      <trkpt lat="48.71235" lon="1.70003">
        <ele>146.60000610352</ele>
        <time>2014-10-31T12:36:32.000Z</time>
      </trkpt>
      <trkpt lat="48.71235" lon="1.70002">
        <ele>146.60000610352</ele>
        <time>2014-10-31T12:36:33.000Z</time>
      </trkpt>
      <trkpt lat="48.71238" lon="1.69989">
        <ele>146.80000305176</ele>
        <time>2014-10-31T12:36:42.000Z</time>
      </trkpt>
      <trkpt lat="48.71239" lon="1.69971">
        <ele>146.80000305176</ele>
        <time>2014-10-31T12:36:51.000Z</time>
      </trkpt>
      <trkpt lat="48.71238" lon="1.69957">
        <ele>147</ele>
        <time>2014-10-31T12:36:59.000Z</time>
      </trkpt>
      <trkpt lat="48.71238" lon="1.69955">
        <ele>147</ele>
        <time>2014-10-31T12:37:00.000Z</time>
      </trkpt>
      <trkpt lat="48.71238" lon="1.69935">
        <ele>147.19999694824</ele>
        <time>2014-10-31T12:37:06.000Z</time>
      </trkpt>
      <trkpt lat="48.7124" lon="1.69895">
        <ele>147.39999389648</ele>
        <time>2014-10-31T12:37:14.000Z</time>
      </trkpt>
      <trkpt lat="48.7124" lon="1.69864">
        <ele>147.60000610352</ele>
        <time>2014-10-31T12:37:20.000Z</time>
      </trkpt>
      <trkpt lat="48.71242" lon="1.69838">
        <ele>147.80000305176</ele>
        <time>2014-10-31T12:37:25.000Z</time>
      </trkpt>
      <trkpt lat="48.71246" lon="1.69812">
        <ele>147.80000305176</ele>
        <time>2014-10-31T12:37:30.000Z</time>
      </trkpt>
      <trkpt lat="48.71252" lon="1.69777">
        <ele>147.80000305176</ele>
        <time>2014-10-31T12:37:37.000Z</time>
      </trkpt>
      <trkpt lat="48.71258" lon="1.69737">
        <ele>148.19999694824</ele>
        <time>2014-10-31T12:37:45.000Z</time>
      </trkpt>
      <trkpt lat="48.71263" lon="1.69697">
        <ele>149.80000305176</ele>
        <time>2014-10-31T12:37:54.000Z</time>
      </trkpt>
      <trkpt lat="48.71264" lon="1.6968">
        <ele>150.39999389648</ele>
        <time>2014-10-31T12:38:01.000Z</time>
      </trkpt>
      <trkpt lat="48.71265" lon="1.69667">
        <ele>150.80000305176</ele>
        <time>2014-10-31T12:38:08.000Z</time>
      </trkpt>
      <trkpt lat="48.71267" lon="1.69661">
        <ele>151</ele>
        <time>2014-10-31T12:38:12.000Z</time>
      </trkpt>
      <trkpt lat="48.71273" lon="1.69649">
        <ele>151</ele>
        <time>2014-10-31T12:38:20.000Z</time>
      </trkpt>
      <trkpt lat="48.71277" lon="1.69638">
        <ele>151.39999389648</ele>
        <time>2014-10-31T12:38:27.000Z</time>
      </trkpt>
      <trkpt lat="48.7128" lon="1.69624">
        <ele>151.60000610352</ele>
        <time>2014-10-31T12:38:35.000Z</time>
      </trkpt>
      <trkpt lat="48.71281" lon="1.69621">
        <ele>151.80000305176</ele>
        <time>2014-10-31T12:38:37.000Z</time>
      </trkpt>
      <trkpt lat="48.71282" lon="1.69609">
        <ele>152.19999694824</ele>
        <time>2014-10-31T12:38:44.000Z</time>
      </trkpt>
      <trkpt lat="48.71283" lon="1.69608">
        <ele>152.19999694824</ele>
        <time>2014-10-31T12:38:45.000Z</time>
      </trkpt>
      <trkpt lat="48.71284" lon="1.69592">
        <ele>152.60000610352</ele>
        <time>2014-10-31T12:38:54.000Z</time>
      </trkpt>
      <trkpt lat="48.71286" lon="1.69572">
        <ele>153</ele>
        <time>2014-10-31T12:39:04.000Z</time>
      </trkpt>
      <trkpt lat="48.71288" lon="1.69564">
        <ele>152.80000305176</ele>
        <time>2014-10-31T12:39:09.000Z</time>
      </trkpt>
      <trkpt lat="48.71289" lon="1.69551">
        <ele>152.39999389648</ele>
        <time>2014-10-31T12:39:15.000Z</time>
      </trkpt>
      <trkpt lat="48.71291" lon="1.69534">
        <ele>152</ele>
        <time>2014-10-31T12:39:24.000Z</time>
      </trkpt>
      <trkpt lat="48.71291" lon="1.69517">
        <ele>151.39999389648</ele>
        <time>2014-10-31T12:39:33.000Z</time>
      </trkpt>
      <trkpt lat="48.71294" lon="1.69502">
        <ele>150.80000305176</ele>
        <time>2014-10-31T12:39:40.000Z</time>
      </trkpt>
      <trkpt lat="48.71296" lon="1.6949">
        <ele>150</ele>
        <time>2014-10-31T12:39:47.000Z</time>
      </trkpt>
      <trkpt lat="48.71298" lon="1.69472">
        <ele>148.39999389648</ele>
        <time>2014-10-31T12:39:55.000Z</time>
      </trkpt>
      <trkpt lat="48.713" lon="1.69454">
        <ele>146.80000305176</ele>
        <time>2014-10-31T12:40:02.000Z</time>
      </trkpt>
      <trkpt lat="48.71302" lon="1.69447">
        <ele>146</ele>
        <time>2014-10-31T12:40:05.000Z</time>
      </trkpt>
      <trkpt lat="48.71302" lon="1.69435">
        <ele>145</ele>
        <time>2014-10-31T12:40:11.000Z</time>
      </trkpt>
      <trkpt lat="48.71305" lon="1.69428">
        <ele>144.60000610352</ele>
        <time>2014-10-31T12:40:15.000Z</time>
      </trkpt>
      <trkpt lat="48.71309" lon="1.69411">
        <ele>143.60000610352</ele>
        <time>2014-10-31T12:40:24.000Z</time>
      </trkpt>
      <trkpt lat="48.71309" lon="1.69409">
        <ele>143.39999389648</ele>
        <time>2014-10-31T12:40:25.000Z</time>
      </trkpt>
      <trkpt lat="48.71312" lon="1.69401">
        <ele>143</ele>
        <time>2014-10-31T12:40:30.000Z</time>
      </trkpt>
      <trkpt lat="48.71316" lon="1.69384">
        <ele>142.60000610352</ele>
        <time>2014-10-31T12:40:38.000Z</time>
      </trkpt>
      <trkpt lat="48.71316" lon="1.69366">
        <ele>142.39999389648</ele>
        <time>2014-10-31T12:40:45.000Z</time>
      </trkpt>
      <trkpt lat="48.71317" lon="1.69353">
        <ele>141.60000610352</ele>
        <time>2014-10-31T12:40:51.000Z</time>
      </trkpt>
      <trkpt lat="48.71319" lon="1.69337">
        <ele>140.80000305176</ele>
        <time>2014-10-31T12:40:58.000Z</time>
      </trkpt>
      <trkpt lat="48.71322" lon="1.69329">
        <ele>140.19999694824</ele>
        <time>2014-10-31T12:41:02.000Z</time>
      </trkpt>
      <trkpt lat="48.71323" lon="1.69316">
        <ele>139.60000610352</ele>
        <time>2014-10-31T12:41:09.000Z</time>
      </trkpt>
      <trkpt lat="48.71325" lon="1.69307">
        <ele>139.19999694824</ele>
        <time>2014-10-31T12:41:14.000Z</time>
      </trkpt>
      <trkpt lat="48.7133" lon="1.69295">
        <ele>138.80000305176</ele>
        <time>2014-10-31T12:41:21.000Z</time>
      </trkpt>
      <trkpt lat="48.71332" lon="1.69287">
        <ele>138.80000305176</ele>
        <time>2014-10-31T12:41:26.000Z</time>
      </trkpt>
      <trkpt lat="48.71336" lon="1.6928">
        <ele>138.80000305176</ele>
        <time>2014-10-31T12:41:32.000Z</time>
      </trkpt>
      <trkpt lat="48.71338" lon="1.69277">
        <ele>138.80000305176</ele>
        <time>2014-10-31T12:41:35.000Z</time>
      </trkpt>
      <trkpt lat="48.71339" lon="1.6927">
        <ele>138.80000305176</ele>
        <time>2014-10-31T12:41:39.000Z</time>
      </trkpt>
      <trkpt lat="48.7134" lon="1.69258">
        <ele>139.19999694824</ele>
        <time>2014-10-31T12:41:45.000Z</time>
      </trkpt>
      <trkpt lat="48.71339" lon="1.69225">
        <ele>139.60000610352</ele>
        <time>2014-10-31T12:41:56.000Z</time>
      </trkpt>
      <trkpt lat="48.71335" lon="1.69207">
        <ele>139.60000610352</ele>
        <time>2014-10-31T12:42:03.000Z</time>
      </trkpt>
      <trkpt lat="48.71334" lon="1.69204">
        <ele>139.60000610352</ele>
        <time>2014-10-31T12:42:05.000Z</time>
      </trkpt>
      <trkpt lat="48.71335" lon="1.69203">
        <ele>139.60000610352</ele>
        <time>2014-10-31T12:42:08.000Z</time>
      </trkpt>
      <trkpt lat="48.7135" lon="1.69128">
        <ele>139</ele>
        <time>2014-10-31T12:45:09.000Z</time>
      </trkpt>
      <trkpt lat="48.71356" lon="1.69116">
        <ele>139.60000610352</ele>
        <time>2014-10-31T12:45:15.000Z</time>
      </trkpt>
      <trkpt lat="48.71358" lon="1.69108">
        <ele>140</ele>
        <time>2014-10-31T12:45:21.000Z</time>
      </trkpt>
      <trkpt lat="48.7136" lon="1.69103">
        <ele>140.39999389648</ele>
        <time>2014-10-31T12:45:27.000Z</time>
      </trkpt>
      <trkpt lat="48.7136" lon="1.69094">
        <ele>141</ele>
        <time>2014-10-31T12:45:38.000Z</time>
      </trkpt>
      <trkpt lat="48.7136" lon="1.69084">
        <ele>141.60000610352</ele>
        <time>2014-10-31T12:45:42.000Z</time>
      </trkpt>
      <trkpt lat="48.71365" lon="1.69069">
        <ele>141.80000305176</ele>
        <time>2014-10-31T12:45:50.000Z</time>
      </trkpt>
      <trkpt lat="48.7137" lon="1.69059">
        <ele>142</ele>
        <time>2014-10-31T12:45:57.000Z</time>
      </trkpt>
      <trkpt lat="48.71378" lon="1.6905">
        <ele>141.80000305176</ele>
        <time>2014-10-31T12:46:05.000Z</time>
      </trkpt>
      <trkpt lat="48.71386" lon="1.69042">
        <ele>141.60000610352</ele>
        <time>2014-10-31T12:46:12.000Z</time>
      </trkpt>
      <trkpt lat="48.71389" lon="1.69037">
        <ele>141.60000610352</ele>
        <time>2014-10-31T12:46:16.000Z</time>
      </trkpt>
      <trkpt lat="48.71396" lon="1.69024">
        <ele>141.60000610352</ele>
        <time>2014-10-31T12:46:23.000Z</time>
      </trkpt>
      <trkpt lat="48.71405" lon="1.69011">
        <ele>140.60000610352</ele>
        <time>2014-10-31T12:46:32.000Z</time>
      </trkpt>
      <trkpt lat="48.71413" lon="1.69">
        <ele>139.80000305176</ele>
        <time>2014-10-31T12:46:41.000Z</time>
      </trkpt>
      <trkpt lat="48.7142" lon="1.6899">
        <ele>139.19999694824</ele>
        <time>2014-10-31T12:46:48.000Z</time>
      </trkpt>
      <trkpt lat="48.71428" lon="1.68977">
        <ele>138.60000610352</ele>
        <time>2014-10-31T12:46:57.000Z</time>
      </trkpt>
      <trkpt lat="48.71433" lon="1.68963">
        <ele>138.39999389648</ele>
        <time>2014-10-31T12:47:04.000Z</time>
      </trkpt>
      <trkpt lat="48.71435" lon="1.68936">
        <ele>139</ele>
        <time>2014-10-31T12:47:13.000Z</time>
      </trkpt>
      <trkpt lat="48.71433" lon="1.68923">
        <ele>140</ele>
        <time>2014-10-31T12:47:19.000Z</time>
      </trkpt>
      <trkpt lat="48.71429" lon="1.68913">
        <ele>140.80000305176</ele>
        <time>2014-10-31T12:47:25.000Z</time>
      </trkpt>
      <trkpt lat="48.71428" lon="1.68911">
        <ele>141</ele>
        <time>2014-10-31T12:47:27.000Z</time>
      </trkpt>
      <trkpt lat="48.71428" lon="1.68905">
        <ele>141.19999694824</ele>
        <time>2014-10-31T12:47:34.000Z</time>
      </trkpt>
      <trkpt lat="48.71426" lon="1.68895">
        <ele>141.80000305176</ele>
        <time>2014-10-31T12:47:41.000Z</time>
      </trkpt>
      <trkpt lat="48.71424" lon="1.68884">
        <ele>142.39999389648</ele>
        <time>2014-10-31T12:47:50.000Z</time>
      </trkpt>
      <trkpt lat="48.71421" lon="1.68872">
        <ele>143</ele>
        <time>2014-10-31T12:47:58.000Z</time>
      </trkpt>
      <trkpt lat="48.71419" lon="1.68864">
        <ele>143.60000610352</ele>
        <time>2014-10-31T12:48:04.000Z</time>
      </trkpt>
      <trkpt lat="48.71415" lon="1.68854">
        <ele>144.39999389648</ele>
        <time>2014-10-31T12:48:12.000Z</time>
      </trkpt>
      <trkpt lat="48.71414" lon="1.68852">
        <ele>144.39999389648</ele>
        <time>2014-10-31T12:48:13.000Z</time>
      </trkpt>
      <trkpt lat="48.7141" lon="1.68841">
        <ele>145.39999389648</ele>
        <time>2014-10-31T12:48:20.000Z</time>
      </trkpt>
      <trkpt lat="48.71406" lon="1.68829">
        <ele>146.19999694824</ele>
        <time>2014-10-31T12:48:27.000Z</time>
      </trkpt>
      <trkpt lat="48.71405" lon="1.68825">
        <ele>146.39999389648</ele>
        <time>2014-10-31T12:48:29.000Z</time>
      </trkpt>
      <trkpt lat="48.714" lon="1.68816">
        <ele>147.19999694824</ele>
        <time>2014-10-31T12:48:35.000Z</time>
      </trkpt>
      <trkpt lat="48.71399" lon="1.68811">
        <ele>147.39999389648</ele>
        <time>2014-10-31T12:48:37.000Z</time>
      </trkpt>
      <trkpt lat="48.71392" lon="1.68795">
        <ele>148.39999389648</ele>
        <time>2014-10-31T12:48:42.000Z</time>
      </trkpt>
      <trkpt lat="48.71392" lon="1.68794">
        <ele>148.39999389648</ele>
        <time>2014-10-31T12:48:43.000Z</time>
      </trkpt>
      <trkpt lat="48.71389" lon="1.68784">
        <ele>149</ele>
        <time>2014-10-31T12:48:50.000Z</time>
      </trkpt>
      <trkpt lat="48.71387" lon="1.6878">
        <ele>149.19999694824</ele>
        <time>2014-10-31T12:48:52.000Z</time>
      </trkpt>
      <trkpt lat="48.71383" lon="1.6877">
        <ele>149.80000305176</ele>
        <time>2014-10-31T12:48:58.000Z</time>
      </trkpt>
      <trkpt lat="48.71379" lon="1.68754">
        <ele>150.80000305176</ele>
        <time>2014-10-31T12:49:07.000Z</time>
      </trkpt>
      <trkpt lat="48.71377" lon="1.68748">
        <ele>151.39999389648</ele>
        <time>2014-10-31T12:49:11.000Z</time>
      </trkpt>
      <trkpt lat="48.71373" lon="1.68736">
        <ele>152.39999389648</ele>
        <time>2014-10-31T12:49:20.000Z</time>
      </trkpt>
      <trkpt lat="48.71369" lon="1.68726">
        <ele>152.60000610352</ele>
        <time>2014-10-31T12:49:26.000Z</time>
      </trkpt>
      <trkpt lat="48.71362" lon="1.68712">
        <ele>153.19999694824</ele>
        <time>2014-10-31T12:49:33.000Z</time>
      </trkpt>
      <trkpt lat="48.71359" lon="1.68703">
        <ele>153.60000610352</ele>
        <time>2014-10-31T12:49:37.000Z</time>
      </trkpt>
      <trkpt lat="48.71353" lon="1.68688">
        <ele>154</ele>
        <time>2014-10-31T12:49:46.000Z</time>
      </trkpt>
      <trkpt lat="48.71348" lon="1.68673">
        <ele>155</ele>
        <time>2014-10-31T12:49:55.000Z</time>
      </trkpt>
      <trkpt lat="48.71345" lon="1.68663">
        <ele>155.39999389648</ele>
        <time>2014-10-31T12:50:01.000Z</time>
      </trkpt>
      <trkpt lat="48.7134" lon="1.68649">
        <ele>156.19999694824</ele>
        <time>2014-10-31T12:50:08.000Z</time>
      </trkpt>
      <trkpt lat="48.71337" lon="1.68632">
        <ele>155.80000305176</ele>
        <time>2014-10-31T12:50:16.000Z</time>
      </trkpt>
      <trkpt lat="48.71334" lon="1.68619">
        <ele>156</ele>
        <time>2014-10-31T12:50:24.000Z</time>
      </trkpt>
      <trkpt lat="48.71333" lon="1.68609">
        <ele>156</ele>
        <time>2014-10-31T12:50:28.000Z</time>
      </trkpt>
      <trkpt lat="48.71332" lon="1.686">
        <ele>155.80000305176</ele>
        <time>2014-10-31T12:50:33.000Z</time>
      </trkpt>
      <trkpt lat="48.71328" lon="1.68583">
        <ele>156</ele>
        <time>2014-10-31T12:50:42.000Z</time>
      </trkpt>
      <trkpt lat="48.71327" lon="1.68567">
        <ele>155.80000305176</ele>
        <time>2014-10-31T12:50:50.000Z</time>
      </trkpt>
      <trkpt lat="48.71324" lon="1.68553">
        <ele>155.39999389648</ele>
        <time>2014-10-31T12:50:56.000Z</time>
      </trkpt>
      <trkpt lat="48.71323" lon="1.68546">
        <ele>155.19999694824</ele>
        <time>2014-10-31T12:51:00.000Z</time>
      </trkpt>
      <trkpt lat="48.71321" lon="1.6853">
        <ele>154.80000305176</ele>
        <time>2014-10-31T12:51:09.000Z</time>
      </trkpt>
      <trkpt lat="48.71316" lon="1.68513">
        <ele>155</ele>
        <time>2014-10-31T12:51:14.000Z</time>
      </trkpt>
      <trkpt lat="48.71315" lon="1.68509">
        <ele>155</ele>
        <time>2014-10-31T12:51:18.000Z</time>
      </trkpt>
      <trkpt lat="48.71311" lon="1.685">
        <ele>155.19999694824</ele>
        <time>2014-10-31T12:51:25.000Z</time>
      </trkpt>
      <trkpt lat="48.71302" lon="1.68486">
        <ele>155.80000305176</ele>
        <time>2014-10-31T12:51:33.000Z</time>
      </trkpt>
      <trkpt lat="48.71291" lon="1.68475">
        <ele>156.60000610352</ele>
        <time>2014-10-31T12:51:40.000Z</time>
      </trkpt>
      <trkpt lat="48.71279" lon="1.68461">
        <ele>157.19999694824</ele>
        <time>2014-10-31T12:51:47.000Z</time>
      </trkpt>
      <trkpt lat="48.71271" lon="1.68457">
        <ele>158.19999694824</ele>
        <time>2014-10-31T12:51:54.000Z</time>
      </trkpt>
      <trkpt lat="48.71257" lon="1.68446">
        <ele>159.19999694824</ele>
        <time>2014-10-31T12:52:02.000Z</time>
      </trkpt>
      <trkpt lat="48.7125" lon="1.6844">
        <ele>160</ele>
        <time>2014-10-31T12:52:09.000Z</time>
      </trkpt>
      <trkpt lat="48.71246" lon="1.68431">
        <ele>159.80000305176</ele>
        <time>2014-10-31T12:52:16.000Z</time>
      </trkpt>
      <trkpt lat="48.71242" lon="1.68422">
        <ele>159.80000305176</ele>
        <time>2014-10-31T12:52:22.000Z</time>
      </trkpt>
      <trkpt lat="48.71238" lon="1.68414">
        <ele>160</ele>
        <time>2014-10-31T12:52:28.000Z</time>
      </trkpt>
      <trkpt lat="48.71236" lon="1.68409">
        <ele>159.80000305176</ele>
        <time>2014-10-31T12:52:31.000Z</time>
      </trkpt>
      <trkpt lat="48.71234" lon="1.68403">
        <ele>159.80000305176</ele>
        <time>2014-10-31T12:52:36.000Z</time>
      </trkpt>
      <trkpt lat="48.71233" lon="1.68394">
        <ele>160</ele>
        <time>2014-10-31T12:52:43.000Z</time>
      </trkpt>
      <trkpt lat="48.7123" lon="1.68384">
        <ele>160.60000610352</ele>
        <time>2014-10-31T12:52:49.000Z</time>
      </trkpt>
      <trkpt lat="48.71229" lon="1.68381">
        <ele>160.60000610352</ele>
        <time>2014-10-31T12:52:51.000Z</time>
      </trkpt>
      <trkpt lat="48.71228" lon="1.68371">
        <ele>161</ele>
        <time>2014-10-31T12:52:58.000Z</time>
      </trkpt>
      <trkpt lat="48.71228" lon="1.68369">
        <ele>161</ele>
        <time>2014-10-31T12:52:59.000Z</time>
      </trkpt>
      <trkpt lat="48.71225" lon="1.68356">
        <ele>161.39999389648</ele>
        <time>2014-10-31T12:53:07.000Z</time>
      </trkpt>
      <trkpt lat="48.71225" lon="1.6835">
        <ele>161.39999389648</ele>
        <time>2014-10-31T12:53:10.000Z</time>
      </trkpt>
      <trkpt lat="48.71225" lon="1.68347">
        <ele>161.19999694824</ele>
        <time>2014-10-31T12:53:12.000Z</time>
      </trkpt>
      <trkpt lat="48.71224" lon="1.6834">
        <ele>161</ele>
        <time>2014-10-31T12:53:16.000Z</time>
      </trkpt>
      <trkpt lat="48.71222" lon="1.68331">
        <ele>161</ele>
        <time>2014-10-31T12:53:21.000Z</time>
      </trkpt>
      <trkpt lat="48.71221" lon="1.68317">
        <ele>161</ele>
        <time>2014-10-31T12:53:27.000Z</time>
      </trkpt>
      <trkpt lat="48.7122" lon="1.68311">
        <ele>161.39999389648</ele>
        <time>2014-10-31T12:53:31.000Z</time>
      </trkpt>
      <trkpt lat="48.71219" lon="1.68308">
        <ele>161.80000305176</ele>
        <time>2014-10-31T12:53:33.000Z</time>
      </trkpt>
      <trkpt lat="48.71219" lon="1.68292">
        <ele>162.39999389648</ele>
        <time>2014-10-31T12:53:41.000Z</time>
      </trkpt>
      <trkpt lat="48.71219" lon="1.68283">
        <ele>163</ele>
        <time>2014-10-31T12:53:46.000Z</time>
      </trkpt>
      <trkpt lat="48.71217" lon="1.68267">
        <ele>164.19999694824</ele>
        <time>2014-10-31T12:53:53.000Z</time>
      </trkpt>
      <trkpt lat="48.71217" lon="1.68262">
        <ele>164</ele>
        <time>2014-10-31T12:53:56.000Z</time>
      </trkpt>
      <trkpt lat="48.71214" lon="1.6825">
        <ele>164.60000610352</ele>
        <time>2014-10-31T12:54:01.000Z</time>
      </trkpt>
      <trkpt lat="48.71213" lon="1.68239">
        <ele>164.80000305176</ele>
        <time>2014-10-31T12:54:07.000Z</time>
      </trkpt>
      <trkpt lat="48.71212" lon="1.68224">
        <ele>164.80000305176</ele>
        <time>2014-10-31T12:54:13.000Z</time>
      </trkpt>
      <trkpt lat="48.71212" lon="1.6822">
        <ele>164.80000305176</ele>
        <time>2014-10-31T12:54:15.000Z</time>
      </trkpt>
      <trkpt lat="48.71213" lon="1.68201">
        <ele>164.39999389648</ele>
        <time>2014-10-31T12:54:23.000Z</time>
      </trkpt>
      <trkpt lat="48.71213" lon="1.68198">
        <ele>164.39999389648</ele>
        <time>2014-10-31T12:54:24.000Z</time>
      </trkpt>
      <trkpt lat="48.71213" lon="1.68194">
        <ele>164.19999694824</ele>
        <time>2014-10-31T12:54:26.000Z</time>
      </trkpt>
      <trkpt lat="48.71207" lon="1.68177">
        <ele>165.60000610352</ele>
        <time>2014-10-31T12:54:33.000Z</time>
      </trkpt>
      <trkpt lat="48.71197" lon="1.68161">
        <ele>167.80000305176</ele>
        <time>2014-10-31T12:54:41.000Z</time>
      </trkpt>
      <trkpt lat="48.71188" lon="1.68148">
        <ele>169.80000305176</ele>
        <time>2014-10-31T12:54:48.000Z</time>
      </trkpt>
      <trkpt lat="48.71179" lon="1.68139">
        <ele>171</ele>
        <time>2014-10-31T12:54:52.000Z</time>
      </trkpt>
      <trkpt lat="48.71169" lon="1.68129">
        <ele>172.19999694824</ele>
        <time>2014-10-31T12:54:56.000Z</time>
      </trkpt>
      <trkpt lat="48.71162" lon="1.68123">
        <ele>173</ele>
        <time>2014-10-31T12:55:00.000Z</time>
      </trkpt>
      <trkpt lat="48.71161" lon="1.68122">
        <ele>173.19999694824</ele>
        <time>2014-10-31T12:55:02.000Z</time>
      </trkpt>
      <trkpt lat="48.7116" lon="1.68112">
        <ele>173.39999389648</ele>
        <time>2014-10-31T12:55:09.000Z</time>
      </trkpt>
      <trkpt lat="48.71159" lon="1.6811">
        <ele>173.60000610352</ele>
        <time>2014-10-31T12:55:10.000Z</time>
      </trkpt>
      <trkpt lat="48.71149" lon="1.681">
        <ele>174.80000305176</ele>
        <time>2014-10-31T12:55:19.000Z</time>
      </trkpt>
      <trkpt lat="48.71146" lon="1.68098">
        <ele>175.19999694824</ele>
        <time>2014-10-31T12:55:22.000Z</time>
      </trkpt>
      <trkpt lat="48.71131" lon="1.68086">
        <ele>176.80000305176</ele>
        <time>2014-10-31T12:55:31.000Z</time>
      </trkpt>
      <trkpt lat="48.71119" lon="1.6808">
        <ele>178.19999694824</ele>
        <time>2014-10-31T12:55:38.000Z</time>
      </trkpt>
      <trkpt lat="48.7111" lon="1.68079">
        <ele>179.19999694824</ele>
        <time>2014-10-31T12:55:46.000Z</time>
      </trkpt>
      <trkpt lat="48.71102" lon="1.68078">
        <ele>180</ele>
        <time>2014-10-31T12:55:53.000Z</time>
      </trkpt>
      <trkpt lat="48.71092" lon="1.68076">
        <ele>180.19999694824</ele>
        <time>2014-10-31T12:56:00.000Z</time>
      </trkpt>
      <trkpt lat="48.7108" lon="1.68072">
        <ele>180.60000610352</ele>
        <time>2014-10-31T12:56:08.000Z</time>
      </trkpt>
      <trkpt lat="48.71079" lon="1.68071">
        <ele>180.60000610352</ele>
        <time>2014-10-31T12:56:09.000Z</time>
      </trkpt>
      <trkpt lat="48.71067" lon="1.68067">
        <ele>180.80000305176</ele>
        <time>2014-10-31T12:56:18.000Z</time>
      </trkpt>
      <trkpt lat="48.71058" lon="1.68065">
        <ele>181</ele>
        <time>2014-10-31T12:56:24.000Z</time>
      </trkpt>
      <trkpt lat="48.71051" lon="1.68064">
        <ele>181.19999694824</ele>
        <time>2014-10-31T12:56:30.000Z</time>
      </trkpt>
      <trkpt lat="48.71042" lon="1.68063">
        <ele>181.39999389648</ele>
        <time>2014-10-31T12:56:37.000Z</time>
      </trkpt>
      <trkpt lat="48.71031" lon="1.68063">
        <ele>181.60000610352</ele>
        <time>2014-10-31T12:56:45.000Z</time>
      </trkpt>
      <trkpt lat="48.71023" lon="1.68063">
        <ele>181.80000305176</ele>
        <time>2014-10-31T12:56:50.000Z</time>
      </trkpt>
      <trkpt lat="48.71014" lon="1.68063">
        <ele>182.39999389648</ele>
        <time>2014-10-31T12:56:56.000Z</time>
      </trkpt>
      <trkpt lat="48.71011" lon="1.68063">
        <ele>182.60000610352</ele>
        <time>2014-10-31T12:56:58.000Z</time>
      </trkpt>
      <trkpt lat="48.71004" lon="1.68061">
        <ele>182.80000305176</ele>
        <time>2014-10-31T12:57:03.000Z</time>
      </trkpt>
      <trkpt lat="48.71" lon="1.68061">
        <ele>183</ele>
        <time>2014-10-31T12:57:07.000Z</time>
      </trkpt>
      <trkpt lat="48.70993" lon="1.68055">
        <ele>183.39999389648</ele>
        <time>2014-10-31T12:57:14.000Z</time>
      </trkpt>
      <trkpt lat="48.7099" lon="1.68048">
        <ele>183.60000610352</ele>
        <time>2014-10-31T12:57:18.000Z</time>
      </trkpt>
      <trkpt lat="48.70991" lon="1.68037">
        <ele>183.60000610352</ele>
        <time>2014-10-31T12:57:25.000Z</time>
      </trkpt>
      <trkpt lat="48.70994" lon="1.68027">
        <ele>183.19999694824</ele>
        <time>2014-10-31T12:57:31.000Z</time>
      </trkpt>
      <trkpt lat="48.70996" lon="1.68022">
        <ele>182.80000305176</ele>
        <time>2014-10-31T12:57:35.000Z</time>
      </trkpt>
      <trkpt lat="48.70993" lon="1.6801">
        <ele>182.80000305176</ele>
        <time>2014-10-31T12:57:41.000Z</time>
      </trkpt>
      <trkpt lat="48.70987" lon="1.68001">
        <ele>183</ele>
        <time>2014-10-31T12:57:44.000Z</time>
      </trkpt>
      <trkpt lat="48.70977" lon="1.67994">
        <ele>183.80000305176</ele>
        <time>2014-10-31T12:57:53.000Z</time>
      </trkpt>
      <trkpt lat="48.70974" lon="1.67994">
        <ele>184</ele>
        <time>2014-10-31T12:57:55.000Z</time>
      </trkpt>
      <trkpt lat="48.70963" lon="1.67993">
        <ele>185</ele>
        <time>2014-10-31T12:58:01.000Z</time>
      </trkpt>
      <trkpt lat="48.70959" lon="1.67993">
        <ele>185.39999389648</ele>
        <time>2014-10-31T12:58:04.000Z</time>
      </trkpt>
      <trkpt lat="48.70947" lon="1.6798">
        <ele>186</ele>
        <time>2014-10-31T12:58:12.000Z</time>
      </trkpt>
      <trkpt lat="48.70943" lon="1.67978">
        <ele>186.19999694824</ele>
        <time>2014-10-31T12:58:15.000Z</time>
      </trkpt>
      <trkpt lat="48.70936" lon="1.67975">
        <ele>186.80000305176</ele>
        <time>2014-10-31T12:58:22.000Z</time>
      </trkpt>
      <trkpt lat="48.70928" lon="1.67971">
        <ele>187</ele>
        <time>2014-10-31T12:58:28.000Z</time>
      </trkpt>
      <trkpt lat="48.70921" lon="1.67967">
        <ele>187.19999694824</ele>
        <time>2014-10-31T12:58:35.000Z</time>
      </trkpt>
      <trkpt lat="48.70911" lon="1.67965">
        <ele>187.39999389648</ele>
        <time>2014-10-31T12:58:41.000Z</time>
      </trkpt>
      <trkpt lat="48.70901" lon="1.67957">
        <ele>187.60000610352</ele>
        <time>2014-10-31T12:58:47.000Z</time>
      </trkpt>
      <trkpt lat="48.70892" lon="1.67947">
        <ele>187.80000305176</ele>
        <time>2014-10-31T12:58:53.000Z</time>
      </trkpt>
      <trkpt lat="48.70884" lon="1.6794">
        <ele>187.80000305176</ele>
        <time>2014-10-31T12:59:01.000Z</time>
      </trkpt>
      <trkpt lat="48.70879" lon="1.67935">
        <ele>188</ele>
        <time>2014-10-31T12:59:05.000Z</time>
      </trkpt>
      <trkpt lat="48.70871" lon="1.67931">
        <ele>188.19999694824</ele>
        <time>2014-10-31T12:59:11.000Z</time>
      </trkpt>
      <trkpt lat="48.70866" lon="1.67929">
        <ele>188.39999389648</ele>
        <time>2014-10-31T12:59:15.000Z</time>
      </trkpt>
      <trkpt lat="48.70863" lon="1.67929">
        <ele>188.39999389648</ele>
        <time>2014-10-31T12:59:17.000Z</time>
      </trkpt>
      <trkpt lat="48.7086" lon="1.6793">
        <ele>188.60000610352</ele>
        <time>2014-10-31T12:59:20.000Z</time>
      </trkpt>
      <trkpt lat="48.70855" lon="1.67927">
        <ele>188.80000305176</ele>
        <time>2014-10-31T12:59:24.000Z</time>
      </trkpt>
      <trkpt lat="48.70847" lon="1.67925">
        <ele>189</ele>
        <time>2014-10-31T12:59:31.000Z</time>
      </trkpt>
      <trkpt lat="48.70846" lon="1.67925">
        <ele>189</ele>
        <time>2014-10-31T12:59:32.000Z</time>
      </trkpt>
      <trkpt lat="48.70842" lon="1.67922">
        <ele>189</ele>
        <time>2014-10-31T12:59:36.000Z</time>
      </trkpt>
      <trkpt lat="48.70833" lon="1.67919">
        <ele>189</ele>
        <time>2014-10-31T12:59:42.000Z</time>
      </trkpt>
      <trkpt lat="48.70827" lon="1.67915">
        <ele>189</ele>
        <time>2014-10-31T12:59:47.000Z</time>
      </trkpt>
      <trkpt lat="48.70823" lon="1.67911">
        <ele>189</ele>
        <time>2014-10-31T12:59:52.000Z</time>
      </trkpt>
      <trkpt lat="48.70822" lon="1.67908">
        <ele>189</ele>
        <time>2014-10-31T12:59:54.000Z</time>
      </trkpt>
      <trkpt lat="48.70813" lon="1.67901">
        <ele>189</ele>
        <time>2014-10-31T13:00:00.000Z</time>
      </trkpt>
      <trkpt lat="48.70804" lon="1.67898">
        <ele>189.19999694824</ele>
        <time>2014-10-31T13:00:06.000Z</time>
      </trkpt>
      <trkpt lat="48.70796" lon="1.67893">
        <ele>189.19999694824</ele>
        <time>2014-10-31T13:00:12.000Z</time>
      </trkpt>
      <trkpt lat="48.70788" lon="1.67889">
        <ele>189.39999389648</ele>
        <time>2014-10-31T13:00:18.000Z</time>
      </trkpt>
      <trkpt lat="48.70787" lon="1.6789">
        <ele>189.39999389648</ele>
        <time>2014-10-31T13:00:19.000Z</time>
      </trkpt>
      <trkpt lat="48.70779" lon="1.67885">
        <ele>189.60000610352</ele>
        <time>2014-10-31T13:00:25.000Z</time>
      </trkpt>
      <trkpt lat="48.70774" lon="1.67883">
        <ele>189.60000610352</ele>
        <time>2014-10-31T13:00:28.000Z</time>
      </trkpt>
      <trkpt lat="48.70769" lon="1.67882">
        <ele>189.60000610352</ele>
        <time>2014-10-31T13:00:33.000Z</time>
      </trkpt>
      <trkpt lat="48.70761" lon="1.67879">
        <ele>189.19999694824</ele>
        <time>2014-10-31T13:00:40.000Z</time>
      </trkpt>
      <trkpt lat="48.70756" lon="1.67875">
        <ele>189</ele>
        <time>2014-10-31T13:00:46.000Z</time>
      </trkpt>
      <trkpt lat="48.70747" lon="1.67868">
        <ele>188.39999389648</ele>
        <time>2014-10-31T13:00:54.000Z</time>
      </trkpt>
      <trkpt lat="48.70745" lon="1.67866">
        <ele>188.39999389648</ele>
        <time>2014-10-31T13:00:56.000Z</time>
      </trkpt>
      <trkpt lat="48.70736" lon="1.67862">
        <ele>187.80000305176</ele>
        <time>2014-10-31T13:01:03.000Z</time>
      </trkpt>
      <trkpt lat="48.70734" lon="1.6786">
        <ele>187.80000305176</ele>
        <time>2014-10-31T13:01:05.000Z</time>
      </trkpt>
      <trkpt lat="48.70727" lon="1.67855">
        <ele>187.39999389648</ele>
        <time>2014-10-31T13:01:12.000Z</time>
      </trkpt>
      <trkpt lat="48.70717" lon="1.67851">
        <ele>186.80000305176</ele>
        <time>2014-10-31T13:01:19.000Z</time>
      </trkpt>
      <trkpt lat="48.70704" lon="1.67839">
        <ele>186</ele>
        <time>2014-10-31T13:01:25.000Z</time>
      </trkpt>
      <trkpt lat="48.70695" lon="1.67835">
        <ele>185.39999389648</ele>
        <time>2014-10-31T13:01:31.000Z</time>
      </trkpt>
      <trkpt lat="48.70687" lon="1.67834">
        <ele>184.80000305176</ele>
        <time>2014-10-31T13:01:37.000Z</time>
      </trkpt>
      <trkpt lat="48.70678" lon="1.67828">
        <ele>184.60000610352</ele>
        <time>2014-10-31T13:01:43.000Z</time>
      </trkpt>
      <trkpt lat="48.70673" lon="1.67827">
        <ele>184.60000610352</ele>
        <time>2014-10-31T13:01:46.000Z</time>
      </trkpt>
      <trkpt lat="48.70672" lon="1.67827">
        <ele>184.60000610352</ele>
        <time>2014-10-31T13:01:48.000Z</time>
      </trkpt>
      <trkpt lat="48.70665" lon="1.67821">
        <ele>184.39999389648</ele>
        <time>2014-10-31T13:01:55.000Z</time>
      </trkpt>
      <trkpt lat="48.70656" lon="1.67817">
        <ele>184.39999389648</ele>
        <time>2014-10-31T13:02:00.000Z</time>
      </trkpt>
      <trkpt lat="48.70647" lon="1.67815">
        <ele>184.19999694824</ele>
        <time>2014-10-31T13:02:07.000Z</time>
      </trkpt>
      <trkpt lat="48.70642" lon="1.67809">
        <ele>184.39999389648</ele>
        <time>2014-10-31T13:02:11.000Z</time>
      </trkpt>
      <trkpt lat="48.70638" lon="1.67807">
        <ele>184.39999389648</ele>
        <time>2014-10-31T13:02:14.000Z</time>
      </trkpt>
      <trkpt lat="48.70629" lon="1.67801">
        <ele>184.60000610352</ele>
        <time>2014-10-31T13:02:22.000Z</time>
      </trkpt>
      <trkpt lat="48.70621" lon="1.67796">
        <ele>184.60000610352</ele>
        <time>2014-10-31T13:02:27.000Z</time>
      </trkpt>
      <trkpt lat="48.70612" lon="1.6779">
        <ele>184.60000610352</ele>
        <time>2014-10-31T13:02:33.000Z</time>
      </trkpt>
      <trkpt lat="48.70607" lon="1.67789">
        <ele>184.60000610352</ele>
        <time>2014-10-31T13:02:37.000Z</time>
      </trkpt>
      <trkpt lat="48.70601" lon="1.67785">
        <ele>184.60000610352</ele>
        <time>2014-10-31T13:02:41.000Z</time>
      </trkpt>
      <trkpt lat="48.70599" lon="1.67783">
        <ele>184.39999389648</ele>
        <time>2014-10-31T13:02:43.000Z</time>
      </trkpt>
      <trkpt lat="48.7059" lon="1.6778">
        <ele>184.19999694824</ele>
        <time>2014-10-31T13:02:50.000Z</time>
      </trkpt>
      <trkpt lat="48.7059" lon="1.67779">
        <ele>184.19999694824</ele>
        <time>2014-10-31T13:02:51.000Z</time>
      </trkpt>
      <trkpt lat="48.70581" lon="1.67773">
        <ele>184.19999694824</ele>
        <time>2014-10-31T13:02:58.000Z</time>
      </trkpt>
      <trkpt lat="48.70572" lon="1.6777">
        <ele>183.80000305176</ele>
        <time>2014-10-31T13:03:05.000Z</time>
      </trkpt>
      <trkpt lat="48.70562" lon="1.6776">
        <ele>184</ele>
        <time>2014-10-31T13:03:12.000Z</time>
      </trkpt>
      <trkpt lat="48.70559" lon="1.67755">
        <ele>184</ele>
        <time>2014-10-31T13:03:15.000Z</time>
      </trkpt>
      <trkpt lat="48.70552" lon="1.67749">
        <ele>183.80000305176</ele>
        <time>2014-10-31T13:03:20.000Z</time>
      </trkpt>
      <trkpt lat="48.70543" lon="1.6775">
        <ele>183.39999389648</ele>
        <time>2014-10-31T13:03:26.000Z</time>
      </trkpt>
      <trkpt lat="48.70531" lon="1.67745">
        <ele>183</ele>
        <time>2014-10-31T13:03:34.000Z</time>
      </trkpt>
      <trkpt lat="48.7053" lon="1.67745">
        <ele>183</ele>
        <time>2014-10-31T13:03:35.000Z</time>
      </trkpt>
      <trkpt lat="48.70524" lon="1.67742">
        <ele>183</ele>
        <time>2014-10-31T13:03:40.000Z</time>
      </trkpt>
      <trkpt lat="48.70513" lon="1.67734">
        <ele>183</ele>
        <time>2014-10-31T13:03:47.000Z</time>
      </trkpt>
      <trkpt lat="48.70502" lon="1.67726">
        <ele>183.39999389648</ele>
        <time>2014-10-31T13:03:55.000Z</time>
      </trkpt>
      <trkpt lat="48.70493" lon="1.67722">
        <ele>183.60000610352</ele>
        <time>2014-10-31T13:04:01.000Z</time>
      </trkpt>
      <trkpt lat="48.70485" lon="1.67716">
        <ele>183.80000305176</ele>
        <time>2014-10-31T13:04:06.000Z</time>
      </trkpt>
      <trkpt lat="48.70475" lon="1.67709">
        <ele>184</ele>
        <time>2014-10-31T13:04:13.000Z</time>
      </trkpt>
      <trkpt lat="48.70463" lon="1.67703">
        <ele>184.19999694824</ele>
        <time>2014-10-31T13:04:22.000Z</time>
      </trkpt>
      <trkpt lat="48.70453" lon="1.67698">
        <ele>184.39999389648</ele>
        <time>2014-10-31T13:04:30.000Z</time>
      </trkpt>
      <trkpt lat="48.70444" lon="1.67691">
        <ele>184.60000610352</ele>
        <time>2014-10-31T13:04:36.000Z</time>
      </trkpt>
      <trkpt lat="48.70433" lon="1.67684">
        <ele>184.80000305176</ele>
        <time>2014-10-31T13:04:44.000Z</time>
      </trkpt>
      <trkpt lat="48.70429" lon="1.67682">
        <ele>185</ele>
        <time>2014-10-31T13:04:47.000Z</time>
      </trkpt>
      <trkpt lat="48.70422" lon="1.67679">
        <ele>185</ele>
        <time>2014-10-31T13:04:53.000Z</time>
      </trkpt>
      <trkpt lat="48.70409" lon="1.67673">
        <ele>185.19999694824</ele>
        <time>2014-10-31T13:05:01.000Z</time>
      </trkpt>
      <trkpt lat="48.70399" lon="1.67669">
        <ele>185.39999389648</ele>
        <time>2014-10-31T13:05:09.000Z</time>
      </trkpt>
      <trkpt lat="48.70394" lon="1.67666">
        <ele>185.60000610352</ele>
        <time>2014-10-31T13:05:13.000Z</time>
      </trkpt>
      <trkpt lat="48.70383" lon="1.67661">
        <ele>185.60000610352</ele>
        <time>2014-10-31T13:05:21.000Z</time>
      </trkpt>
      <trkpt lat="48.70378" lon="1.67659">
        <ele>185.80000305176</ele>
        <time>2014-10-31T13:05:25.000Z</time>
      </trkpt>
      <trkpt lat="48.70368" lon="1.67654">
        <ele>186</ele>
        <time>2014-10-31T13:05:34.000Z</time>
      </trkpt>
      <trkpt lat="48.70358" lon="1.6765">
        <ele>186</ele>
        <time>2014-10-31T13:05:43.000Z</time>
      </trkpt>
      <trkpt lat="48.70348" lon="1.67644">
        <ele>185.39999389648</ele>
        <time>2014-10-31T13:05:51.000Z</time>
      </trkpt>
      <trkpt lat="48.70334" lon="1.67638">
        <ele>184.60000610352</ele>
        <time>2014-10-31T13:06:02.000Z</time>
      </trkpt>
      <trkpt lat="48.7032" lon="1.67634">
        <ele>184</ele>
        <time>2014-10-31T13:06:11.000Z</time>
      </trkpt>
      <trkpt lat="48.70314" lon="1.67627">
        <ele>183.19999694824</ele>
        <time>2014-10-31T13:06:17.000Z</time>
      </trkpt>
      <trkpt lat="48.70299" lon="1.67618">
        <ele>182.39999389648</ele>
        <time>2014-10-31T13:06:26.000Z</time>
      </trkpt>
      <trkpt lat="48.70296" lon="1.67616">
        <ele>182.19999694824</ele>
        <time>2014-10-31T13:06:29.000Z</time>
      </trkpt>
      <trkpt lat="48.70289" lon="1.67614">
        <ele>181.80000305176</ele>
        <time>2014-10-31T13:06:36.000Z</time>
      </trkpt>
      <trkpt lat="48.70277" lon="1.67608">
        <ele>181</ele>
        <time>2014-10-31T13:06:45.000Z</time>
      </trkpt>
      <trkpt lat="48.70272" lon="1.67604">
        <ele>180.80000305176</ele>
        <time>2014-10-31T13:06:48.000Z</time>
      </trkpt>
      <trkpt lat="48.70268" lon="1.67603">
        <ele>180.60000610352</ele>
        <time>2014-10-31T13:06:50.000Z</time>
      </trkpt>
      <trkpt lat="48.70249" lon="1.67591">
        <ele>178.80000305176</ele>
        <time>2014-10-31T13:07:01.000Z</time>
      </trkpt>
      <trkpt lat="48.70229" lon="1.67575">
        <ele>176.80000305176</ele>
        <time>2014-10-31T13:07:12.000Z</time>
      </trkpt>
      <trkpt lat="48.70219" lon="1.67572">
        <ele>176</ele>
        <time>2014-10-31T13:07:19.000Z</time>
      </trkpt>
      <trkpt lat="48.70206" lon="1.67564">
        <ele>174.80000305176</ele>
        <time>2014-10-31T13:07:27.000Z</time>
      </trkpt>
      <trkpt lat="48.70192" lon="1.67559">
        <ele>173.60000610352</ele>
        <time>2014-10-31T13:07:37.000Z</time>
      </trkpt>
      <trkpt lat="48.70181" lon="1.67553">
        <ele>172.80000305176</ele>
        <time>2014-10-31T13:07:44.000Z</time>
      </trkpt>
      <trkpt lat="48.7017" lon="1.67546">
        <ele>171.80000305176</ele>
        <time>2014-10-31T13:07:52.000Z</time>
      </trkpt>
      <trkpt lat="48.70161" lon="1.6754">
        <ele>171</ele>
        <time>2014-10-31T13:07:58.000Z</time>
      </trkpt>
      <trkpt lat="48.70157" lon="1.67536">
        <ele>170.60000610352</ele>
        <time>2014-10-31T13:08:01.000Z</time>
      </trkpt>
      <trkpt lat="48.7015" lon="1.67533">
        <ele>170</ele>
        <time>2014-10-31T13:08:07.000Z</time>
      </trkpt>
      <trkpt lat="48.70136" lon="1.67525">
        <ele>168.60000610352</ele>
        <time>2014-10-31T13:08:19.000Z</time>
      </trkpt>
      <trkpt lat="48.70124" lon="1.67519">
        <ele>167.39999389648</ele>
        <time>2014-10-31T13:08:29.000Z</time>
      </trkpt>
      <trkpt lat="48.70117" lon="1.67516">
        <ele>166.60000610352</ele>
        <time>2014-10-31T13:08:38.000Z</time>
      </trkpt>
      <trkpt lat="48.70112" lon="1.67516">
        <ele>166.19999694824</ele>
        <time>2014-10-31T13:08:45.000Z</time>
      </trkpt>
      <trkpt lat="48.70104" lon="1.67513">
        <ele>165.39999389648</ele>
        <time>2014-10-31T13:08:52.000Z</time>
      </trkpt>
      <trkpt lat="48.70096" lon="1.67508">
        <ele>164.80000305176</ele>
        <time>2014-10-31T13:08:59.000Z</time>
      </trkpt>
      <trkpt lat="48.70088" lon="1.67504">
        <ele>164.19999694824</ele>
        <time>2014-10-31T13:09:04.000Z</time>
      </trkpt>
      <trkpt lat="48.7008" lon="1.67497">
        <ele>163.80000305176</ele>
        <time>2014-10-31T13:09:11.000Z</time>
      </trkpt>
      <trkpt lat="48.70071" lon="1.67493">
        <ele>163.19999694824</ele>
        <time>2014-10-31T13:09:18.000Z</time>
      </trkpt>
      <trkpt lat="48.7006" lon="1.67487">
        <ele>162.39999389648</ele>
        <time>2014-10-31T13:09:24.000Z</time>
      </trkpt>
      <trkpt lat="48.70052" lon="1.67483">
        <ele>161.80000305176</ele>
        <time>2014-10-31T13:09:31.000Z</time>
      </trkpt>
      <trkpt lat="48.70043" lon="1.67479">
        <ele>161.19999694824</ele>
        <time>2014-10-31T13:09:39.000Z</time>
      </trkpt>
      <trkpt lat="48.70041" lon="1.67478">
        <ele>161</ele>
        <time>2014-10-31T13:09:41.000Z</time>
      </trkpt>
      <trkpt lat="48.70035" lon="1.67474">
        <ele>160.60000610352</ele>
        <time>2014-10-31T13:09:46.000Z</time>
      </trkpt>
      <trkpt lat="48.70026" lon="1.67468">
        <ele>160</ele>
        <time>2014-10-31T13:09:53.000Z</time>
      </trkpt>
      <trkpt lat="48.70016" lon="1.67465">
        <ele>159.19999694824</ele>
        <time>2014-10-31T13:10:00.000Z</time>
      </trkpt>
      <trkpt lat="48.70004" lon="1.67458">
        <ele>158.19999694824</ele>
        <time>2014-10-31T13:10:08.000Z</time>
      </trkpt>
      <trkpt lat="48.69994" lon="1.67453">
        <ele>157.39999389648</ele>
        <time>2014-10-31T13:10:15.000Z</time>
      </trkpt>
      <trkpt lat="48.69985" lon="1.67448">
        <ele>156.60000610352</ele>
        <time>2014-10-31T13:10:21.000Z</time>
      </trkpt>
      <trkpt lat="48.6997" lon="1.6744">
        <ele>155.19999694824</ele>
        <time>2014-10-31T13:10:28.000Z</time>
      </trkpt>
      <trkpt lat="48.69957" lon="1.67432">
        <ele>153.80000305176</ele>
        <time>2014-10-31T13:10:35.000Z</time>
      </trkpt>
      <trkpt lat="48.69946" lon="1.67426">
        <ele>152.80000305176</ele>
        <time>2014-10-31T13:10:42.000Z</time>
      </trkpt>
      <trkpt lat="48.69942" lon="1.67426">
        <ele>152.19999694824</ele>
        <time>2014-10-31T13:10:46.000Z</time>
      </trkpt>
      <trkpt lat="48.69933" lon="1.67422">
        <ele>151.60000610352</ele>
        <time>2014-10-31T13:10:53.000Z</time>
      </trkpt>
      <trkpt lat="48.69924" lon="1.67416">
        <ele>151.19999694824</ele>
        <time>2014-10-31T13:10:59.000Z</time>
      </trkpt>
      <trkpt lat="48.69914" lon="1.6741">
        <ele>150.60000610352</ele>
        <time>2014-10-31T13:11:07.000Z</time>
      </trkpt>
      <trkpt lat="48.69905" lon="1.67406">
        <ele>150</ele>
        <time>2014-10-31T13:11:13.000Z</time>
      </trkpt>
      <trkpt lat="48.69898" lon="1.67403">
        <ele>149.80000305176</ele>
        <time>2014-10-31T13:11:19.000Z</time>
      </trkpt>
      <trkpt lat="48.69892" lon="1.67401">
        <ele>149.39999389648</ele>
        <time>2014-10-31T13:11:24.000Z</time>
      </trkpt>
      <trkpt lat="48.69878" lon="1.6739">
        <ele>149.19999694824</ele>
        <time>2014-10-31T13:11:31.000Z</time>
      </trkpt>
      <trkpt lat="48.69871" lon="1.67387">
        <ele>149</ele>
        <time>2014-10-31T13:11:36.000Z</time>
      </trkpt>
      <trkpt lat="48.69864" lon="1.67385">
        <ele>148.60000610352</ele>
        <time>2014-10-31T13:11:42.000Z</time>
      </trkpt>
      <trkpt lat="48.69848" lon="1.67375">
        <ele>148.80000305176</ele>
        <time>2014-10-31T13:11:50.000Z</time>
      </trkpt>
      <trkpt lat="48.69835" lon="1.67369">
        <ele>149.19999694824</ele>
        <time>2014-10-31T13:11:58.000Z</time>
      </trkpt>
      <trkpt lat="48.69833" lon="1.67367">
        <ele>149.39999389648</ele>
        <time>2014-10-31T13:12:00.000Z</time>
      </trkpt>
      <trkpt lat="48.69827" lon="1.67364">
        <ele>149.60000610352</ele>
        <time>2014-10-31T13:12:04.000Z</time>
      </trkpt>
      <trkpt lat="48.69823" lon="1.67361">
        <ele>149.80000305176</ele>
        <time>2014-10-31T13:12:07.000Z</time>
      </trkpt>
      <trkpt lat="48.69812" lon="1.67356">
        <ele>150.39999389648</ele>
        <time>2014-10-31T13:12:13.000Z</time>
      </trkpt>
      <trkpt lat="48.69809" lon="1.67354">
        <ele>150.39999389648</ele>
        <time>2014-10-31T13:12:15.000Z</time>
      </trkpt>
      <trkpt lat="48.69798" lon="1.67347">
        <ele>151</ele>
        <time>2014-10-31T13:12:22.000Z</time>
      </trkpt>
      <trkpt lat="48.69793" lon="1.67345">
        <ele>151.19999694824</ele>
        <time>2014-10-31T13:12:26.000Z</time>
      </trkpt>
      <trkpt lat="48.69784" lon="1.67338">
        <ele>151.80000305176</ele>
        <time>2014-10-31T13:12:33.000Z</time>
      </trkpt>
      <trkpt lat="48.69783" lon="1.67338">
        <ele>151.80000305176</ele>
        <time>2014-10-31T13:12:34.000Z</time>
      </trkpt>
      <trkpt lat="48.69776" lon="1.67335">
        <ele>152.19999694824</ele>
        <time>2014-10-31T13:12:41.000Z</time>
      </trkpt>
      <trkpt lat="48.69765" lon="1.67333">
        <ele>152.39999389648</ele>
        <time>2014-10-31T13:12:49.000Z</time>
      </trkpt>
      <trkpt lat="48.6976" lon="1.67332">
        <ele>152.39999389648</ele>
        <time>2014-10-31T13:12:54.000Z</time>
      </trkpt>
      <trkpt lat="48.69749" lon="1.6733">
        <ele>152.19999694824</ele>
        <time>2014-10-31T13:13:02.000Z</time>
      </trkpt>
      <trkpt lat="48.69746" lon="1.67328">
        <ele>152.19999694824</ele>
        <time>2014-10-31T13:13:05.000Z</time>
      </trkpt>
      <trkpt lat="48.69735" lon="1.67323">
        <ele>152</ele>
        <time>2014-10-31T13:13:14.000Z</time>
      </trkpt>
      <trkpt lat="48.69725" lon="1.67317">
        <ele>152</ele>
        <time>2014-10-31T13:13:21.000Z</time>
      </trkpt>
      <trkpt lat="48.69715" lon="1.67312">
        <ele>151.60000610352</ele>
        <time>2014-10-31T13:13:28.000Z</time>
      </trkpt>
      <trkpt lat="48.69705" lon="1.67306">
        <ele>151.39999389648</ele>
        <time>2014-10-31T13:13:35.000Z</time>
      </trkpt>
      <trkpt lat="48.69695" lon="1.67301">
        <ele>151.19999694824</ele>
        <time>2014-10-31T13:13:42.000Z</time>
      </trkpt>
      <trkpt lat="48.69692" lon="1.673">
        <ele>151.19999694824</ele>
        <time>2014-10-31T13:13:44.000Z</time>
      </trkpt>
      <trkpt lat="48.69686" lon="1.67295">
        <ele>151</ele>
        <time>2014-10-31T13:13:49.000Z</time>
      </trkpt>
      <trkpt lat="48.69678" lon="1.67291">
        <ele>150.60000610352</ele>
        <time>2014-10-31T13:13:56.000Z</time>
      </trkpt>
      <trkpt lat="48.69666" lon="1.67286">
        <ele>150.19999694824</ele>
        <time>2014-10-31T13:14:03.000Z</time>
      </trkpt>
      <trkpt lat="48.69647" lon="1.6727">
        <ele>149.60000610352</ele>
        <time>2014-10-31T13:14:12.000Z</time>
      </trkpt>
      <trkpt lat="48.69636" lon="1.67264">
        <ele>149.19999694824</ele>
        <time>2014-10-31T13:14:19.000Z</time>
      </trkpt>
      <trkpt lat="48.69625" lon="1.67263">
        <ele>148.80000305176</ele>
        <time>2014-10-31T13:14:27.000Z</time>
      </trkpt>
      <trkpt lat="48.69615" lon="1.67259">
        <ele>148.39999389648</ele>
        <time>2014-10-31T13:14:33.000Z</time>
      </trkpt>
      <trkpt lat="48.69607" lon="1.67256">
        <ele>148.19999694824</ele>
        <time>2014-10-31T13:14:38.000Z</time>
      </trkpt>
      <trkpt lat="48.69595" lon="1.67252">
        <ele>148</ele>
        <time>2014-10-31T13:14:44.000Z</time>
      </trkpt>
      <trkpt lat="48.69587" lon="1.6725">
        <ele>147.80000305176</ele>
        <time>2014-10-31T13:14:50.000Z</time>
      </trkpt>
      <trkpt lat="48.6958" lon="1.67246">
        <ele>147.80000305176</ele>
        <time>2014-10-31T13:14:55.000Z</time>
      </trkpt>
      <trkpt lat="48.69574" lon="1.67244">
        <ele>147.60000610352</ele>
        <time>2014-10-31T13:14:59.000Z</time>
      </trkpt>
      <trkpt lat="48.69566" lon="1.67242">
        <ele>147.60000610352</ele>
        <time>2014-10-31T13:15:06.000Z</time>
      </trkpt>
      <trkpt lat="48.69557" lon="1.6724">
        <ele>147.39999389648</ele>
        <time>2014-10-31T13:15:13.000Z</time>
      </trkpt>
      <trkpt lat="48.69545" lon="1.67236">
        <ele>147.39999389648</ele>
        <time>2014-10-31T13:15:21.000Z</time>
      </trkpt>
      <trkpt lat="48.69538" lon="1.67233">
        <ele>147.19999694824</ele>
        <time>2014-10-31T13:15:27.000Z</time>
      </trkpt>
      <trkpt lat="48.69533" lon="1.67231">
        <ele>147.19999694824</ele>
        <time>2014-10-31T13:15:29.000Z</time>
      </trkpt>
      <trkpt lat="48.69532" lon="1.67236">
        <ele>147.19999694824</ele>
        <time>2014-10-31T13:15:34.000Z</time>
      </trkpt>
      <trkpt lat="48.69533" lon="1.6724">
        <ele>147.19999694824</ele>
        <time>2014-10-31T13:15:36.000Z</time>
      </trkpt>
      <trkpt lat="48.69538" lon="1.67253">
        <ele>147.19999694824</ele>
        <time>2014-10-31T13:15:43.000Z</time>
      </trkpt>
      <trkpt lat="48.6954" lon="1.67256">
        <ele>147.19999694824</ele>
        <time>2014-10-31T13:15:45.000Z</time>
      </trkpt>
      <trkpt lat="48.69547" lon="1.67272">
        <ele>147.39999389648</ele>
        <time>2014-10-31T13:15:54.000Z</time>
      </trkpt>
      <trkpt lat="48.69553" lon="1.67283">
        <ele>147.39999389648</ele>
        <time>2014-10-31T13:16:00.000Z</time>
      </trkpt>
      <trkpt lat="48.69559" lon="1.67294">
        <ele>147.39999389648</ele>
        <time>2014-10-31T13:16:07.000Z</time>
      </trkpt>
      <trkpt lat="48.69565" lon="1.67306">
        <ele>147.60000610352</ele>
        <time>2014-10-31T13:16:14.000Z</time>
      </trkpt>
      <trkpt lat="48.6957" lon="1.6732">
        <ele>147.60000610352</ele>
        <time>2014-10-31T13:16:20.000Z</time>
      </trkpt>
      <trkpt lat="48.69577" lon="1.67332">
        <ele>147.60000610352</ele>
        <time>2014-10-31T13:16:27.000Z</time>
      </trkpt>
      <trkpt lat="48.69585" lon="1.67344">
        <ele>147.39999389648</ele>
        <time>2014-10-31T13:16:34.000Z</time>
      </trkpt>
      <trkpt lat="48.69592" lon="1.67358">
        <ele>147.39999389648</ele>
        <time>2014-10-31T13:16:41.000Z</time>
      </trkpt>
      <trkpt lat="48.696" lon="1.67374">
        <ele>147.39999389648</ele>
        <time>2014-10-31T13:16:49.000Z</time>
      </trkpt>
      <trkpt lat="48.69611" lon="1.67393">
        <ele>147.19999694824</ele>
        <time>2014-10-31T13:16:59.000Z</time>
      </trkpt>
      <trkpt lat="48.69619" lon="1.67409">
        <ele>147</ele>
        <time>2014-10-31T13:17:07.000Z</time>
      </trkpt>
      <trkpt lat="48.69622" lon="1.67421">
        <ele>146.60000610352</ele>
        <time>2014-10-31T13:17:12.000Z</time>
      </trkpt>
      <trkpt lat="48.69628" lon="1.67434">
        <ele>146.19999694824</ele>
        <time>2014-10-31T13:17:19.000Z</time>
      </trkpt>
      <trkpt lat="48.69637" lon="1.67444">
        <ele>146</ele>
        <time>2014-10-31T13:17:26.000Z</time>
      </trkpt>
      <trkpt lat="48.69646" lon="1.67454">
        <ele>145.60000610352</ele>
        <time>2014-10-31T13:17:33.000Z</time>
      </trkpt>
      <trkpt lat="48.69652" lon="1.67464">
        <ele>145.39999389648</ele>
        <time>2014-10-31T13:17:39.000Z</time>
      </trkpt>
      <trkpt lat="48.69657" lon="1.67478">
        <ele>145</ele>
        <time>2014-10-31T13:17:46.000Z</time>
      </trkpt>
      <trkpt lat="48.69661" lon="1.67492">
        <ele>144.60000610352</ele>
        <time>2014-10-31T13:17:53.000Z</time>
      </trkpt>
      <trkpt lat="48.69664" lon="1.67499">
        <ele>144.80000305176</ele>
        <time>2014-10-31T13:17:57.000Z</time>
      </trkpt>
      <trkpt lat="48.69667" lon="1.6751">
        <ele>144.80000305176</ele>
        <time>2014-10-31T13:18:02.000Z</time>
      </trkpt>
      <trkpt lat="48.69674" lon="1.67532">
        <ele>144.80000305176</ele>
        <time>2014-10-31T13:18:11.000Z</time>
      </trkpt>
      <trkpt lat="48.6968" lon="1.67549">
        <ele>145</ele>
        <time>2014-10-31T13:18:19.000Z</time>
      </trkpt>
      <trkpt lat="48.69686" lon="1.67573">
        <ele>145</ele>
        <time>2014-10-31T13:18:30.000Z</time>
      </trkpt>
      <trkpt lat="48.69691" lon="1.67594">
        <ele>145</ele>
        <time>2014-10-31T13:18:40.000Z</time>
      </trkpt>
      <trkpt lat="48.69694" lon="1.67613">
        <ele>145</ele>
        <time>2014-10-31T13:18:48.000Z</time>
      </trkpt>
      <trkpt lat="48.69695" lon="1.67629">
        <ele>144.80000305176</ele>
        <time>2014-10-31T13:18:54.000Z</time>
      </trkpt>
      <trkpt lat="48.69697" lon="1.67647">
        <ele>144.80000305176</ele>
        <time>2014-10-31T13:19:02.000Z</time>
      </trkpt>
      <trkpt lat="48.69701" lon="1.67669">
        <ele>144.80000305176</ele>
        <time>2014-10-31T13:19:11.000Z</time>
      </trkpt>
      <trkpt lat="48.69704" lon="1.67689">
        <ele>145.19999694824</ele>
        <time>2014-10-31T13:19:20.000Z</time>
      </trkpt>
      <trkpt lat="48.69707" lon="1.67708">
        <ele>145.60000610352</ele>
        <time>2014-10-31T13:19:29.000Z</time>
      </trkpt>
      <trkpt lat="48.69711" lon="1.67728">
        <ele>146</ele>
        <time>2014-10-31T13:19:38.000Z</time>
      </trkpt>
      <trkpt lat="48.69714" lon="1.67749">
        <ele>146.19999694824</ele>
        <time>2014-10-31T13:19:47.000Z</time>
      </trkpt>
      <trkpt lat="48.69718" lon="1.67771">
        <ele>146.19999694824</ele>
        <time>2014-10-31T13:19:57.000Z</time>
      </trkpt>
      <trkpt lat="48.69722" lon="1.67788">
        <ele>146.19999694824</ele>
        <time>2014-10-31T13:20:05.000Z</time>
      </trkpt>
      <trkpt lat="48.69723" lon="1.67805">
        <ele>146.39999389648</ele>
        <time>2014-10-31T13:20:12.000Z</time>
      </trkpt>
      <trkpt lat="48.69726" lon="1.67829">
        <ele>146.39999389648</ele>
        <time>2014-10-31T13:20:22.000Z</time>
      </trkpt>
      <trkpt lat="48.69728" lon="1.67843">
        <ele>146.60000610352</ele>
        <time>2014-10-31T13:20:28.000Z</time>
      </trkpt>
      <trkpt lat="48.69733" lon="1.67867">
        <ele>146.60000610352</ele>
        <time>2014-10-31T13:20:39.000Z</time>
      </trkpt>
      <trkpt lat="48.69739" lon="1.67884">
        <ele>146.80000305176</ele>
        <time>2014-10-31T13:20:47.000Z</time>
      </trkpt>
      <trkpt lat="48.69739" lon="1.6789">
        <ele>146.80000305176</ele>
        <time>2014-10-31T13:20:50.000Z</time>
      </trkpt>
      <trkpt lat="48.69741" lon="1.67913">
        <ele>147</ele>
        <time>2014-10-31T13:21:00.000Z</time>
      </trkpt>
      <trkpt lat="48.69742" lon="1.67931">
        <ele>147</ele>
        <time>2014-10-31T13:21:07.000Z</time>
      </trkpt>
      <trkpt lat="48.69746" lon="1.67952">
        <ele>147.19999694824</ele>
        <time>2014-10-31T13:21:16.000Z</time>
      </trkpt>
      <trkpt lat="48.69749" lon="1.67972">
        <ele>147.19999694824</ele>
        <time>2014-10-31T13:21:24.000Z</time>
      </trkpt>
      <trkpt lat="48.69752" lon="1.67992">
        <ele>147.19999694824</ele>
        <time>2014-10-31T13:21:29.000Z</time>
      </trkpt>
      <trkpt lat="48.69756" lon="1.68024">
        <ele>146.60000610352</ele>
        <time>2014-10-31T13:21:35.000Z</time>
      </trkpt>
      <trkpt lat="48.6976" lon="1.68055">
        <ele>146</ele>
        <time>2014-10-31T13:21:41.000Z</time>
      </trkpt>
      <trkpt lat="48.69761" lon="1.68081">
        <ele>145.60000610352</ele>
        <time>2014-10-31T13:21:46.000Z</time>
      </trkpt>
      <trkpt lat="48.6976" lon="1.68121">
        <ele>145.60000610352</ele>
        <time>2014-10-31T13:21:52.000Z</time>
      </trkpt>
      <trkpt lat="48.69759" lon="1.68135">
        <ele>145.60000610352</ele>
        <time>2014-10-31T13:21:54.000Z</time>
      </trkpt>
      <trkpt lat="48.69755" lon="1.68177">
        <ele>145.80000305176</ele>
        <time>2014-10-31T13:22:00.000Z</time>
      </trkpt>
      <trkpt lat="48.69755" lon="1.68206">
        <ele>146.60000610352</ele>
        <time>2014-10-31T13:22:04.000Z</time>
      </trkpt>
      <trkpt lat="48.69755" lon="1.68253">
        <ele>147.19999694824</ele>
        <time>2014-10-31T13:22:10.000Z</time>
      </trkpt>
      <trkpt lat="48.69756" lon="1.68305">
        <ele>146.60000610352</ele>
        <time>2014-10-31T13:22:17.000Z</time>
      </trkpt>
      <trkpt lat="48.69756" lon="1.68343">
        <ele>147.19999694824</ele>
        <time>2014-10-31T13:22:22.000Z</time>
      </trkpt>
      <trkpt lat="48.69755" lon="1.68381">
        <ele>148</ele>
        <time>2014-10-31T13:22:27.000Z</time>
      </trkpt>
      <trkpt lat="48.69754" lon="1.68419">
        <ele>148.80000305176</ele>
        <time>2014-10-31T13:22:33.000Z</time>
      </trkpt>
      <trkpt lat="48.69749" lon="1.68465">
        <ele>149.19999694824</ele>
        <time>2014-10-31T13:22:41.000Z</time>
      </trkpt>
      <trkpt lat="48.69745" lon="1.68496">
        <ele>150</ele>
        <time>2014-10-31T13:22:47.000Z</time>
      </trkpt>
      <trkpt lat="48.69743" lon="1.68531">
        <ele>150</ele>
        <time>2014-10-31T13:22:54.000Z</time>
      </trkpt>
      <trkpt lat="48.69743" lon="1.68559">
        <ele>150.39999389648</ele>
        <time>2014-10-31T13:23:00.000Z</time>
      </trkpt>
      <trkpt lat="48.69743" lon="1.68592">
        <ele>150.19999694824</ele>
        <time>2014-10-31T13:23:07.000Z</time>
      </trkpt>
      <trkpt lat="48.69744" lon="1.68629">
        <ele>149.19999694824</ele>
        <time>2014-10-31T13:23:14.000Z</time>
      </trkpt>
      <trkpt lat="48.69742" lon="1.6866">
        <ele>148.80000305176</ele>
        <time>2014-10-31T13:23:20.000Z</time>
      </trkpt>
      <trkpt lat="48.69743" lon="1.68702">
        <ele>149.80000305176</ele>
        <time>2014-10-31T13:23:28.000Z</time>
      </trkpt>
      <trkpt lat="48.69743" lon="1.68739">
        <ele>151</ele>
        <time>2014-10-31T13:23:35.000Z</time>
      </trkpt>
      <trkpt lat="48.69745" lon="1.6878">
        <ele>151</ele>
        <time>2014-10-31T13:23:43.000Z</time>
      </trkpt>
      <trkpt lat="48.69746" lon="1.688">
        <ele>151</ele>
        <time>2014-10-31T13:23:47.000Z</time>
      </trkpt>
      <trkpt lat="48.69747" lon="1.68824">
        <ele>151.19999694824</ele>
        <time>2014-10-31T13:23:52.000Z</time>
      </trkpt>
      <trkpt lat="48.69748" lon="1.68843">
        <ele>151.39999389648</ele>
        <time>2014-10-31T13:23:57.000Z</time>
      </trkpt>
      <trkpt lat="48.69749" lon="1.68859">
        <ele>151.39999389648</ele>
        <time>2014-10-31T13:24:03.000Z</time>
      </trkpt>
      <trkpt lat="48.69748" lon="1.68879">
        <ele>151.80000305176</ele>
        <time>2014-10-31T13:24:10.000Z</time>
      </trkpt>
      <trkpt lat="48.69748" lon="1.68883">
        <ele>151.80000305176</ele>
        <time>2014-10-31T13:24:12.000Z</time>
      </trkpt>
      <trkpt lat="48.6975" lon="1.68901">
        <ele>151.80000305176</ele>
        <time>2014-10-31T13:24:20.000Z</time>
      </trkpt>
      <trkpt lat="48.6975" lon="1.68912">
        <ele>151.80000305176</ele>
        <time>2014-10-31T13:24:26.000Z</time>
      </trkpt>
      <trkpt lat="48.69751" lon="1.68932">
        <ele>152</ele>
        <time>2014-10-31T13:24:34.000Z</time>
      </trkpt>
      <trkpt lat="48.69752" lon="1.68944">
        <ele>152.19999694824</ele>
        <time>2014-10-31T13:24:40.000Z</time>
      </trkpt>
      <trkpt lat="48.69753" lon="1.68956">
        <ele>152.19999694824</ele>
        <time>2014-10-31T13:24:46.000Z</time>
      </trkpt>
      <trkpt lat="48.69753" lon="1.68971">
        <ele>152.39999389648</ele>
        <time>2014-10-31T13:24:53.000Z</time>
      </trkpt>
      <trkpt lat="48.69751" lon="1.68985">
        <ele>152.39999389648</ele>
        <time>2014-10-31T13:24:58.000Z</time>
      </trkpt>
      <trkpt lat="48.6975" lon="1.69">
        <ele>153</ele>
        <time>2014-10-31T13:25:04.000Z</time>
      </trkpt>
      <trkpt lat="48.6975" lon="1.69005">
        <ele>153.19999694824</ele>
        <time>2014-10-31T13:25:07.000Z</time>
      </trkpt>
      <trkpt lat="48.69751" lon="1.69008">
        <ele>153.19999694824</ele>
        <time>2014-10-31T13:25:10.000Z</time>
      </trkpt>
      <trkpt lat="48.69756" lon="1.69029">
        <ele>153.80000305176</ele>
        <time>2014-10-31T13:25:19.000Z</time>
      </trkpt>
      <trkpt lat="48.69756" lon="1.69032">
        <ele>154</ele>
        <time>2014-10-31T13:25:21.000Z</time>
      </trkpt>
      <trkpt lat="48.69758" lon="1.69047">
        <ele>154.39999389648</ele>
        <time>2014-10-31T13:25:29.000Z</time>
      </trkpt>
      <trkpt lat="48.69759" lon="1.69053">
        <ele>154.60000610352</ele>
        <time>2014-10-31T13:25:34.000Z</time>
      </trkpt>
      <trkpt lat="48.69759" lon="1.69054">
        <ele>154.80000305176</ele>
        <time>2014-10-31T13:25:35.000Z</time>
      </trkpt>
      <trkpt lat="48.6976" lon="1.69066">
        <ele>155</ele>
        <time>2014-10-31T13:25:40.000Z</time>
      </trkpt>
      <trkpt lat="48.69759" lon="1.69073">
        <ele>155</ele>
        <time>2014-10-31T13:25:43.000Z</time>
      </trkpt>
      <trkpt lat="48.69761" lon="1.6909">
        <ele>155.19999694824</ele>
        <time>2014-10-31T13:25:51.000Z</time>
      </trkpt>
      <trkpt lat="48.69761" lon="1.69093">
        <ele>155.19999694824</ele>
        <time>2014-10-31T13:25:52.000Z</time>
      </trkpt>
      <trkpt lat="48.69763" lon="1.69105">
        <ele>155.39999389648</ele>
        <time>2014-10-31T13:25:57.000Z</time>
      </trkpt>
      <trkpt lat="48.69763" lon="1.69122">
        <ele>155.60000610352</ele>
        <time>2014-10-31T13:26:03.000Z</time>
      </trkpt>
      <trkpt lat="48.69764" lon="1.69126">
        <ele>155.60000610352</ele>
        <time>2014-10-31T13:26:06.000Z</time>
      </trkpt>
      <trkpt lat="48.69766" lon="1.69145">
        <ele>155.80000305176</ele>
        <time>2014-10-31T13:26:14.000Z</time>
      </trkpt>
      <trkpt lat="48.69766" lon="1.69147">
        <ele>156</ele>
        <time>2014-10-31T13:26:15.000Z</time>
      </trkpt>
      <trkpt lat="48.69766" lon="1.6915">
        <ele>156</ele>
        <time>2014-10-31T13:26:17.000Z</time>
      </trkpt>
      <trkpt lat="48.69767" lon="1.69162">
        <ele>156</ele>
        <time>2014-10-31T13:26:22.000Z</time>
      </trkpt>
      <trkpt lat="48.69768" lon="1.69186">
        <ele>156</ele>
        <time>2014-10-31T13:26:31.000Z</time>
      </trkpt>
      <trkpt lat="48.69771" lon="1.69195">
        <ele>156</ele>
        <time>2014-10-31T13:26:35.000Z</time>
      </trkpt>
      <trkpt lat="48.69773" lon="1.69202">
        <ele>156</ele>
        <time>2014-10-31T13:26:38.000Z</time>
      </trkpt>
      <trkpt lat="48.69775" lon="1.69218">
        <ele>156.19999694824</ele>
        <time>2014-10-31T13:26:46.000Z</time>
      </trkpt>
      <trkpt lat="48.69778" lon="1.69233">
        <ele>156.19999694824</ele>
        <time>2014-10-31T13:26:52.000Z</time>
      </trkpt>
      <trkpt lat="48.69782" lon="1.69252">
        <ele>156.39999389648</ele>
        <time>2014-10-31T13:27:02.000Z</time>
      </trkpt>
      <trkpt lat="48.69783" lon="1.69263">
        <ele>156.39999389648</ele>
        <time>2014-10-31T13:27:08.000Z</time>
      </trkpt>
      <trkpt lat="48.69786" lon="1.69275">
        <ele>156.19999694824</ele>
        <time>2014-10-31T13:27:14.000Z</time>
      </trkpt>
      <trkpt lat="48.69787" lon="1.69293">
        <ele>156.19999694824</ele>
        <time>2014-10-31T13:27:21.000Z</time>
      </trkpt>
      <trkpt lat="48.69789" lon="1.69308">
        <ele>156</ele>
        <time>2014-10-31T13:27:28.000Z</time>
      </trkpt>
      <trkpt lat="48.69793" lon="1.69324">
        <ele>156.19999694824</ele>
        <time>2014-10-31T13:27:36.000Z</time>
      </trkpt>
      <trkpt lat="48.69794" lon="1.69329">
        <ele>156.60000610352</ele>
        <time>2014-10-31T13:27:39.000Z</time>
      </trkpt>
      <trkpt lat="48.69796" lon="1.69336">
        <ele>156.80000305176</ele>
        <time>2014-10-31T13:27:44.000Z</time>
      </trkpt>
      <trkpt lat="48.698" lon="1.69344">
        <ele>157.39999389648</ele>
        <time>2014-10-31T13:27:51.000Z</time>
      </trkpt>
      <trkpt lat="48.69803" lon="1.6935">
        <ele>157.60000610352</ele>
        <time>2014-10-31T13:27:55.000Z</time>
      </trkpt>
      <trkpt lat="48.69806" lon="1.69372">
        <ele>157.80000305176</ele>
        <time>2014-10-31T13:28:01.000Z</time>
      </trkpt>
      <trkpt lat="48.69806" lon="1.69375">
        <ele>157.80000305176</ele>
        <time>2014-10-31T13:28:02.000Z</time>
      </trkpt>
      <trkpt lat="48.69808" lon="1.69389">
        <ele>157.80000305176</ele>
        <time>2014-10-31T13:28:09.000Z</time>
      </trkpt>
      <trkpt lat="48.6981" lon="1.69393">
        <ele>158</ele>
        <time>2014-10-31T13:28:12.000Z</time>
      </trkpt>
      <trkpt lat="48.69815" lon="1.69403">
        <ele>158.19999694824</ele>
        <time>2014-10-31T13:28:19.000Z</time>
      </trkpt>
      <trkpt lat="48.69817" lon="1.69422">
        <ele>159</ele>
        <time>2014-10-31T13:28:25.000Z</time>
      </trkpt>
      <trkpt lat="48.69817" lon="1.69424">
        <ele>159</ele>
        <time>2014-10-31T13:28:26.000Z</time>
      </trkpt>
      <trkpt lat="48.69819" lon="1.69433">
        <ele>159.39999389648</ele>
        <time>2014-10-31T13:28:30.000Z</time>
      </trkpt>
      <trkpt lat="48.69822" lon="1.69441">
        <ele>160</ele>
        <time>2014-10-31T13:28:34.000Z</time>
      </trkpt>
      <trkpt lat="48.69825" lon="1.6945">
        <ele>160.39999389648</ele>
        <time>2014-10-31T13:28:40.000Z</time>
      </trkpt>
      <trkpt lat="48.69822" lon="1.69468">
        <ele>160.19999694824</ele>
        <time>2014-10-31T13:28:46.000Z</time>
      </trkpt>
      <trkpt lat="48.69823" lon="1.69472">
        <ele>160.39999389648</ele>
        <time>2014-10-31T13:28:48.000Z</time>
      </trkpt>
      <trkpt lat="48.69827" lon="1.69487">
        <ele>160.80000305176</ele>
        <time>2014-10-31T13:28:55.000Z</time>
      </trkpt>
      <trkpt lat="48.69832" lon="1.69501">
        <ele>161.19999694824</ele>
        <time>2014-10-31T13:29:02.000Z</time>
      </trkpt>
      <trkpt lat="48.69833" lon="1.69505">
        <ele>161.19999694824</ele>
        <time>2014-10-31T13:29:04.000Z</time>
      </trkpt>
      <trkpt lat="48.69835" lon="1.69512">
        <ele>161.19999694824</ele>
        <time>2014-10-31T13:29:07.000Z</time>
      </trkpt>
      <trkpt lat="48.69838" lon="1.69524">
        <ele>161.19999694824</ele>
        <time>2014-10-31T13:29:12.000Z</time>
      </trkpt>
      <trkpt lat="48.69839" lon="1.69528">
        <ele>161.19999694824</ele>
        <time>2014-10-31T13:29:15.000Z</time>
      </trkpt>
      <trkpt lat="48.69839" lon="1.69531">
        <ele>161.19999694824</ele>
        <time>2014-10-31T13:29:17.000Z</time>
      </trkpt>
      <trkpt lat="48.69843" lon="1.69548">
        <ele>161.39999389648</ele>
        <time>2014-10-31T13:29:24.000Z</time>
      </trkpt>
      <trkpt lat="48.69846" lon="1.69557">
        <ele>161.39999389648</ele>
        <time>2014-10-31T13:29:29.000Z</time>
      </trkpt>
      <trkpt lat="48.6985" lon="1.69569">
        <ele>161.80000305176</ele>
        <time>2014-10-31T13:29:35.000Z</time>
      </trkpt>
      <trkpt lat="48.69856" lon="1.69583">
        <ele>162</ele>
        <time>2014-10-31T13:29:41.000Z</time>
      </trkpt>
      <trkpt lat="48.69859" lon="1.6959">
        <ele>162</ele>
        <time>2014-10-31T13:29:44.000Z</time>
      </trkpt>
      <trkpt lat="48.6986" lon="1.69594">
        <ele>162</ele>
        <time>2014-10-31T13:29:46.000Z</time>
      </trkpt>
      <trkpt lat="48.69866" lon="1.69614">
        <ele>162</ele>
        <time>2014-10-31T13:29:56.000Z</time>
      </trkpt>
      <trkpt lat="48.69867" lon="1.69631">
        <ele>161.80000305176</ele>
        <time>2014-10-31T13:30:02.000Z</time>
      </trkpt>
      <trkpt lat="48.6987" lon="1.69647">
        <ele>161.60000610352</ele>
        <time>2014-10-31T13:30:09.000Z</time>
      </trkpt>
      <trkpt lat="48.69878" lon="1.6966">
        <ele>162.19999694824</ele>
        <time>2014-10-31T13:30:16.000Z</time>
      </trkpt>
      <trkpt lat="48.69883" lon="1.69669">
        <ele>162.80000305176</ele>
        <time>2014-10-31T13:30:21.000Z</time>
      </trkpt>
      <trkpt lat="48.69887" lon="1.69675">
        <ele>163.19999694824</ele>
        <time>2014-10-31T13:30:25.000Z</time>
      </trkpt>
      <trkpt lat="48.69889" lon="1.69689">
        <ele>164</ele>
        <time>2014-10-31T13:30:31.000Z</time>
      </trkpt>
      <trkpt lat="48.69893" lon="1.69698">
        <ele>164.60000610352</ele>
        <time>2014-10-31T13:30:36.000Z</time>
      </trkpt>
      <trkpt lat="48.69896" lon="1.69706">
        <ele>165</ele>
        <time>2014-10-31T13:30:40.000Z</time>
      </trkpt>
      <trkpt lat="48.69902" lon="1.69718">
        <ele>165.80000305176</ele>
        <time>2014-10-31T13:30:46.000Z</time>
      </trkpt>
      <trkpt lat="48.69904" lon="1.69729">
        <ele>166.39999389648</ele>
        <time>2014-10-31T13:30:51.000Z</time>
      </trkpt>
      <trkpt lat="48.69908" lon="1.69743">
        <ele>167.39999389648</ele>
        <time>2014-10-31T13:30:58.000Z</time>
      </trkpt>
      <trkpt lat="48.69913" lon="1.69752">
        <ele>168</ele>
        <time>2014-10-31T13:31:03.000Z</time>
      </trkpt>
      <trkpt lat="48.69917" lon="1.69756">
        <ele>168.39999389648</ele>
        <time>2014-10-31T13:31:06.000Z</time>
      </trkpt>
      <trkpt lat="48.69921" lon="1.69772">
        <ele>169.60000610352</ele>
        <time>2014-10-31T13:31:13.000Z</time>
      </trkpt>
      <trkpt lat="48.69921" lon="1.69778">
        <ele>170</ele>
        <time>2014-10-31T13:31:16.000Z</time>
      </trkpt>
      <trkpt lat="48.69925" lon="1.69789">
        <ele>170.80000305176</ele>
        <time>2014-10-31T13:31:21.000Z</time>
      </trkpt>
      <trkpt lat="48.69927" lon="1.69793">
        <ele>171</ele>
        <time>2014-10-31T13:31:23.000Z</time>
      </trkpt>
      <trkpt lat="48.69931" lon="1.69815">
        <ele>172.39999389648</ele>
        <time>2014-10-31T13:31:32.000Z</time>
      </trkpt>
      <trkpt lat="48.69935" lon="1.69828">
        <ele>173.19999694824</ele>
        <time>2014-10-31T13:31:39.000Z</time>
      </trkpt>
      <trkpt lat="48.69936" lon="1.69834">
        <ele>173.39999389648</ele>
        <time>2014-10-31T13:31:42.000Z</time>
      </trkpt>
      <trkpt lat="48.6994" lon="1.69844">
        <ele>173.80000305176</ele>
        <time>2014-10-31T13:31:49.000Z</time>
      </trkpt>
      <trkpt lat="48.69944" lon="1.69853">
        <ele>174.19999694824</ele>
        <time>2014-10-31T13:31:54.000Z</time>
      </trkpt>
      <trkpt lat="48.69945" lon="1.69855">
        <ele>174.19999694824</ele>
        <time>2014-10-31T13:31:55.000Z</time>
      </trkpt>
      <trkpt lat="48.69949" lon="1.6987">
        <ele>174.60000610352</ele>
        <time>2014-10-31T13:32:02.000Z</time>
      </trkpt>
      <trkpt lat="48.69958" lon="1.69882">
        <ele>175</ele>
        <time>2014-10-31T13:32:10.000Z</time>
      </trkpt>
      <trkpt lat="48.69965" lon="1.69896">
        <ele>175.39999389648</ele>
        <time>2014-10-31T13:32:17.000Z</time>
      </trkpt>
      <trkpt lat="48.69969" lon="1.69908">
        <ele>175.80000305176</ele>
        <time>2014-10-31T13:32:23.000Z</time>
      </trkpt>
      <trkpt lat="48.69973" lon="1.69922">
        <ele>176</ele>
        <time>2014-10-31T13:32:30.000Z</time>
      </trkpt>
      <trkpt lat="48.69982" lon="1.69929">
        <ele>176</ele>
        <time>2014-10-31T13:32:36.000Z</time>
      </trkpt>
      <trkpt lat="48.69984" lon="1.69931">
        <ele>176.19999694824</ele>
        <time>2014-10-31T13:32:38.000Z</time>
      </trkpt>
      <trkpt lat="48.69992" lon="1.69939">
        <ele>176.19999694824</ele>
        <time>2014-10-31T13:32:46.000Z</time>
      </trkpt>
      <trkpt lat="48.69993" lon="1.6994">
        <ele>176.19999694824</ele>
        <time>2014-10-31T13:32:47.000Z</time>
      </trkpt>
      <trkpt lat="48.69999" lon="1.69958">
        <ele>176.60000610352</ele>
        <time>2014-10-31T13:32:55.000Z</time>
      </trkpt>
      <trkpt lat="48.70002" lon="1.69968">
        <ele>176.80000305176</ele>
        <time>2014-10-31T13:33:00.000Z</time>
      </trkpt>
      <trkpt lat="48.70011" lon="1.69986">
        <ele>177</ele>
        <time>2014-10-31T13:33:09.000Z</time>
      </trkpt>
      <trkpt lat="48.70019" lon="1.69995">
        <ele>177.19999694824</ele>
        <time>2014-10-31T13:33:15.000Z</time>
      </trkpt>
      <trkpt lat="48.70021" lon="1.69996">
        <ele>177.19999694824</ele>
        <time>2014-10-31T13:33:16.000Z</time>
      </trkpt>
      <trkpt lat="48.70029" lon="1.70006">
        <ele>177.60000610352</ele>
        <time>2014-10-31T13:33:22.000Z</time>
      </trkpt>
      <trkpt lat="48.70042" lon="1.70018">
        <ele>178.19999694824</ele>
        <time>2014-10-31T13:33:30.000Z</time>
      </trkpt>
      <trkpt lat="48.7005" lon="1.7003">
        <ele>178.60000610352</ele>
        <time>2014-10-31T13:33:38.000Z</time>
      </trkpt>
      <trkpt lat="48.70057" lon="1.70037">
        <ele>179</ele>
        <time>2014-10-31T13:33:44.000Z</time>
      </trkpt>
      <trkpt lat="48.70062" lon="1.70049">
        <ele>179.19999694824</ele>
        <time>2014-10-31T13:33:48.000Z</time>
      </trkpt>
      <trkpt lat="48.70068" lon="1.70061">
        <ele>179.60000610352</ele>
        <time>2014-10-31T13:33:55.000Z</time>
      </trkpt>
      <trkpt lat="48.70073" lon="1.70066">
        <ele>179.80000305176</ele>
        <time>2014-10-31T13:34:00.000Z</time>
      </trkpt>
      <trkpt lat="48.70084" lon="1.70078">
        <ele>180</ele>
        <time>2014-10-31T13:34:07.000Z</time>
      </trkpt>
      <trkpt lat="48.70088" lon="1.70087">
        <ele>179.80000305176</ele>
        <time>2014-10-31T13:34:12.000Z</time>
      </trkpt>
      <trkpt lat="48.70094" lon="1.70096">
        <ele>179.80000305176</ele>
        <time>2014-10-31T13:34:18.000Z</time>
      </trkpt>
      <trkpt lat="48.70103" lon="1.70108">
        <ele>179.60000610352</ele>
        <time>2014-10-31T13:34:25.000Z</time>
      </trkpt>
      <trkpt lat="48.70109" lon="1.70122">
        <ele>179.19999694824</ele>
        <time>2014-10-31T13:34:31.000Z</time>
      </trkpt>
      <trkpt lat="48.70112" lon="1.70134">
        <ele>178.80000305176</ele>
        <time>2014-10-31T13:34:37.000Z</time>
      </trkpt>
      <trkpt lat="48.70119" lon="1.70143">
        <ele>178.60000610352</ele>
        <time>2014-10-31T13:34:44.000Z</time>
      </trkpt>
      <trkpt lat="48.70124" lon="1.70155">
        <ele>178.19999694824</ele>
        <time>2014-10-31T13:34:49.000Z</time>
      </trkpt>
      <trkpt lat="48.70128" lon="1.70164">
        <ele>178</ele>
        <time>2014-10-31T13:34:53.000Z</time>
      </trkpt>
      <trkpt lat="48.70132" lon="1.70181">
        <ele>177.60000610352</ele>
        <time>2014-10-31T13:35:00.000Z</time>
      </trkpt>
      <trkpt lat="48.70135" lon="1.70191">
        <ele>177.39999389648</ele>
        <time>2014-10-31T13:35:05.000Z</time>
      </trkpt>
      <trkpt lat="48.70139" lon="1.70202">
        <ele>177.19999694824</ele>
        <time>2014-10-31T13:35:11.000Z</time>
      </trkpt>
      <trkpt lat="48.70143" lon="1.70214">
        <ele>177</ele>
        <time>2014-10-31T13:35:18.000Z</time>
      </trkpt>
      <trkpt lat="48.70147" lon="1.70225">
        <ele>176.80000305176</ele>
        <time>2014-10-31T13:35:24.000Z</time>
      </trkpt>
      <trkpt lat="48.70151" lon="1.70237">
        <ele>176.60000610352</ele>
        <time>2014-10-31T13:35:29.000Z</time>
      </trkpt>
      <trkpt lat="48.7016" lon="1.70254">
        <ele>176.80000305176</ele>
        <time>2014-10-31T13:35:37.000Z</time>
      </trkpt>
      <trkpt lat="48.70164" lon="1.70265">
        <ele>177</ele>
        <time>2014-10-31T13:35:43.000Z</time>
      </trkpt>
      <trkpt lat="48.70167" lon="1.70271">
        <ele>177.19999694824</ele>
        <time>2014-10-31T13:35:46.000Z</time>
      </trkpt>
      <trkpt lat="48.70171" lon="1.7028">
        <ele>177.39999389648</ele>
        <time>2014-10-31T13:35:52.000Z</time>
      </trkpt>
      <trkpt lat="48.70177" lon="1.70288">
        <ele>177.60000610352</ele>
        <time>2014-10-31T13:35:59.000Z</time>
      </trkpt>
      <trkpt lat="48.70178" lon="1.70289">
        <ele>177.60000610352</ele>
        <time>2014-10-31T13:36:00.000Z</time>
      </trkpt>
      <trkpt lat="48.70179" lon="1.70307">
        <ele>177.80000305176</ele>
        <time>2014-10-31T13:36:06.000Z</time>
      </trkpt>
      <trkpt lat="48.70184" lon="1.70321">
        <ele>178</ele>
        <time>2014-10-31T13:36:14.000Z</time>
      </trkpt>
      <trkpt lat="48.70187" lon="1.70324">
        <ele>178</ele>
        <time>2014-10-31T13:36:17.000Z</time>
      </trkpt>
      <trkpt lat="48.70188" lon="1.70332">
        <ele>178.19999694824</ele>
        <time>2014-10-31T13:36:21.000Z</time>
      </trkpt>
      <trkpt lat="48.70189" lon="1.70347">
        <ele>178.39999389648</ele>
        <time>2014-10-31T13:36:26.000Z</time>
      </trkpt>
      <trkpt lat="48.70192" lon="1.7036">
        <ele>178.80000305176</ele>
        <time>2014-10-31T13:36:30.000Z</time>
      </trkpt>
      <trkpt lat="48.70194" lon="1.7037">
        <ele>179</ele>
        <time>2014-10-31T13:36:34.000Z</time>
      </trkpt>
      <trkpt lat="48.70196" lon="1.70386">
        <ele>179.39999389648</ele>
        <time>2014-10-31T13:36:40.000Z</time>
      </trkpt>
      <trkpt lat="48.70193" lon="1.70402">
        <ele>179.39999389648</ele>
        <time>2014-10-31T13:36:46.000Z</time>
      </trkpt>
      <trkpt lat="48.70188" lon="1.7042">
        <ele>178.80000305176</ele>
        <time>2014-10-31T13:36:54.000Z</time>
      </trkpt>
      <trkpt lat="48.70187" lon="1.70434">
        <ele>178.60000610352</ele>
        <time>2014-10-31T13:37:01.000Z</time>
      </trkpt>
      <trkpt lat="48.70184" lon="1.70448">
        <ele>178.39999389648</ele>
        <time>2014-10-31T13:37:07.000Z</time>
      </trkpt>
      <trkpt lat="48.7018" lon="1.70457">
        <ele>178.19999694824</ele>
        <time>2014-10-31T13:37:11.000Z</time>
      </trkpt>
      <trkpt lat="48.70178" lon="1.70473">
        <ele>177.80000305176</ele>
        <time>2014-10-31T13:37:17.000Z</time>
      </trkpt>
      <trkpt lat="48.70176" lon="1.70477">
        <ele>177.80000305176</ele>
        <time>2014-10-31T13:37:19.000Z</time>
      </trkpt>
      <trkpt lat="48.7017" lon="1.70495">
        <ele>177.39999389648</ele>
        <time>2014-10-31T13:37:28.000Z</time>
      </trkpt>
      <trkpt lat="48.70163" lon="1.70512">
        <ele>177.19999694824</ele>
        <time>2014-10-31T13:37:36.000Z</time>
      </trkpt>
      <trkpt lat="48.70159" lon="1.70527">
        <ele>176.80000305176</ele>
        <time>2014-10-31T13:37:43.000Z</time>
      </trkpt>
      <trkpt lat="48.70154" lon="1.70543">
        <ele>176.60000610352</ele>
        <time>2014-10-31T13:37:50.000Z</time>
      </trkpt>
      <trkpt lat="48.70152" lon="1.7056">
        <ele>176.80000305176</ele>
        <time>2014-10-31T13:37:57.000Z</time>
      </trkpt>
      <trkpt lat="48.70151" lon="1.70567">
        <ele>177</ele>
        <time>2014-10-31T13:38:00.000Z</time>
      </trkpt>
      <trkpt lat="48.70147" lon="1.70581">
        <ele>177.19999694824</ele>
        <time>2014-10-31T13:38:07.000Z</time>
      </trkpt>
      <trkpt lat="48.70147" lon="1.70583">
        <ele>177.19999694824</ele>
        <time>2014-10-31T13:38:08.000Z</time>
      </trkpt>
      <trkpt lat="48.70142" lon="1.70595">
        <ele>177.39999389648</ele>
        <time>2014-10-31T13:38:15.000Z</time>
      </trkpt>
      <trkpt lat="48.70138" lon="1.7061">
        <ele>177.39999389648</ele>
        <time>2014-10-31T13:38:22.000Z</time>
      </trkpt>
      <trkpt lat="48.70136" lon="1.70625">
        <ele>177.39999389648</ele>
        <time>2014-10-31T13:38:29.000Z</time>
      </trkpt>
      <trkpt lat="48.70131" lon="1.70639">
        <ele>177.39999389648</ele>
        <time>2014-10-31T13:38:36.000Z</time>
      </trkpt>
      <trkpt lat="48.70126" lon="1.70654">
        <ele>177.19999694824</ele>
        <time>2014-10-31T13:38:44.000Z</time>
      </trkpt>
      <trkpt lat="48.70121" lon="1.70677">
        <ele>178</ele>
        <time>2014-10-31T13:38:53.000Z</time>
      </trkpt>
      <trkpt lat="48.70115" lon="1.70693">
        <ele>178</ele>
        <time>2014-10-31T13:39:01.000Z</time>
      </trkpt>
      <trkpt lat="48.70112" lon="1.70707">
        <ele>178</ele>
        <time>2014-10-31T13:39:07.000Z</time>
      </trkpt>
      <trkpt lat="48.70109" lon="1.7072">
        <ele>178</ele>
        <time>2014-10-31T13:39:13.000Z</time>
      </trkpt>
      <trkpt lat="48.70105" lon="1.7073">
        <ele>178</ele>
        <time>2014-10-31T13:39:19.000Z</time>
      </trkpt>
      <trkpt lat="48.70105" lon="1.70733">
        <ele>178</ele>
        <time>2014-10-31T13:39:21.000Z</time>
      </trkpt>
      <trkpt lat="48.701" lon="1.70751">
        <ele>177.80000305176</ele>
        <time>2014-10-31T13:39:29.000Z</time>
      </trkpt>
      <trkpt lat="48.70094" lon="1.70768">
        <ele>177.60000610352</ele>
        <time>2014-10-31T13:39:37.000Z</time>
      </trkpt>
      <trkpt lat="48.70091" lon="1.70784">
        <ele>177.60000610352</ele>
        <time>2014-10-31T13:39:43.000Z</time>
      </trkpt>
      <trkpt lat="48.70086" lon="1.70796">
        <ele>177.39999389648</ele>
        <time>2014-10-31T13:39:49.000Z</time>
      </trkpt>
      <trkpt lat="48.7008" lon="1.70817">
        <ele>177.80000305176</ele>
        <time>2014-10-31T13:39:58.000Z</time>
      </trkpt>
      <trkpt lat="48.70076" lon="1.70834">
        <ele>177.60000610352</ele>
        <time>2014-10-31T13:40:06.000Z</time>
      </trkpt>
      <trkpt lat="48.70072" lon="1.70846">
        <ele>177.39999389648</ele>
        <time>2014-10-31T13:40:12.000Z</time>
      </trkpt>
      <trkpt lat="48.70067" lon="1.70859">
        <ele>177</ele>
        <time>2014-10-31T13:40:18.000Z</time>
      </trkpt>
      <trkpt lat="48.70062" lon="1.70871">
        <ele>177.19999694824</ele>
        <time>2014-10-31T13:40:26.000Z</time>
      </trkpt>
      <trkpt lat="48.70058" lon="1.70882">
        <ele>177.39999389648</ele>
        <time>2014-10-31T13:40:33.000Z</time>
      </trkpt>
      <trkpt lat="48.70054" lon="1.70894">
        <ele>177.60000610352</ele>
        <time>2014-10-31T13:40:40.000Z</time>
      </trkpt>
      <trkpt lat="48.70048" lon="1.70911">
        <ele>178</ele>
        <time>2014-10-31T13:40:49.000Z</time>
      </trkpt>
      <trkpt lat="48.70045" lon="1.7092">
        <ele>178.19999694824</ele>
        <time>2014-10-31T13:40:52.000Z</time>
      </trkpt>
      <trkpt lat="48.70042" lon="1.70938">
        <ele>177.80000305176</ele>
        <time>2014-10-31T13:40:58.000Z</time>
      </trkpt>
      <trkpt lat="48.70038" lon="1.70958">
        <ele>177</ele>
        <time>2014-10-31T13:41:06.000Z</time>
      </trkpt>
      <trkpt lat="48.70034" lon="1.70974">
        <ele>176.39999389648</ele>
        <time>2014-10-31T13:41:12.000Z</time>
      </trkpt>
      <trkpt lat="48.70033" lon="1.70979">
        <ele>176.19999694824</ele>
        <time>2014-10-31T13:41:14.000Z</time>
      </trkpt>
      <trkpt lat="48.70029" lon="1.7099">
        <ele>176</ele>
        <time>2014-10-31T13:41:19.000Z</time>
      </trkpt>
      <trkpt lat="48.70029" lon="1.70993">
        <ele>176.19999694824</ele>
        <time>2014-10-31T13:41:20.000Z</time>
      </trkpt>
      <trkpt lat="48.70023" lon="1.7101">
        <ele>176</ele>
        <time>2014-10-31T13:41:28.000Z</time>
      </trkpt>
      <trkpt lat="48.70021" lon="1.71013">
        <ele>176</ele>
        <time>2014-10-31T13:41:32.000Z</time>
      </trkpt>
      <trkpt lat="48.70018" lon="1.71027">
        <ele>176</ele>
        <time>2014-10-31T13:41:46.000Z</time>
      </trkpt>
      <trkpt lat="48.70016" lon="1.7103">
        <ele>176</ele>
        <time>2014-10-31T13:41:47.000Z</time>
      </trkpt>
      <trkpt lat="48.70012" lon="1.7104">
        <ele>175.80000305176</ele>
        <time>2014-10-31T13:41:54.000Z</time>
      </trkpt>
      <trkpt lat="48.70006" lon="1.71062">
        <ele>175.80000305176</ele>
        <time>2014-10-31T13:42:03.000Z</time>
      </trkpt>
      <trkpt lat="48.70001" lon="1.71078">
        <ele>175.39999389648</ele>
        <time>2014-10-31T13:42:11.000Z</time>
      </trkpt>
      <trkpt lat="48.69998" lon="1.71096">
        <ele>175.19999694824</ele>
        <time>2014-10-31T13:42:17.000Z</time>
      </trkpt>
      <trkpt lat="48.69994" lon="1.71113">
        <ele>175</ele>
        <time>2014-10-31T13:42:23.000Z</time>
      </trkpt>
      <trkpt lat="48.69986" lon="1.71139">
        <ele>175.19999694824</ele>
        <time>2014-10-31T13:42:29.000Z</time>
      </trkpt>
      <trkpt lat="48.69979" lon="1.71162">
        <ele>175.39999389648</ele>
        <time>2014-10-31T13:42:34.000Z</time>
      </trkpt>
      <trkpt lat="48.69972" lon="1.71187">
        <ele>174.60000610352</ele>
        <time>2014-10-31T13:42:39.000Z</time>
      </trkpt>
      <trkpt lat="48.69963" lon="1.71213">
        <ele>174.19999694824</ele>
        <time>2014-10-31T13:42:45.000Z</time>
      </trkpt>
      <trkpt lat="48.69952" lon="1.71258">
        <ele>174</ele>
        <time>2014-10-31T13:42:52.000Z</time>
      </trkpt>
      <trkpt lat="48.69947" lon="1.71279">
        <ele>174</ele>
        <time>2014-10-31T13:42:56.000Z</time>
      </trkpt>
      <trkpt lat="48.69939" lon="1.71306">
        <ele>174</ele>
        <time>2014-10-31T13:43:01.000Z</time>
      </trkpt>
      <trkpt lat="48.69932" lon="1.71331">
        <ele>173.60000610352</ele>
        <time>2014-10-31T13:43:06.000Z</time>
      </trkpt>
      <trkpt lat="48.69923" lon="1.71361">
        <ele>172.60000610352</ele>
        <time>2014-10-31T13:43:11.000Z</time>
      </trkpt>
      <trkpt lat="48.69919" lon="1.71373">
        <ele>172</ele>
        <time>2014-10-31T13:43:13.000Z</time>
      </trkpt>
      <trkpt lat="48.69912" lon="1.71397">
        <ele>171.60000610352</ele>
        <time>2014-10-31T13:43:18.000Z</time>
      </trkpt>
      <trkpt lat="48.69909" lon="1.71406">
        <ele>171.60000610352</ele>
        <time>2014-10-31T13:43:20.000Z</time>
      </trkpt>
      <trkpt lat="48.69902" lon="1.71432">
        <ele>171.80000305176</ele>
        <time>2014-10-31T13:43:26.000Z</time>
      </trkpt>
      <trkpt lat="48.69894" lon="1.71456">
        <ele>172</ele>
        <time>2014-10-31T13:43:31.000Z</time>
      </trkpt>
      <trkpt lat="48.69886" lon="1.71481">
        <ele>172.19999694824</ele>
        <time>2014-10-31T13:43:36.000Z</time>
      </trkpt>
      <trkpt lat="48.69879" lon="1.71501">
        <ele>172.80000305176</ele>
        <time>2014-10-31T13:43:41.000Z</time>
      </trkpt>
      <trkpt lat="48.69871" lon="1.71533">
        <ele>173</ele>
        <time>2014-10-31T13:43:47.000Z</time>
      </trkpt>
      <trkpt lat="48.69865" lon="1.71561">
        <ele>173</ele>
        <time>2014-10-31T13:43:52.000Z</time>
      </trkpt>
      <trkpt lat="48.69858" lon="1.71586">
        <ele>172.80000305176</ele>
        <time>2014-10-31T13:43:57.000Z</time>
      </trkpt>
      <trkpt lat="48.69852" lon="1.71604">
        <ele>173</ele>
        <time>2014-10-31T13:44:01.000Z</time>
      </trkpt>
      <trkpt lat="48.69842" lon="1.7163">
        <ele>173.19999694824</ele>
        <time>2014-10-31T13:44:08.000Z</time>
      </trkpt>
      <trkpt lat="48.69839" lon="1.71641">
        <ele>173.19999694824</ele>
        <time>2014-10-31T13:44:12.000Z</time>
      </trkpt>
      <trkpt lat="48.69838" lon="1.71651">
        <ele>173.39999389648</ele>
        <time>2014-10-31T13:44:17.000Z</time>
      </trkpt>
      <trkpt lat="48.69834" lon="1.71665">
        <ele>173.39999389648</ele>
        <time>2014-10-31T13:44:23.000Z</time>
      </trkpt>
      <trkpt lat="48.6983" lon="1.71679">
        <ele>173.19999694824</ele>
        <time>2014-10-31T13:44:29.000Z</time>
      </trkpt>
      <trkpt lat="48.69828" lon="1.71692">
        <ele>173.19999694824</ele>
        <time>2014-10-31T13:44:34.000Z</time>
      </trkpt>
      <trkpt lat="48.69828" lon="1.71699">
        <ele>173</ele>
        <time>2014-10-31T13:44:38.000Z</time>
      </trkpt>
      <trkpt lat="48.69827" lon="1.71717">
        <ele>172.80000305176</ele>
        <time>2014-10-31T13:44:46.000Z</time>
      </trkpt>
      <trkpt lat="48.69828" lon="1.71723">
        <ele>172.80000305176</ele>
        <time>2014-10-31T13:44:49.000Z</time>
      </trkpt>
      <trkpt lat="48.69838" lon="1.71731">
        <ele>172.39999389648</ele>
        <time>2014-10-31T13:44:56.000Z</time>
      </trkpt>
      <trkpt lat="48.69847" lon="1.71741">
        <ele>172</ele>
        <time>2014-10-31T13:45:03.000Z</time>
      </trkpt>
      <trkpt lat="48.69858" lon="1.7175">
        <ele>171.80000305176</ele>
        <time>2014-10-31T13:45:10.000Z</time>
      </trkpt>
      <trkpt lat="48.69861" lon="1.71754">
        <ele>171.80000305176</ele>
        <time>2014-10-31T13:45:12.000Z</time>
      </trkpt>
      <trkpt lat="48.69873" lon="1.71764">
        <ele>171.39999389648</ele>
        <time>2014-10-31T13:45:20.000Z</time>
      </trkpt>
      <trkpt lat="48.69882" lon="1.71774">
        <ele>171.19999694824</ele>
        <time>2014-10-31T13:45:27.000Z</time>
      </trkpt>
      <trkpt lat="48.69896" lon="1.71789">
        <ele>170.80000305176</ele>
        <time>2014-10-31T13:45:38.000Z</time>
      </trkpt>
      <trkpt lat="48.69905" lon="1.71799">
        <ele>170.60000610352</ele>
        <time>2014-10-31T13:45:45.000Z</time>
      </trkpt>
      <trkpt lat="48.69916" lon="1.71808">
        <ele>170.39999389648</ele>
        <time>2014-10-31T13:45:53.000Z</time>
      </trkpt>
      <trkpt lat="48.69928" lon="1.71818">
        <ele>170.19999694824</ele>
        <time>2014-10-31T13:46:02.000Z</time>
      </trkpt>
      <trkpt lat="48.69935" lon="1.71826">
        <ele>170</ele>
        <time>2014-10-31T13:46:08.000Z</time>
      </trkpt>
      <trkpt lat="48.69945" lon="1.71836">
        <ele>170.19999694824</ele>
        <time>2014-10-31T13:46:16.000Z</time>
      </trkpt>
      <trkpt lat="48.69954" lon="1.71845">
        <ele>170.39999389648</ele>
        <time>2014-10-31T13:46:23.000Z</time>
      </trkpt>
      <trkpt lat="48.69965" lon="1.71853">
        <ele>170.60000610352</ele>
        <time>2014-10-31T13:46:31.000Z</time>
      </trkpt>
      <trkpt lat="48.69976" lon="1.71864">
        <ele>171</ele>
        <time>2014-10-31T13:46:40.000Z</time>
      </trkpt>
      <trkpt lat="48.69987" lon="1.71876">
        <ele>171.19999694824</ele>
        <time>2014-10-31T13:46:49.000Z</time>
      </trkpt>
      <trkpt lat="48.70001" lon="1.7189">
        <ele>171.60000610352</ele>
        <time>2014-10-31T13:46:59.000Z</time>
      </trkpt>
      <trkpt lat="48.70011" lon="1.71902">
        <ele>171.80000305176</ele>
        <time>2014-10-31T13:47:07.000Z</time>
      </trkpt>
      <trkpt lat="48.7002" lon="1.71908">
        <ele>172</ele>
        <time>2014-10-31T13:47:13.000Z</time>
      </trkpt>
      <trkpt lat="48.70029" lon="1.71916">
        <ele>171.80000305176</ele>
        <time>2014-10-31T13:47:20.000Z</time>
      </trkpt>
      <trkpt lat="48.70037" lon="1.71925">
        <ele>171.80000305176</ele>
        <time>2014-10-31T13:47:27.000Z</time>
      </trkpt>
      <trkpt lat="48.70045" lon="1.71935">
        <ele>171.60000610352</ele>
        <time>2014-10-31T13:47:35.000Z</time>
      </trkpt>
      <trkpt lat="48.70058" lon="1.71949">
        <ele>171.60000610352</ele>
        <time>2014-10-31T13:47:44.000Z</time>
      </trkpt>
      <trkpt lat="48.70066" lon="1.71957">
        <ele>171.39999389648</ele>
        <time>2014-10-31T13:47:51.000Z</time>
      </trkpt>
      <trkpt lat="48.70078" lon="1.71966">
        <ele>171.39999389648</ele>
        <time>2014-10-31T13:47:59.000Z</time>
      </trkpt>
      <trkpt lat="48.70092" lon="1.71982">
        <ele>171.19999694824</ele>
        <time>2014-10-31T13:48:10.000Z</time>
      </trkpt>
      <trkpt lat="48.70099" lon="1.71989">
        <ele>171</ele>
        <time>2014-10-31T13:48:16.000Z</time>
      </trkpt>
      <trkpt lat="48.70108" lon="1.71998">
        <ele>171.19999694824</ele>
        <time>2014-10-31T13:48:23.000Z</time>
      </trkpt>
      <trkpt lat="48.70116" lon="1.7201">
        <ele>171.60000610352</ele>
        <time>2014-10-31T13:48:31.000Z</time>
      </trkpt>
      <trkpt lat="48.70123" lon="1.7202">
        <ele>171.80000305176</ele>
        <time>2014-10-31T13:48:38.000Z</time>
      </trkpt>
      <trkpt lat="48.7013" lon="1.72029">
        <ele>172.19999694824</ele>
        <time>2014-10-31T13:48:45.000Z</time>
      </trkpt>
      <trkpt lat="48.70138" lon="1.72037">
        <ele>172.39999389648</ele>
        <time>2014-10-31T13:48:51.000Z</time>
      </trkpt>
      <trkpt lat="48.70149" lon="1.72048">
        <ele>172.80000305176</ele>
        <time>2014-10-31T13:49:00.000Z</time>
      </trkpt>
      <trkpt lat="48.70158" lon="1.7206">
        <ele>173.19999694824</ele>
        <time>2014-10-31T13:49:08.000Z</time>
      </trkpt>
      <trkpt lat="48.70169" lon="1.72069">
        <ele>173.60000610352</ele>
        <time>2014-10-31T13:49:16.000Z</time>
      </trkpt>
      <trkpt lat="48.70181" lon="1.72077">
        <ele>174</ele>
        <time>2014-10-31T13:49:23.000Z</time>
      </trkpt>
      <trkpt lat="48.70195" lon="1.72088">
        <ele>175.19999694824</ele>
        <time>2014-10-31T13:49:33.000Z</time>
      </trkpt>
      <trkpt lat="48.70205" lon="1.72099">
        <ele>176.39999389648</ele>
        <time>2014-10-31T13:49:42.000Z</time>
      </trkpt>
      <trkpt lat="48.70214" lon="1.72104">
        <ele>177.39999389648</ele>
        <time>2014-10-31T13:49:49.000Z</time>
      </trkpt>
      <trkpt lat="48.70214" lon="1.72105">
        <ele>177.39999389648</ele>
        <time>2014-10-31T13:49:50.000Z</time>
      </trkpt>
      <trkpt lat="48.70222" lon="1.72113">
        <ele>178.39999389648</ele>
        <time>2014-10-31T13:49:57.000Z</time>
      </trkpt>
      <trkpt lat="48.70228" lon="1.72121">
        <ele>179</ele>
        <time>2014-10-31T13:50:03.000Z</time>
      </trkpt>
      <trkpt lat="48.70236" lon="1.7213">
        <ele>180</ele>
        <time>2014-10-31T13:50:10.000Z</time>
      </trkpt>
      <trkpt lat="48.70242" lon="1.72138">
        <ele>180.80000305176</ele>
        <time>2014-10-31T13:50:17.000Z</time>
      </trkpt>
      <trkpt lat="48.70247" lon="1.72144">
        <ele>181.39999389648</ele>
        <time>2014-10-31T13:50:21.000Z</time>
      </trkpt>
      <trkpt lat="48.70251" lon="1.72151">
        <ele>181.80000305176</ele>
        <time>2014-10-31T13:50:26.000Z</time>
      </trkpt>
      <trkpt lat="48.7026" lon="1.72161">
        <ele>183</ele>
        <time>2014-10-31T13:50:34.000Z</time>
      </trkpt>
      <trkpt lat="48.70267" lon="1.7217">
        <ele>183.80000305176</ele>
        <time>2014-10-31T13:50:39.000Z</time>
      </trkpt>
      <trkpt lat="48.70273" lon="1.72183">
        <ele>184.39999389648</ele>
        <time>2014-10-31T13:50:47.000Z</time>
      </trkpt>
      <trkpt lat="48.70274" lon="1.72184">
        <ele>184.39999389648</ele>
        <time>2014-10-31T13:50:48.000Z</time>
      </trkpt>
      <trkpt lat="48.70274" lon="1.72192">
        <ele>184.39999389648</ele>
        <time>2014-10-31T13:50:54.000Z</time>
      </trkpt>
      <trkpt lat="48.70272" lon="1.72204">
        <ele>184.60000610352</ele>
        <time>2014-10-31T13:51:02.000Z</time>
      </trkpt>
      <trkpt lat="48.70271" lon="1.72212">
        <ele>184.80000305176</ele>
        <time>2014-10-31T13:51:09.000Z</time>
      </trkpt>
      <trkpt lat="48.7027" lon="1.72221">
        <ele>184.80000305176</ele>
        <time>2014-10-31T13:51:14.000Z</time>
      </trkpt>
      <trkpt lat="48.70269" lon="1.72225">
        <ele>184.80000305176</ele>
        <time>2014-10-31T13:51:17.000Z</time>
      </trkpt>
      <trkpt lat="48.70268" lon="1.72239">
        <ele>184.80000305176</ele>
        <time>2014-10-31T13:51:23.000Z</time>
      </trkpt>
      <trkpt lat="48.70268" lon="1.72247">
        <ele>184.80000305176</ele>
        <time>2014-10-31T13:51:28.000Z</time>
      </trkpt>
      <trkpt lat="48.70266" lon="1.72258">
        <ele>184.60000610352</ele>
        <time>2014-10-31T13:51:35.000Z</time>
      </trkpt>
      <trkpt lat="48.70265" lon="1.72261">
        <ele>184.60000610352</ele>
        <time>2014-10-31T13:51:36.000Z</time>
      </trkpt>
      <trkpt lat="48.70261" lon="1.72271">
        <ele>184.19999694824</ele>
        <time>2014-10-31T13:51:42.000Z</time>
      </trkpt>
      <trkpt lat="48.70259" lon="1.72276">
        <ele>184</ele>
        <time>2014-10-31T13:51:46.000Z</time>
      </trkpt>
      <trkpt lat="48.70255" lon="1.72293">
        <ele>183.80000305176</ele>
        <time>2014-10-31T13:51:51.000Z</time>
      </trkpt>
      <trkpt lat="48.70249" lon="1.72312">
        <ele>184</ele>
        <time>2014-10-31T13:51:58.000Z</time>
      </trkpt>
      <trkpt lat="48.70248" lon="1.72331">
        <ele>184</ele>
        <time>2014-10-31T13:52:04.000Z</time>
      </trkpt>
      <trkpt lat="48.70247" lon="1.72335">
        <ele>183.80000305176</ele>
        <time>2014-10-31T13:52:07.000Z</time>
      </trkpt>
      <trkpt lat="48.70247" lon="1.7234">
        <ele>183.80000305176</ele>
        <time>2014-10-31T13:52:09.000Z</time>
      </trkpt>
      <trkpt lat="48.70241" lon="1.72363">
        <ele>182.80000305176</ele>
        <time>2014-10-31T13:52:15.000Z</time>
      </trkpt>
      <trkpt lat="48.70239" lon="1.72374">
        <ele>182.39999389648</ele>
        <time>2014-10-31T13:52:20.000Z</time>
      </trkpt>
      <trkpt lat="48.70235" lon="1.72388">
        <ele>183</ele>
        <time>2014-10-31T13:52:27.000Z</time>
      </trkpt>
      <trkpt lat="48.70232" lon="1.72409">
        <ele>183.60000610352</ele>
        <time>2014-10-31T13:52:34.000Z</time>
      </trkpt>
      <trkpt lat="48.70232" lon="1.72427">
        <ele>183</ele>
        <time>2014-10-31T13:52:40.000Z</time>
      </trkpt>
      <trkpt lat="48.70226" lon="1.72442">
        <ele>182.80000305176</ele>
        <time>2014-10-31T13:52:47.000Z</time>
      </trkpt>
      <trkpt lat="48.70222" lon="1.72456">
        <ele>182.80000305176</ele>
        <time>2014-10-31T13:52:53.000Z</time>
      </trkpt>
      <trkpt lat="48.7022" lon="1.72469">
        <ele>182.80000305176</ele>
        <time>2014-10-31T13:52:59.000Z</time>
      </trkpt>
      <trkpt lat="48.7022" lon="1.72472">
        <ele>182.80000305176</ele>
        <time>2014-10-31T13:53:02.000Z</time>
      </trkpt>
      <trkpt lat="48.7022" lon="1.72475">
        <ele>182.80000305176</ele>
        <time>2014-10-31T13:53:04.000Z</time>
      </trkpt>
      <trkpt lat="48.70216" lon="1.72486">
        <ele>182.80000305176</ele>
        <time>2014-10-31T13:53:13.000Z</time>
      </trkpt>
      <trkpt lat="48.70214" lon="1.72493">
        <ele>182.80000305176</ele>
        <time>2014-10-31T13:53:19.000Z</time>
      </trkpt>
      <trkpt lat="48.70211" lon="1.72506">
        <ele>182.80000305176</ele>
        <time>2014-10-31T13:53:26.000Z</time>
      </trkpt>
      <trkpt lat="48.70209" lon="1.72528">
        <ele>182.60000610352</ele>
        <time>2014-10-31T13:53:32.000Z</time>
      </trkpt>
      <trkpt lat="48.70205" lon="1.72549">
        <ele>182.80000305176</ele>
        <time>2014-10-31T13:53:39.000Z</time>
      </trkpt>
      <trkpt lat="48.702" lon="1.72569">
        <ele>182.80000305176</ele>
        <time>2014-10-31T13:53:46.000Z</time>
      </trkpt>
      <trkpt lat="48.70196" lon="1.72587">
        <ele>182.80000305176</ele>
        <time>2014-10-31T13:53:53.000Z</time>
      </trkpt>
      <trkpt lat="48.70193" lon="1.72601">
        <ele>182.19999694824</ele>
        <time>2014-10-31T13:53:59.000Z</time>
      </trkpt>
      <trkpt lat="48.70188" lon="1.72617">
        <ele>181.80000305176</ele>
        <time>2014-10-31T13:54:06.000Z</time>
      </trkpt>
      <trkpt lat="48.70185" lon="1.72631">
        <ele>181</ele>
        <time>2014-10-31T13:54:15.000Z</time>
      </trkpt>
      <trkpt lat="48.70183" lon="1.7264">
        <ele>180.39999389648</ele>
        <time>2014-10-31T13:54:23.000Z</time>
      </trkpt>
      <trkpt lat="48.70182" lon="1.72651">
        <ele>180</ele>
        <time>2014-10-31T13:54:29.000Z</time>
      </trkpt>
      <trkpt lat="48.70177" lon="1.72666">
        <ele>179.39999389648</ele>
        <time>2014-10-31T13:54:37.000Z</time>
      </trkpt>
      <trkpt lat="48.70171" lon="1.72691">
        <ele>178</ele>
        <time>2014-10-31T13:54:44.000Z</time>
      </trkpt>
      <trkpt lat="48.70166" lon="1.72713">
        <ele>177</ele>
        <time>2014-10-31T13:54:50.000Z</time>
      </trkpt>
      <trkpt lat="48.70162" lon="1.72725">
        <ele>177.19999694824</ele>
        <time>2014-10-31T13:54:56.000Z</time>
      </trkpt>
      <trkpt lat="48.7016" lon="1.72727">
        <ele>177.39999389648</ele>
        <time>2014-10-31T13:54:59.000Z</time>
      </trkpt>
      <trkpt lat="48.70154" lon="1.72741">
        <ele>178</ele>
        <time>2014-10-31T13:55:06.000Z</time>
      </trkpt>
      <trkpt lat="48.7015" lon="1.72751">
        <ele>178</ele>
        <time>2014-10-31T13:55:13.000Z</time>
      </trkpt>
      <trkpt lat="48.70145" lon="1.72763">
        <ele>178.19999694824</ele>
        <time>2014-10-31T13:55:21.000Z</time>
      </trkpt>
      <trkpt lat="48.70141" lon="1.7277">
        <ele>178.39999389648</ele>
        <time>2014-10-31T13:55:27.000Z</time>
      </trkpt>
      <trkpt lat="48.70137" lon="1.7278">
        <ele>178.60000610352</ele>
        <time>2014-10-31T13:55:33.000Z</time>
      </trkpt>
      <trkpt lat="48.70131" lon="1.72799">
        <ele>179</ele>
        <time>2014-10-31T13:55:42.000Z</time>
      </trkpt>
      <trkpt lat="48.70124" lon="1.72828">
        <ele>179.39999389648</ele>
        <time>2014-10-31T13:55:48.000Z</time>
      </trkpt>
      <trkpt lat="48.70122" lon="1.72834">
        <ele>179.39999389648</ele>
        <time>2014-10-31T13:55:51.000Z</time>
      </trkpt>
      <trkpt lat="48.7012" lon="1.72847">
        <ele>179.19999694824</ele>
        <time>2014-10-31T13:55:57.000Z</time>
      </trkpt>
      <trkpt lat="48.7012" lon="1.72849">
        <ele>179.19999694824</ele>
        <time>2014-10-31T13:55:58.000Z</time>
      </trkpt>
      <trkpt lat="48.70114" lon="1.72872">
        <ele>179</ele>
        <time>2014-10-31T13:56:09.000Z</time>
      </trkpt>
      <trkpt lat="48.7011" lon="1.72886">
        <ele>179</ele>
        <time>2014-10-31T13:56:16.000Z</time>
      </trkpt>
      <trkpt lat="48.70107" lon="1.72897">
        <ele>178.80000305176</ele>
        <time>2014-10-31T13:56:22.000Z</time>
      </trkpt>
      <trkpt lat="48.70103" lon="1.72912">
        <ele>179.19999694824</ele>
        <time>2014-10-31T13:56:29.000Z</time>
      </trkpt>
      <trkpt lat="48.70098" lon="1.72927">
        <ele>179.60000610352</ele>
        <time>2014-10-31T13:56:37.000Z</time>
      </trkpt>
      <trkpt lat="48.70092" lon="1.72943">
        <ele>180.19999694824</ele>
        <time>2014-10-31T13:56:45.000Z</time>
      </trkpt>
      <trkpt lat="48.70086" lon="1.72957">
        <ele>181</ele>
        <time>2014-10-31T13:56:53.000Z</time>
      </trkpt>
      <trkpt lat="48.70078" lon="1.7297">
        <ele>181.80000305176</ele>
        <time>2014-10-31T13:57:01.000Z</time>
      </trkpt>
      <trkpt lat="48.70076" lon="1.72974">
        <ele>182.19999694824</ele>
        <time>2014-10-31T13:57:03.000Z</time>
      </trkpt>
      <trkpt lat="48.70075" lon="1.72979">
        <ele>182.39999389648</ele>
        <time>2014-10-31T13:57:06.000Z</time>
      </trkpt>
      <trkpt lat="48.70071" lon="1.72992">
        <ele>183.19999694824</ele>
        <time>2014-10-31T13:57:13.000Z</time>
      </trkpt>
      <trkpt lat="48.70069" lon="1.72998">
        <ele>183.39999389648</ele>
        <time>2014-10-31T13:57:15.000Z</time>
      </trkpt>
      <trkpt lat="48.70068" lon="1.73012">
        <ele>183.80000305176</ele>
        <time>2014-10-31T13:57:21.000Z</time>
      </trkpt>
      <trkpt lat="48.70064" lon="1.73021">
        <ele>184.19999694824</ele>
        <time>2014-10-31T13:57:27.000Z</time>
      </trkpt>
      <trkpt lat="48.7006" lon="1.73041">
        <ele>184.39999389648</ele>
        <time>2014-10-31T13:57:35.000Z</time>
      </trkpt>
      <trkpt lat="48.70054" lon="1.73055">
        <ele>184.39999389648</ele>
        <time>2014-10-31T13:57:42.000Z</time>
      </trkpt>
      <trkpt lat="48.70049" lon="1.73069">
        <ele>184.19999694824</ele>
        <time>2014-10-31T13:57:48.000Z</time>
      </trkpt>
      <trkpt lat="48.70045" lon="1.73081">
        <ele>184.39999389648</ele>
        <time>2014-10-31T13:57:54.000Z</time>
      </trkpt>
      <trkpt lat="48.70045" lon="1.73088">
        <ele>184.60000610352</ele>
        <time>2014-10-31T13:57:57.000Z</time>
      </trkpt>
      <trkpt lat="48.7004" lon="1.73099">
        <ele>184.39999389648</ele>
        <time>2014-10-31T13:58:04.000Z</time>
      </trkpt>
      <trkpt lat="48.7004" lon="1.73101">
        <ele>184.39999389648</ele>
        <time>2014-10-31T13:58:05.000Z</time>
      </trkpt>
      <trkpt lat="48.70033" lon="1.73116">
        <ele>184</ele>
        <time>2014-10-31T13:58:13.000Z</time>
      </trkpt>
      <trkpt lat="48.70028" lon="1.73129">
        <ele>183.80000305176</ele>
        <time>2014-10-31T13:58:20.000Z</time>
      </trkpt>
      <trkpt lat="48.70022" lon="1.73153">
        <ele>183</ele>
        <time>2014-10-31T13:58:28.000Z</time>
      </trkpt>
      <trkpt lat="48.70017" lon="1.73169">
        <ele>181.80000305176</ele>
        <time>2014-10-31T13:58:35.000Z</time>
      </trkpt>
      <trkpt lat="48.70011" lon="1.73182">
        <ele>180.80000305176</ele>
        <time>2014-10-31T13:58:43.000Z</time>
      </trkpt>
      <trkpt lat="48.70007" lon="1.73188">
        <ele>180.19999694824</ele>
        <time>2014-10-31T13:58:48.000Z</time>
      </trkpt>
      <trkpt lat="48.70001" lon="1.73196">
        <ele>179.39999389648</ele>
        <time>2014-10-31T13:58:55.000Z</time>
      </trkpt>
      <trkpt lat="48.69994" lon="1.73214">
        <ele>177.80000305176</ele>
        <time>2014-10-31T13:59:01.000Z</time>
      </trkpt>
      <trkpt lat="48.69991" lon="1.73222">
        <ele>177.60000610352</ele>
        <time>2014-10-31T13:59:04.000Z</time>
      </trkpt>
      <trkpt lat="48.69988" lon="1.73227">
        <ele>177.19999694824</ele>
        <time>2014-10-31T13:59:08.000Z</time>
      </trkpt>
      <trkpt lat="48.69982" lon="1.73238">
        <ele>176.60000610352</ele>
        <time>2014-10-31T13:59:15.000Z</time>
      </trkpt>
      <trkpt lat="48.69975" lon="1.73245">
        <ele>176.39999389648</ele>
        <time>2014-10-31T13:59:21.000Z</time>
      </trkpt>
      <trkpt lat="48.69971" lon="1.73263">
        <ele>176.60000610352</ele>
        <time>2014-10-31T13:59:27.000Z</time>
      </trkpt>
      <trkpt lat="48.69968" lon="1.73269">
        <ele>176.60000610352</ele>
        <time>2014-10-31T13:59:30.000Z</time>
      </trkpt>
      <trkpt lat="48.69963" lon="1.73278">
        <ele>176.60000610352</ele>
        <time>2014-10-31T13:59:36.000Z</time>
      </trkpt>
      <trkpt lat="48.69955" lon="1.73293">
        <ele>176.80000305176</ele>
        <time>2014-10-31T13:59:44.000Z</time>
      </trkpt>
      <trkpt lat="48.6995" lon="1.73306">
        <ele>177</ele>
        <time>2014-10-31T13:59:51.000Z</time>
      </trkpt>
      <trkpt lat="48.69946" lon="1.73313">
        <ele>177</ele>
        <time>2014-10-31T13:59:55.000Z</time>
      </trkpt>
      <trkpt lat="48.69941" lon="1.73321">
        <ele>177.19999694824</ele>
        <time>2014-10-31T13:59:59.000Z</time>
      </trkpt>
      <trkpt lat="48.69933" lon="1.73336">
        <ele>177.39999389648</ele>
        <time>2014-10-31T14:00:08.000Z</time>
      </trkpt>
      <trkpt lat="48.69927" lon="1.73347">
        <ele>177.80000305176</ele>
        <time>2014-10-31T14:00:14.000Z</time>
      </trkpt>
      <trkpt lat="48.69921" lon="1.73363">
        <ele>178.19999694824</ele>
        <time>2014-10-31T14:00:21.000Z</time>
      </trkpt>
      <trkpt lat="48.69916" lon="1.73372">
        <ele>178.39999389648</ele>
        <time>2014-10-31T14:00:26.000Z</time>
      </trkpt>
      <trkpt lat="48.6991" lon="1.73388">
        <ele>178.80000305176</ele>
        <time>2014-10-31T14:00:34.000Z</time>
      </trkpt>
      <trkpt lat="48.69908" lon="1.73399">
        <ele>179</ele>
        <time>2014-10-31T14:00:39.000Z</time>
      </trkpt>
      <trkpt lat="48.69907" lon="1.73401">
        <ele>179</ele>
        <time>2014-10-31T14:00:40.000Z</time>
      </trkpt>
      <trkpt lat="48.69899" lon="1.73415">
        <ele>178.60000610352</ele>
        <time>2014-10-31T14:00:48.000Z</time>
      </trkpt>
      <trkpt lat="48.69896" lon="1.73423">
        <ele>178.39999389648</ele>
        <time>2014-10-31T14:00:52.000Z</time>
      </trkpt>
      <trkpt lat="48.69891" lon="1.73433">
        <ele>178</ele>
        <time>2014-10-31T14:00:58.000Z</time>
      </trkpt>
      <trkpt lat="48.6989" lon="1.73434">
        <ele>178</ele>
        <time>2014-10-31T14:00:59.000Z</time>
      </trkpt>
      <trkpt lat="48.69883" lon="1.73444">
        <ele>178</ele>
        <time>2014-10-31T14:01:06.000Z</time>
      </trkpt>
      <trkpt lat="48.6988" lon="1.7345">
        <ele>178</ele>
        <time>2014-10-31T14:01:10.000Z</time>
      </trkpt>
      <trkpt lat="48.69876" lon="1.73457">
        <ele>178.19999694824</ele>
        <time>2014-10-31T14:01:14.000Z</time>
      </trkpt>
      <trkpt lat="48.69872" lon="1.73462">
        <ele>178.39999389648</ele>
        <time>2014-10-31T14:01:18.000Z</time>
      </trkpt>
      <trkpt lat="48.69867" lon="1.73472">
        <ele>178.60000610352</ele>
        <time>2014-10-31T14:01:24.000Z</time>
      </trkpt>
      <trkpt lat="48.69864" lon="1.73482">
        <ele>178.60000610352</ele>
        <time>2014-10-31T14:01:30.000Z</time>
      </trkpt>
      <trkpt lat="48.69863" lon="1.73486">
        <ele>178.60000610352</ele>
        <time>2014-10-31T14:01:32.000Z</time>
      </trkpt>
      <trkpt lat="48.69857" lon="1.73496">
        <ele>178.80000305176</ele>
        <time>2014-10-31T14:01:38.000Z</time>
      </trkpt>
      <trkpt lat="48.69851" lon="1.73507">
        <ele>179</ele>
        <time>2014-10-31T14:01:44.000Z</time>
      </trkpt>
      <trkpt lat="48.69846" lon="1.73521">
        <ele>179.19999694824</ele>
        <time>2014-10-31T14:01:51.000Z</time>
      </trkpt>
      <trkpt lat="48.69837" lon="1.73534">
        <ele>179.39999389648</ele>
        <time>2014-10-31T14:01:59.000Z</time>
      </trkpt>
      <trkpt lat="48.69831" lon="1.73546">
        <ele>179.60000610352</ele>
        <time>2014-10-31T14:02:05.000Z</time>
      </trkpt>
      <trkpt lat="48.69828" lon="1.73552">
        <ele>179.60000610352</ele>
        <time>2014-10-31T14:02:10.000Z</time>
      </trkpt>
      <trkpt lat="48.69823" lon="1.73563">
        <ele>179.39999389648</ele>
        <time>2014-10-31T14:02:17.000Z</time>
      </trkpt>
      <trkpt lat="48.69816" lon="1.73571">
        <ele>179.39999389648</ele>
        <time>2014-10-31T14:02:25.000Z</time>
      </trkpt>
      <trkpt lat="48.69815" lon="1.73577">
        <ele>179.39999389648</ele>
        <time>2014-10-31T14:02:27.000Z</time>
      </trkpt>
      <trkpt lat="48.69811" lon="1.7359">
        <ele>179.60000610352</ele>
        <time>2014-10-31T14:02:31.000Z</time>
      </trkpt>
      <trkpt lat="48.69806" lon="1.73611">
        <ele>179.60000610352</ele>
        <time>2014-10-31T14:02:38.000Z</time>
      </trkpt>
      <trkpt lat="48.69802" lon="1.73621">
        <ele>179.60000610352</ele>
        <time>2014-10-31T14:02:43.000Z</time>
      </trkpt>
      <trkpt lat="48.698" lon="1.73626">
        <ele>179.60000610352</ele>
        <time>2014-10-31T14:02:45.000Z</time>
      </trkpt>
      <trkpt lat="48.69796" lon="1.73633">
        <ele>179.60000610352</ele>
        <time>2014-10-31T14:02:49.000Z</time>
      </trkpt>
      <trkpt lat="48.6979" lon="1.73642">
        <ele>179.80000305176</ele>
        <time>2014-10-31T14:02:54.000Z</time>
      </trkpt>
      <trkpt lat="48.6978" lon="1.73656">
        <ele>179.80000305176</ele>
        <time>2014-10-31T14:03:03.000Z</time>
      </trkpt>
      <trkpt lat="48.69775" lon="1.73666">
        <ele>179.60000610352</ele>
        <time>2014-10-31T14:03:10.000Z</time>
      </trkpt>
      <trkpt lat="48.69768" lon="1.7368">
        <ele>179</ele>
        <time>2014-10-31T14:03:18.000Z</time>
      </trkpt>
      <trkpt lat="48.69761" lon="1.73696">
        <ele>178.39999389648</ele>
        <time>2014-10-31T14:03:26.000Z</time>
      </trkpt>
      <trkpt lat="48.69755" lon="1.73704">
        <ele>178.19999694824</ele>
        <time>2014-10-31T14:03:33.000Z</time>
      </trkpt>
      <trkpt lat="48.69749" lon="1.73718">
        <ele>177.80000305176</ele>
        <time>2014-10-31T14:03:40.000Z</time>
      </trkpt>
      <trkpt lat="48.69746" lon="1.73725">
        <ele>177.80000305176</ele>
        <time>2014-10-31T14:03:45.000Z</time>
      </trkpt>
      <trkpt lat="48.69742" lon="1.73734">
        <ele>177.80000305176</ele>
        <time>2014-10-31T14:03:50.000Z</time>
      </trkpt>
      <trkpt lat="48.69741" lon="1.73739">
        <ele>177.60000610352</ele>
        <time>2014-10-31T14:03:53.000Z</time>
      </trkpt>
      <trkpt lat="48.69732" lon="1.73754">
        <ele>177.60000610352</ele>
        <time>2014-10-31T14:04:01.000Z</time>
      </trkpt>
      <trkpt lat="48.6973" lon="1.73756">
        <ele>177.60000610352</ele>
        <time>2014-10-31T14:04:03.000Z</time>
      </trkpt>
      <trkpt lat="48.69721" lon="1.73768">
        <ele>177.39999389648</ele>
        <time>2014-10-31T14:04:13.000Z</time>
      </trkpt>
      <trkpt lat="48.69714" lon="1.73784">
        <ele>177.19999694824</ele>
        <time>2014-10-31T14:04:22.000Z</time>
      </trkpt>
      <trkpt lat="48.69706" lon="1.73801">
        <ele>177</ele>
        <time>2014-10-31T14:04:29.000Z</time>
      </trkpt>
      <trkpt lat="48.697" lon="1.73816">
        <ele>176.80000305176</ele>
        <time>2014-10-31T14:04:35.000Z</time>
      </trkpt>
      <trkpt lat="48.69695" lon="1.73826">
        <ele>176.80000305176</ele>
        <time>2014-10-31T14:04:41.000Z</time>
      </trkpt>
      <trkpt lat="48.69688" lon="1.73834">
        <ele>176.80000305176</ele>
        <time>2014-10-31T14:04:48.000Z</time>
      </trkpt>
      <trkpt lat="48.69683" lon="1.73843">
        <ele>176.80000305176</ele>
        <time>2014-10-31T14:04:54.000Z</time>
      </trkpt>
      <trkpt lat="48.69679" lon="1.73852">
        <ele>177</ele>
        <time>2014-10-31T14:04:59.000Z</time>
      </trkpt>
      <trkpt lat="48.69675" lon="1.73857">
        <ele>177.19999694824</ele>
        <time>2014-10-31T14:05:03.000Z</time>
      </trkpt>
      <trkpt lat="48.69669" lon="1.73867">
        <ele>177.19999694824</ele>
        <time>2014-10-31T14:05:10.000Z</time>
      </trkpt>
      <trkpt lat="48.6966" lon="1.73883">
        <ele>177.60000610352</ele>
        <time>2014-10-31T14:05:18.000Z</time>
      </trkpt>
      <trkpt lat="48.69653" lon="1.73904">
        <ele>178.39999389648</ele>
        <time>2014-10-31T14:05:25.000Z</time>
      </trkpt>
      <trkpt lat="48.6965" lon="1.73911">
        <ele>178.39999389648</ele>
        <time>2014-10-31T14:05:30.000Z</time>
      </trkpt>
      <trkpt lat="48.69645" lon="1.73924">
        <ele>178.60000610352</ele>
        <time>2014-10-31T14:05:35.000Z</time>
      </trkpt>
      <trkpt lat="48.69637" lon="1.73937">
        <ele>178.80000305176</ele>
        <time>2014-10-31T14:05:42.000Z</time>
      </trkpt>
      <trkpt lat="48.69631" lon="1.73948">
        <ele>179</ele>
        <time>2014-10-31T14:05:49.000Z</time>
      </trkpt>
      <trkpt lat="48.69627" lon="1.73958">
        <ele>179</ele>
        <time>2014-10-31T14:05:54.000Z</time>
      </trkpt>
      <trkpt lat="48.69625" lon="1.73965">
        <ele>179</ele>
        <time>2014-10-31T14:05:57.000Z</time>
      </trkpt>
      <trkpt lat="48.69617" lon="1.73979">
        <ele>179.19999694824</ele>
        <time>2014-10-31T14:06:05.000Z</time>
      </trkpt>
      <trkpt lat="48.69616" lon="1.7399">
        <ele>179</ele>
        <time>2014-10-31T14:06:10.000Z</time>
      </trkpt>
      <trkpt lat="48.69618" lon="1.73997">
        <ele>178.80000305176</ele>
        <time>2014-10-31T14:06:13.000Z</time>
      </trkpt>
      <trkpt lat="48.69621" lon="1.74007">
        <ele>178.19999694824</ele>
        <time>2014-10-31T14:06:17.000Z</time>
      </trkpt>
      <trkpt lat="48.69625" lon="1.74019">
        <ele>177.80000305176</ele>
        <time>2014-10-31T14:06:24.000Z</time>
      </trkpt>
      <trkpt lat="48.69626" lon="1.74032">
        <ele>177.19999694824</ele>
        <time>2014-10-31T14:06:30.000Z</time>
      </trkpt>
      <trkpt lat="48.69627" lon="1.74043">
        <ele>177</ele>
        <time>2014-10-31T14:06:35.000Z</time>
      </trkpt>
      <trkpt lat="48.69629" lon="1.74049">
        <ele>176.60000610352</ele>
        <time>2014-10-31T14:06:38.000Z</time>
      </trkpt>
      <trkpt lat="48.69629" lon="1.74054">
        <ele>176.60000610352</ele>
        <time>2014-10-31T14:06:40.000Z</time>
      </trkpt>
      <trkpt lat="48.69632" lon="1.74068">
        <ele>176</ele>
        <time>2014-10-31T14:06:46.000Z</time>
      </trkpt>
      <trkpt lat="48.69634" lon="1.74074">
        <ele>175.80000305176</ele>
        <time>2014-10-31T14:06:49.000Z</time>
      </trkpt>
      <trkpt lat="48.69638" lon="1.74086">
        <ele>175.39999389648</ele>
        <time>2014-10-31T14:06:56.000Z</time>
      </trkpt>
      <trkpt lat="48.69642" lon="1.741">
        <ele>175</ele>
        <time>2014-10-31T14:07:02.000Z</time>
      </trkpt>
      <trkpt lat="48.69647" lon="1.7412">
        <ele>174.19999694824</ele>
        <time>2014-10-31T14:07:10.000Z</time>
      </trkpt>
      <trkpt lat="48.6965" lon="1.74134">
        <ele>173.80000305176</ele>
        <time>2014-10-31T14:07:17.000Z</time>
      </trkpt>
      <trkpt lat="48.69652" lon="1.74145">
        <ele>173.60000610352</ele>
        <time>2014-10-31T14:07:22.000Z</time>
      </trkpt>
      <trkpt lat="48.69652" lon="1.74153">
        <ele>173.39999389648</ele>
        <time>2014-10-31T14:07:26.000Z</time>
      </trkpt>
      <trkpt lat="48.69657" lon="1.74172">
        <ele>173.19999694824</ele>
        <time>2014-10-31T14:07:33.000Z</time>
      </trkpt>
      <trkpt lat="48.69661" lon="1.74184">
        <ele>172.80000305176</ele>
        <time>2014-10-31T14:07:39.000Z</time>
      </trkpt>
      <trkpt lat="48.69666" lon="1.74196">
        <ele>172.60000610352</ele>
        <time>2014-10-31T14:07:44.000Z</time>
      </trkpt>
      <trkpt lat="48.69669" lon="1.74208">
        <ele>172.19999694824</ele>
        <time>2014-10-31T14:07:51.000Z</time>
      </trkpt>
      <trkpt lat="48.6967" lon="1.7421">
        <ele>172.19999694824</ele>
        <time>2014-10-31T14:07:52.000Z</time>
      </trkpt>
      <trkpt lat="48.69672" lon="1.74229">
        <ele>172</ele>
        <time>2014-10-31T14:08:00.000Z</time>
      </trkpt>
      <trkpt lat="48.69672" lon="1.74231">
        <ele>172</ele>
        <time>2014-10-31T14:08:01.000Z</time>
      </trkpt>
      <trkpt lat="48.69677" lon="1.74246">
        <ele>171.39999389648</ele>
        <time>2014-10-31T14:08:07.000Z</time>
      </trkpt>
      <trkpt lat="48.69681" lon="1.74261">
        <ele>171</ele>
        <time>2014-10-31T14:08:14.000Z</time>
      </trkpt>
      <trkpt lat="48.69684" lon="1.74272">
        <ele>170.80000305176</ele>
        <time>2014-10-31T14:08:20.000Z</time>
      </trkpt>
      <trkpt lat="48.69688" lon="1.74288">
        <ele>170.39999389648</ele>
        <time>2014-10-31T14:08:27.000Z</time>
      </trkpt>
      <trkpt lat="48.69691" lon="1.74301">
        <ele>170</ele>
        <time>2014-10-31T14:08:33.000Z</time>
      </trkpt>
      <trkpt lat="48.69693" lon="1.74317">
        <ele>169.80000305176</ele>
        <time>2014-10-31T14:08:40.000Z</time>
      </trkpt>
      <trkpt lat="48.69696" lon="1.74331">
        <ele>169.39999389648</ele>
        <time>2014-10-31T14:08:46.000Z</time>
      </trkpt>
      <trkpt lat="48.69699" lon="1.7435">
        <ele>168.80000305176</ele>
        <time>2014-10-31T14:08:54.000Z</time>
      </trkpt>
      <trkpt lat="48.69703" lon="1.74366">
        <ele>168.39999389648</ele>
        <time>2014-10-31T14:09:02.000Z</time>
      </trkpt>
      <trkpt lat="48.69704" lon="1.74371">
        <ele>168.19999694824</ele>
        <time>2014-10-31T14:09:04.000Z</time>
      </trkpt>
      <trkpt lat="48.6971" lon="1.74387">
        <ele>167.60000610352</ele>
        <time>2014-10-31T14:09:11.000Z</time>
      </trkpt>
      <trkpt lat="48.69714" lon="1.74402">
        <ele>167</ele>
        <time>2014-10-31T14:09:18.000Z</time>
      </trkpt>
      <trkpt lat="48.69719" lon="1.7442">
        <ele>166.39999389648</ele>
        <time>2014-10-31T14:09:26.000Z</time>
      </trkpt>
      <trkpt lat="48.69723" lon="1.74437">
        <ele>166</ele>
        <time>2014-10-31T14:09:34.000Z</time>
      </trkpt>
      <trkpt lat="48.69726" lon="1.74451">
        <ele>165.19999694824</ele>
        <time>2014-10-31T14:09:41.000Z</time>
      </trkpt>
      <trkpt lat="48.6973" lon="1.74463">
        <ele>164.60000610352</ele>
        <time>2014-10-31T14:09:46.000Z</time>
      </trkpt>
      <trkpt lat="48.69731" lon="1.74467">
        <ele>164.39999389648</ele>
        <time>2014-10-31T14:09:48.000Z</time>
      </trkpt>
      <trkpt lat="48.69732" lon="1.74477">
        <ele>164</ele>
        <time>2014-10-31T14:09:52.000Z</time>
      </trkpt>
      <trkpt lat="48.69731" lon="1.74482">
        <ele>163.80000305176</ele>
        <time>2014-10-31T14:09:54.000Z</time>
      </trkpt>
      <trkpt lat="48.69735" lon="1.74492">
        <ele>163.39999389648</ele>
        <time>2014-10-31T14:09:59.000Z</time>
      </trkpt>
      <trkpt lat="48.69739" lon="1.74509">
        <ele>162.80000305176</ele>
        <time>2014-10-31T14:10:06.000Z</time>
      </trkpt>
      <trkpt lat="48.6974" lon="1.74512">
        <ele>162.80000305176</ele>
        <time>2014-10-31T14:10:08.000Z</time>
      </trkpt>
      <trkpt lat="48.69747" lon="1.74532">
        <ele>162.19999694824</ele>
        <time>2014-10-31T14:10:17.000Z</time>
      </trkpt>
      <trkpt lat="48.69751" lon="1.7455">
        <ele>161.80000305176</ele>
        <time>2014-10-31T14:10:25.000Z</time>
      </trkpt>
      <trkpt lat="48.69752" lon="1.74566">
        <ele>161.39999389648</ele>
        <time>2014-10-31T14:10:32.000Z</time>
      </trkpt>
      <trkpt lat="48.69757" lon="1.74583">
        <ele>161.60000610352</ele>
        <time>2014-10-31T14:10:40.000Z</time>
      </trkpt>
      <trkpt lat="48.69761" lon="1.74603">
        <ele>162.19999694824</ele>
        <time>2014-10-31T14:10:49.000Z</time>
      </trkpt>
      <trkpt lat="48.69765" lon="1.74617">
        <ele>162.80000305176</ele>
        <time>2014-10-31T14:10:56.000Z</time>
      </trkpt>
      <trkpt lat="48.69768" lon="1.74628">
        <ele>163</ele>
        <time>2014-10-31T14:11:01.000Z</time>
      </trkpt>
      <trkpt lat="48.69771" lon="1.74641">
        <ele>163.60000610352</ele>
        <time>2014-10-31T14:11:07.000Z</time>
      </trkpt>
      <trkpt lat="48.69773" lon="1.7465">
        <ele>164</ele>
        <time>2014-10-31T14:11:11.000Z</time>
      </trkpt>
      <trkpt lat="48.69776" lon="1.74661">
        <ele>164.60000610352</ele>
        <time>2014-10-31T14:11:16.000Z</time>
      </trkpt>
      <trkpt lat="48.6978" lon="1.74678">
        <ele>165</ele>
        <time>2014-10-31T14:11:24.000Z</time>
      </trkpt>
      <trkpt lat="48.69783" lon="1.74691">
        <ele>165.39999389648</ele>
        <time>2014-10-31T14:11:30.000Z</time>
      </trkpt>
      <trkpt lat="48.69786" lon="1.74706">
        <ele>165.80000305176</ele>
        <time>2014-10-31T14:11:37.000Z</time>
      </trkpt>
      <trkpt lat="48.69788" lon="1.74722">
        <ele>166</ele>
        <time>2014-10-31T14:11:44.000Z</time>
      </trkpt>
      <trkpt lat="48.69794" lon="1.74737">
        <ele>166.60000610352</ele>
        <time>2014-10-31T14:11:52.000Z</time>
      </trkpt>
      <trkpt lat="48.69797" lon="1.74749">
        <ele>166.60000610352</ele>
        <time>2014-10-31T14:11:58.000Z</time>
      </trkpt>
      <trkpt lat="48.69802" lon="1.74767">
        <ele>166.80000305176</ele>
        <time>2014-10-31T14:12:07.000Z</time>
      </trkpt>
      <trkpt lat="48.69806" lon="1.74785">
        <ele>167.19999694824</ele>
        <time>2014-10-31T14:12:15.000Z</time>
      </trkpt>
      <trkpt lat="48.69809" lon="1.748">
        <ele>167.60000610352</ele>
        <time>2014-10-31T14:12:23.000Z</time>
      </trkpt>
      <trkpt lat="48.69813" lon="1.74815">
        <ele>168</ele>
        <time>2014-10-31T14:12:31.000Z</time>
      </trkpt>
      <trkpt lat="48.69816" lon="1.74829">
        <ele>167.80000305176</ele>
        <time>2014-10-31T14:12:37.000Z</time>
      </trkpt>
      <trkpt lat="48.69819" lon="1.74842">
        <ele>167.39999389648</ele>
        <time>2014-10-31T14:12:43.000Z</time>
      </trkpt>
      <trkpt lat="48.69819" lon="1.74846">
        <ele>167.39999389648</ele>
        <time>2014-10-31T14:12:45.000Z</time>
      </trkpt>
      <trkpt lat="48.69821" lon="1.74856">
        <ele>167</ele>
        <time>2014-10-31T14:12:50.000Z</time>
      </trkpt>
      <trkpt lat="48.69824" lon="1.74865">
        <ele>166.80000305176</ele>
        <time>2014-10-31T14:12:54.000Z</time>
      </trkpt>
      <trkpt lat="48.69821" lon="1.74876">
        <ele>166.19999694824</ele>
        <time>2014-10-31T14:13:00.000Z</time>
      </trkpt>
      <trkpt lat="48.69816" lon="1.74879">
        <ele>166.19999694824</ele>
        <time>2014-10-31T14:13:04.000Z</time>
      </trkpt>
      <trkpt lat="48.69809" lon="1.74895">
        <ele>166.39999389648</ele>
        <time>2014-10-31T14:13:14.000Z</time>
      </trkpt>
      <trkpt lat="48.69811" lon="1.74911">
        <ele>166.60000610352</ele>
        <time>2014-10-31T14:13:21.000Z</time>
      </trkpt>
      <trkpt lat="48.69813" lon="1.74933">
        <ele>167.19999694824</ele>
        <time>2014-10-31T14:13:30.000Z</time>
      </trkpt>
      <trkpt lat="48.69815" lon="1.74951">
        <ele>167.60000610352</ele>
        <time>2014-10-31T14:13:38.000Z</time>
      </trkpt>
      <trkpt lat="48.69819" lon="1.74966">
        <ele>167.80000305176</ele>
        <time>2014-10-31T14:13:45.000Z</time>
      </trkpt>
      <trkpt lat="48.69819" lon="1.7498">
        <ele>167.80000305176</ele>
        <time>2014-10-31T14:13:51.000Z</time>
      </trkpt>
      <trkpt lat="48.69821" lon="1.74992">
        <ele>168</ele>
        <time>2014-10-31T14:13:57.000Z</time>
      </trkpt>
      <trkpt lat="48.69825" lon="1.75011">
        <ele>168.19999694824</ele>
        <time>2014-10-31T14:14:05.000Z</time>
      </trkpt>
      <trkpt lat="48.69827" lon="1.7503">
        <ele>168.60000610352</ele>
        <time>2014-10-31T14:14:10.000Z</time>
      </trkpt>
      <trkpt lat="48.6983" lon="1.75057">
        <ele>169</ele>
        <time>2014-10-31T14:14:15.000Z</time>
      </trkpt>
      <trkpt lat="48.69833" lon="1.75079">
        <ele>169.60000610352</ele>
        <time>2014-10-31T14:14:19.000Z</time>
      </trkpt>
      <trkpt lat="48.69837" lon="1.75105">
        <ele>169.60000610352</ele>
        <time>2014-10-31T14:14:24.000Z</time>
      </trkpt>
      <trkpt lat="48.69842" lon="1.75125">
        <ele>169.80000305176</ele>
        <time>2014-10-31T14:14:28.000Z</time>
      </trkpt>
      <trkpt lat="48.69847" lon="1.75148">
        <ele>169.80000305176</ele>
        <time>2014-10-31T14:14:33.000Z</time>
      </trkpt>
      <trkpt lat="48.6985" lon="1.75172">
        <ele>170.60000610352</ele>
        <time>2014-10-31T14:14:38.000Z</time>
      </trkpt>
      <trkpt lat="48.69855" lon="1.75205">
        <ele>171.80000305176</ele>
        <time>2014-10-31T14:14:45.000Z</time>
      </trkpt>
      <trkpt lat="48.69859" lon="1.75231">
        <ele>173</ele>
        <time>2014-10-31T14:14:51.000Z</time>
      </trkpt>
      <trkpt lat="48.69865" lon="1.75253">
        <ele>173</ele>
        <time>2014-10-31T14:14:56.000Z</time>
      </trkpt>
      <trkpt lat="48.69868" lon="1.75279">
        <ele>172.60000610352</ele>
        <time>2014-10-31T14:15:01.000Z</time>
      </trkpt>
      <trkpt lat="48.69872" lon="1.75306">
        <ele>172.39999389648</ele>
        <time>2014-10-31T14:15:07.000Z</time>
      </trkpt>
      <trkpt lat="48.69875" lon="1.75328">
        <ele>172.19999694824</ele>
        <time>2014-10-31T14:15:11.000Z</time>
      </trkpt>
      <trkpt lat="48.69876" lon="1.75348">
        <ele>171.80000305176</ele>
        <time>2014-10-31T14:15:17.000Z</time>
      </trkpt>
      <trkpt lat="48.6988" lon="1.75361">
        <ele>171.60000610352</ele>
        <time>2014-10-31T14:15:22.000Z</time>
      </trkpt>
      <trkpt lat="48.69881" lon="1.75372">
        <ele>171.39999389648</ele>
        <time>2014-10-31T14:15:26.000Z</time>
      </trkpt>
      <trkpt lat="48.69884" lon="1.7538">
        <ele>171.39999389648</ele>
        <time>2014-10-31T14:15:30.000Z</time>
      </trkpt>
      <trkpt lat="48.6989" lon="1.75387">
        <ele>171.39999389648</ele>
        <time>2014-10-31T14:15:36.000Z</time>
      </trkpt>
      <trkpt lat="48.69892" lon="1.75387">
        <ele>171.39999389648</ele>
        <time>2014-10-31T14:15:38.000Z</time>
      </trkpt>
      <trkpt lat="48.69902" lon="1.75384">
        <ele>171.60000610352</ele>
        <time>2014-10-31T14:15:44.000Z</time>
      </trkpt>
      <trkpt lat="48.69914" lon="1.7538">
        <ele>172</ele>
        <time>2014-10-31T14:15:51.000Z</time>
      </trkpt>
      <trkpt lat="48.69923" lon="1.75376">
        <ele>172.19999694824</ele>
        <time>2014-10-31T14:15:57.000Z</time>
      </trkpt>
      <trkpt lat="48.69935" lon="1.75372">
        <ele>172.39999389648</ele>
        <time>2014-10-31T14:16:04.000Z</time>
      </trkpt>
      <trkpt lat="48.69944" lon="1.75367">
        <ele>172</ele>
        <time>2014-10-31T14:16:11.000Z</time>
      </trkpt>
      <trkpt lat="48.69954" lon="1.75362">
        <ele>171.60000610352</ele>
        <time>2014-10-31T14:16:18.000Z</time>
      </trkpt>
      <trkpt lat="48.69966" lon="1.75357">
        <ele>171.19999694824</ele>
        <time>2014-10-31T14:16:25.000Z</time>
      </trkpt>
      <trkpt lat="48.69975" lon="1.75352">
        <ele>171</ele>
        <time>2014-10-31T14:16:31.000Z</time>
      </trkpt>
      <trkpt lat="48.69979" lon="1.75352">
        <ele>171</ele>
        <time>2014-10-31T14:16:34.000Z</time>
      </trkpt>
      <trkpt lat="48.69984" lon="1.75348">
        <ele>171.19999694824</ele>
        <time>2014-10-31T14:16:39.000Z</time>
      </trkpt>
      <trkpt lat="48.69998" lon="1.75344">
        <ele>171.19999694824</ele>
        <time>2014-10-31T14:16:47.000Z</time>
      </trkpt>
      <trkpt lat="48.70007" lon="1.75339">
        <ele>171.19999694824</ele>
        <time>2014-10-31T14:16:54.000Z</time>
      </trkpt>
      <trkpt lat="48.70016" lon="1.75334">
        <ele>171.39999389648</ele>
        <time>2014-10-31T14:17:01.000Z</time>
      </trkpt>
      <trkpt lat="48.7003" lon="1.75329">
        <ele>171.60000610352</ele>
        <time>2014-10-31T14:17:10.000Z</time>
      </trkpt>
      <trkpt lat="48.70037" lon="1.75326">
        <ele>171.80000305176</ele>
        <time>2014-10-31T14:17:16.000Z</time>
      </trkpt>
      <trkpt lat="48.70049" lon="1.75319">
        <ele>172.39999389648</ele>
        <time>2014-10-31T14:17:24.000Z</time>
      </trkpt>
      <trkpt lat="48.70055" lon="1.75316">
        <ele>172.60000610352</ele>
        <time>2014-10-31T14:17:28.000Z</time>
      </trkpt>
      <trkpt lat="48.70062" lon="1.75312">
        <ele>172.80000305176</ele>
        <time>2014-10-31T14:17:32.000Z</time>
      </trkpt>
      <trkpt lat="48.70075" lon="1.75306">
        <ele>173</ele>
        <time>2014-10-31T14:17:41.000Z</time>
      </trkpt>
      <trkpt lat="48.70084" lon="1.75301">
        <ele>173.19999694824</ele>
        <time>2014-10-31T14:17:48.000Z</time>
      </trkpt>
      <trkpt lat="48.70094" lon="1.75297">
        <ele>173.39999389648</ele>
        <time>2014-10-31T14:17:56.000Z</time>
      </trkpt>
      <trkpt lat="48.70103" lon="1.75293">
        <ele>173.60000610352</ele>
        <time>2014-10-31T14:18:02.000Z</time>
      </trkpt>
      <trkpt lat="48.70104" lon="1.75291">
        <ele>173.80000305176</ele>
        <time>2014-10-31T14:18:04.000Z</time>
      </trkpt>
      <trkpt lat="48.70117" lon="1.75287">
        <ele>174.39999389648</ele>
        <time>2014-10-31T14:18:13.000Z</time>
      </trkpt>
      <trkpt lat="48.70126" lon="1.75282">
        <ele>174.80000305176</ele>
        <time>2014-10-31T14:18:20.000Z</time>
      </trkpt>
      <trkpt lat="48.70134" lon="1.75279">
        <ele>175.19999694824</ele>
        <time>2014-10-31T14:18:26.000Z</time>
      </trkpt>
      <trkpt lat="48.70145" lon="1.75274">
        <ele>175.60000610352</ele>
        <time>2014-10-31T14:18:33.000Z</time>
      </trkpt>
      <trkpt lat="48.70152" lon="1.75268">
        <ele>175.60000610352</ele>
        <time>2014-10-31T14:18:39.000Z</time>
      </trkpt>
      <trkpt lat="48.70154" lon="1.75266">
        <ele>175.60000610352</ele>
        <time>2014-10-31T14:18:43.000Z</time>
      </trkpt>
      <trkpt lat="48.70154" lon="1.75266">
        <ele>175.60000610352</ele>
        <time>2014-10-31T14:18:46.000Z</time>
      </trkpt>
      <trkpt lat="48.70168" lon="1.75259">
        <ele>175.80000305176</ele>
        <time>2014-10-31T14:19:08.000Z</time>
      </trkpt>
      <trkpt lat="48.70181" lon="1.75254">
        <ele>176</ele>
        <time>2014-10-31T14:19:15.000Z</time>
      </trkpt>
      <trkpt lat="48.70191" lon="1.75252">
        <ele>176.19999694824</ele>
        <time>2014-10-31T14:19:23.000Z</time>
      </trkpt>
      <trkpt lat="48.70193" lon="1.75251">
        <ele>176.19999694824</ele>
        <time>2014-10-31T14:19:25.000Z</time>
      </trkpt>
      <trkpt lat="48.70206" lon="1.75244">
        <ele>176.80000305176</ele>
        <time>2014-10-31T14:19:34.000Z</time>
      </trkpt>
      <trkpt lat="48.7021" lon="1.75243">
        <ele>177</ele>
        <time>2014-10-31T14:19:37.000Z</time>
      </trkpt>
      <trkpt lat="48.7022" lon="1.75242">
        <ele>177.60000610352</ele>
        <time>2014-10-31T14:19:43.000Z</time>
      </trkpt>
      <trkpt lat="48.7023" lon="1.75244">
        <ele>178</ele>
        <time>2014-10-31T14:19:49.000Z</time>
      </trkpt>
      <trkpt lat="48.70238" lon="1.7525">
        <ele>178.19999694824</ele>
        <time>2014-10-31T14:19:55.000Z</time>
      </trkpt>
      <trkpt lat="48.70246" lon="1.75257">
        <ele>178.60000610352</ele>
        <time>2014-10-31T14:20:01.000Z</time>
      </trkpt>
      <trkpt lat="48.70252" lon="1.75264">
        <ele>178.80000305176</ele>
        <time>2014-10-31T14:20:08.000Z</time>
      </trkpt>
      <trkpt lat="48.70253" lon="1.75266">
        <ele>178.80000305176</ele>
        <time>2014-10-31T14:20:09.000Z</time>
      </trkpt>
      <trkpt lat="48.70263" lon="1.75274">
        <ele>179.19999694824</ele>
        <time>2014-10-31T14:20:16.000Z</time>
      </trkpt>
      <trkpt lat="48.70274" lon="1.7528">
        <ele>179.60000610352</ele>
        <time>2014-10-31T14:20:23.000Z</time>
      </trkpt>
      <trkpt lat="48.7028" lon="1.75286">
        <ele>179.60000610352</ele>
        <time>2014-10-31T14:20:28.000Z</time>
      </trkpt>
      <trkpt lat="48.70285" lon="1.75287">
        <ele>179.80000305176</ele>
        <time>2014-10-31T14:20:32.000Z</time>
      </trkpt>
      <trkpt lat="48.70289" lon="1.75292">
        <ele>179.80000305176</ele>
        <time>2014-10-31T14:20:36.000Z</time>
      </trkpt>
      <trkpt lat="48.7029" lon="1.75298">
        <ele>179.80000305176</ele>
        <time>2014-10-31T14:20:40.000Z</time>
      </trkpt>
      <trkpt lat="48.70297" lon="1.75309">
        <ele>179.80000305176</ele>
        <time>2014-10-31T14:20:46.000Z</time>
      </trkpt>
      <trkpt lat="48.70304" lon="1.75319">
        <ele>179.80000305176</ele>
        <time>2014-10-31T14:20:51.000Z</time>
      </trkpt>
      <trkpt lat="48.70307" lon="1.75329">
        <ele>179.80000305176</ele>
        <time>2014-10-31T14:20:57.000Z</time>
      </trkpt>
      <trkpt lat="48.70308" lon="1.75336">
        <ele>180</ele>
        <time>2014-10-31T14:21:01.000Z</time>
      </trkpt>
      <trkpt lat="48.70315" lon="1.7534">
        <ele>180</ele>
        <time>2014-10-31T14:21:06.000Z</time>
      </trkpt>
      <trkpt lat="48.70321" lon="1.75345">
        <ele>180.19999694824</ele>
        <time>2014-10-31T14:21:10.000Z</time>
      </trkpt>
      <trkpt lat="48.70327" lon="1.75351">
        <ele>180.39999389648</ele>
        <time>2014-10-31T14:21:15.000Z</time>
      </trkpt>
      <trkpt lat="48.70337" lon="1.75358">
        <ele>180.60000610352</ele>
        <time>2014-10-31T14:21:22.000Z</time>
      </trkpt>
      <trkpt lat="48.70342" lon="1.7536">
        <ele>180.80000305176</ele>
        <time>2014-10-31T14:21:25.000Z</time>
      </trkpt>
      <trkpt lat="48.70348" lon="1.75369">
        <ele>180.80000305176</ele>
        <time>2014-10-31T14:21:32.000Z</time>
      </trkpt>
      <trkpt lat="48.70352" lon="1.75374">
        <ele>181</ele>
        <time>2014-10-31T14:21:36.000Z</time>
      </trkpt>
      <trkpt lat="48.70361" lon="1.75385">
        <ele>181</ele>
        <time>2014-10-31T14:21:44.000Z</time>
      </trkpt>
      <trkpt lat="48.7037" lon="1.75395">
        <ele>181.19999694824</ele>
        <time>2014-10-31T14:21:52.000Z</time>
      </trkpt>
      <trkpt lat="48.70379" lon="1.75402">
        <ele>181.39999389648</ele>
        <time>2014-10-31T14:21:59.000Z</time>
      </trkpt>
      <trkpt lat="48.70381" lon="1.75403">
        <ele>181.39999389648</ele>
        <time>2014-10-31T14:22:05.000Z</time>
      </trkpt>
      <trkpt lat="48.70389" lon="1.75404">
        <ele>181.39999389648</ele>
        <time>2014-10-31T14:22:15.000Z</time>
      </trkpt>
      <trkpt lat="48.70394" lon="1.75402">
        <ele>181.39999389648</ele>
        <time>2014-10-31T14:22:17.000Z</time>
      </trkpt>
      <trkpt lat="48.70403" lon="1.75411">
        <ele>181.80000305176</ele>
        <time>2014-10-31T14:22:25.000Z</time>
      </trkpt>
      <trkpt lat="48.70408" lon="1.75414">
        <ele>181.80000305176</ele>
        <time>2014-10-31T14:22:31.000Z</time>
      </trkpt>
      <trkpt lat="48.70408" lon="1.75414">
        <ele>181.80000305176</ele>
        <time>2014-10-31T14:22:32.000Z</time>
      </trkpt>
      <trkpt lat="48.70415" lon="1.75421">
        <ele>182.19999694824</ele>
        <time>2014-10-31T14:23:12.000Z</time>
      </trkpt>
      <trkpt lat="48.70421" lon="1.75426">
        <ele>182.39999389648</ele>
        <time>2014-10-31T14:23:16.000Z</time>
      </trkpt>
      <trkpt lat="48.70432" lon="1.75435">
        <ele>182.60000610352</ele>
        <time>2014-10-31T14:23:25.000Z</time>
      </trkpt>
      <trkpt lat="48.70441" lon="1.75444">
        <ele>182.80000305176</ele>
        <time>2014-10-31T14:23:33.000Z</time>
      </trkpt>
      <trkpt lat="48.7045" lon="1.75449">
        <ele>182.60000610352</ele>
        <time>2014-10-31T14:23:40.000Z</time>
      </trkpt>
      <trkpt lat="48.70452" lon="1.7545">
        <ele>182.60000610352</ele>
        <time>2014-10-31T14:23:41.000Z</time>
      </trkpt>
      <trkpt lat="48.70459" lon="1.75457">
        <ele>182.39999389648</ele>
        <time>2014-10-31T14:23:48.000Z</time>
      </trkpt>
      <trkpt lat="48.70462" lon="1.75459">
        <ele>182.39999389648</ele>
        <time>2014-10-31T14:23:50.000Z</time>
      </trkpt>
      <trkpt lat="48.70468" lon="1.75464">
        <ele>182.39999389648</ele>
        <time>2014-10-31T14:23:55.000Z</time>
      </trkpt>
      <trkpt lat="48.70476" lon="1.75472">
        <ele>182.19999694824</ele>
        <time>2014-10-31T14:24:01.000Z</time>
      </trkpt>
      <trkpt lat="48.70484" lon="1.75482">
        <ele>182.19999694824</ele>
        <time>2014-10-31T14:24:09.000Z</time>
      </trkpt>
      <trkpt lat="48.70493" lon="1.75489">
        <ele>182</ele>
        <time>2014-10-31T14:24:16.000Z</time>
      </trkpt>
      <trkpt lat="48.70501" lon="1.75496">
        <ele>182</ele>
        <time>2014-10-31T14:24:22.000Z</time>
      </trkpt>
      <trkpt lat="48.7051" lon="1.75504">
        <ele>182.19999694824</ele>
        <time>2014-10-31T14:24:29.000Z</time>
      </trkpt>
      <trkpt lat="48.70517" lon="1.75515">
        <ele>182.39999389648</ele>
        <time>2014-10-31T14:24:37.000Z</time>
      </trkpt>
      <trkpt lat="48.70522" lon="1.75523">
        <ele>182.60000610352</ele>
        <time>2014-10-31T14:24:43.000Z</time>
      </trkpt>
      <trkpt lat="48.70525" lon="1.75528">
        <ele>182.80000305176</ele>
        <time>2014-10-31T14:24:49.000Z</time>
      </trkpt>
      <trkpt lat="48.70544" lon="1.75543">
        <ele>183</ele>
        <time>2014-10-31T14:26:43.000Z</time>
      </trkpt>
      <trkpt lat="48.70552" lon="1.75552">
        <ele>183.39999389648</ele>
        <time>2014-10-31T14:26:50.000Z</time>
      </trkpt>
      <trkpt lat="48.70561" lon="1.7556">
        <ele>183.39999389648</ele>
        <time>2014-10-31T14:26:58.000Z</time>
      </trkpt>
      <trkpt lat="48.70569" lon="1.75565">
        <ele>183.60000610352</ele>
        <time>2014-10-31T14:27:04.000Z</time>
      </trkpt>
      <trkpt lat="48.70577" lon="1.75574">
        <ele>183.80000305176</ele>
        <time>2014-10-31T14:27:12.000Z</time>
      </trkpt>
      <trkpt lat="48.70584" lon="1.75583">
        <ele>183.80000305176</ele>
        <time>2014-10-31T14:27:18.000Z</time>
      </trkpt>
      <trkpt lat="48.70591" lon="1.7559">
        <ele>183.80000305176</ele>
        <time>2014-10-31T14:27:23.000Z</time>
      </trkpt>
      <trkpt lat="48.70594" lon="1.75596">
        <ele>183.80000305176</ele>
        <time>2014-10-31T14:27:27.000Z</time>
      </trkpt>
      <trkpt lat="48.70598" lon="1.75601">
        <ele>183.80000305176</ele>
        <time>2014-10-31T14:27:31.000Z</time>
      </trkpt>
      <trkpt lat="48.70605" lon="1.75611">
        <ele>183.80000305176</ele>
        <time>2014-10-31T14:27:39.000Z</time>
      </trkpt>
      <trkpt lat="48.70609" lon="1.75616">
        <ele>183.39999389648</ele>
        <time>2014-10-31T14:27:43.000Z</time>
      </trkpt>
      <trkpt lat="48.70617" lon="1.75626">
        <ele>182.80000305176</ele>
        <time>2014-10-31T14:27:50.000Z</time>
      </trkpt>
      <trkpt lat="48.70619" lon="1.75631">
        <ele>182.60000610352</ele>
        <time>2014-10-31T14:27:55.000Z</time>
      </trkpt>
      <trkpt lat="48.70619" lon="1.75632">
        <ele>182.60000610352</ele>
        <time>2014-10-31T14:27:56.000Z</time>
      </trkpt>
      <trkpt lat="48.70631" lon="1.75642">
        <ele>181.39999389648</ele>
        <time>2014-10-31T14:28:40.000Z</time>
      </trkpt>
      <trkpt lat="48.70634" lon="1.75643">
        <ele>181</ele>
        <time>2014-10-31T14:28:41.000Z</time>
      </trkpt>
      <trkpt lat="48.70633" lon="1.75646">
        <ele>181.19999694824</ele>
        <time>2014-10-31T14:28:44.000Z</time>
      </trkpt>
      <trkpt lat="48.70636" lon="1.75646">
        <ele>181</ele>
        <time>2014-10-31T14:28:48.000Z</time>
      </trkpt>
      <trkpt lat="48.7064" lon="1.75635">
        <ele>180.19999694824</ele>
        <time>2014-10-31T14:28:54.000Z</time>
      </trkpt>
      <trkpt lat="48.70645" lon="1.75623">
        <ele>179.19999694824</ele>
        <time>2014-10-31T14:29:01.000Z</time>
      </trkpt>
      <trkpt lat="48.70648" lon="1.75614">
        <ele>178.80000305176</ele>
        <time>2014-10-31T14:29:07.000Z</time>
      </trkpt>
      <trkpt lat="48.70649" lon="1.75609">
        <ele>178.60000610352</ele>
        <time>2014-10-31T14:29:10.000Z</time>
      </trkpt>
      <trkpt lat="48.70651" lon="1.75598">
        <ele>178.39999389648</ele>
        <time>2014-10-31T14:29:16.000Z</time>
      </trkpt>
      <trkpt lat="48.70657" lon="1.75588">
        <ele>177.80000305176</ele>
        <time>2014-10-31T14:29:22.000Z</time>
      </trkpt>
      <trkpt lat="48.70664" lon="1.75578">
        <ele>177.19999694824</ele>
        <time>2014-10-31T14:29:30.000Z</time>
      </trkpt>
      <trkpt lat="48.70668" lon="1.75567">
        <ele>176.39999389648</ele>
        <time>2014-10-31T14:29:37.000Z</time>
      </trkpt>
      <trkpt lat="48.70676" lon="1.75554">
        <ele>174.80000305176</ele>
        <time>2014-10-31T14:29:45.000Z</time>
      </trkpt>
      <trkpt lat="48.7068" lon="1.75544">
        <ele>174.39999389648</ele>
        <time>2014-10-31T14:29:51.000Z</time>
      </trkpt>
      <trkpt lat="48.70682" lon="1.75538">
        <ele>174.19999694824</ele>
        <time>2014-10-31T14:29:54.000Z</time>
      </trkpt>
      <trkpt lat="48.70685" lon="1.75531">
        <ele>174</ele>
        <time>2014-10-31T14:29:58.000Z</time>
      </trkpt>
      <trkpt lat="48.70687" lon="1.75527">
        <ele>174</ele>
        <time>2014-10-31T14:30:00.000Z</time>
      </trkpt>
      <trkpt lat="48.70691" lon="1.75517">
        <ele>173.39999389648</ele>
        <time>2014-10-31T14:30:07.000Z</time>
      </trkpt>
      <trkpt lat="48.70693" lon="1.75514">
        <ele>173.39999389648</ele>
        <time>2014-10-31T14:30:10.000Z</time>
      </trkpt>
      <trkpt lat="48.70697" lon="1.75505">
        <ele>173</ele>
        <time>2014-10-31T14:30:17.000Z</time>
      </trkpt>
      <trkpt lat="48.707" lon="1.75496">
        <ele>172.60000610352</ele>
        <time>2014-10-31T14:30:22.000Z</time>
      </trkpt>
      <trkpt lat="48.70701" lon="1.75486">
        <ele>172.60000610352</ele>
        <time>2014-10-31T14:30:28.000Z</time>
      </trkpt>
      <trkpt lat="48.70701" lon="1.75482">
        <ele>172.60000610352</ele>
        <time>2014-10-31T14:30:32.000Z</time>
      </trkpt>
      <trkpt lat="48.70701" lon="1.75482">
        <ele>172.60000610352</ele>
        <time>2014-10-31T14:30:33.000Z</time>
      </trkpt>
      <trkpt lat="48.70698" lon="1.75472">
        <ele>172.39999389648</ele>
        <time>2014-10-31T14:31:19.000Z</time>
      </trkpt>
      <trkpt lat="48.70702" lon="1.75466">
        <ele>172.19999694824</ele>
        <time>2014-10-31T14:31:23.000Z</time>
      </trkpt>
      <trkpt lat="48.70704" lon="1.75461">
        <ele>172</ele>
        <time>2014-10-31T14:31:26.000Z</time>
      </trkpt>
      <trkpt lat="48.70708" lon="1.75455">
        <ele>171.80000305176</ele>
        <time>2014-10-31T14:31:31.000Z</time>
      </trkpt>
      <trkpt lat="48.70709" lon="1.75456">
        <ele>171.60000610352</ele>
        <time>2014-10-31T14:31:34.000Z</time>
      </trkpt>
    </trkseg>
  </trk>
</gpx>